Wetterdaten: Donnerstag, 18.01.2018
Datum Zeit Temp. A. Pool Temp. Feuchte A. Luftdruck Regen Wind Richtung Richtung Sonnenschein ET UV Solar Taupunkt Windchill Windben Empfang
18.01.2018 00:00 1,3 C 3,3 C 84 % 1010,6 hPa 0,0 l/m 23,3 km/h (4 Bft) W 264 0 min 0,000 mm 0,0 UV-I 0 W/m -1,1 C -9,3 C 45,1 km/h (6 Bft) 96,23 %
18.01.2018 00:02 1,4 C 3,3 C 83 % 1010,7 hPa 0,0 l/m 26,2 km/h (4 Bft) W-SW 247 0 min 0,000 mm 0,0 UV-I 0 W/m -1,2 C -10,2 C 40,2 km/h (6 Bft) 94,44 %
18.01.2018 00:04 1,5 C 3,3 C 83 % 1010,6 hPa 0,0 l/m 28,9 km/h (5 Bft) W-NW 284 0 min 0,000 mm 0,0 UV-I 0 W/m -1,1 C -11,0 C 46,7 km/h (6 Bft) 96,23 %
18.01.2018 00:06 1,5 C 3,3 C 83 % 1010,7 hPa 0,0 l/m 25,8 km/h (4 Bft) W 270 0 min 0,000 mm 0,0 UV-I 0 W/m -1,1 C -10,0 C 45,1 km/h (6 Bft) 97,73 %
18.01.2018 00:08 1,5 C 3,3 C 83 % 1010,6 hPa 0,0 l/m 24,6 km/h (4 Bft) W-SW 250 0 min 0,000 mm 0,0 UV-I 0 W/m -1,1 C -9,5 C 37,0 km/h (5 Bft) 97,87 %
18.01.2018 00:10 1,5 C 3,3 C 83 % 1010,6 hPa 0,0 l/m 24,0 km/h (4 Bft) W-SW 244 0 min 0,000 mm 0,0 UV-I 0 W/m -1,1 C -9,3 C 37,0 km/h (5 Bft) 97,92 %
18.01.2018 00:12 1,6 C 3,3 C 83 % 1010,7 hPa 0,0 l/m 20,3 km/h (4 Bft) W-SW 240 0 min 0,000 mm 0,0 UV-I 0 W/m -1,0 C -7,7 C 30,6 km/h (5 Bft) 97,73 %
18.01.2018 00:14 1,5 C 3,3 C 83 % 1010,7 hPa 0,0 l/m 25,4 km/h (4 Bft) W 275 0 min 0,000 mm 0,0 UV-I 0 W/m -1,1 C -9,8 C 40,2 km/h (6 Bft) 98,11 %
18.01.2018 00:16 1,5 C 3,3 C 83 % 1010,8 hPa 0,0 l/m 20,1 km/h (4 Bft) W-SW 257 0 min 0,000 mm 0,0 UV-I 0 W/m -1,1 C -7,7 C 25,7 km/h (4 Bft) 96,08 %
18.01.2018 00:18 1,5 C 3,3 C 83 % 1010,7 hPa 0,0 l/m 22,5 km/h (4 Bft) W-SW 255 0 min 0,000 mm 0,0 UV-I 0 W/m -1,1 C -8,7 C 33,8 km/h (5 Bft) 94,74 %
18.01.2018 00:20 1,5 C 3,3 C 83 % 1010,7 hPa 0,0 l/m 20,8 km/h (4 Bft) W 263 0 min 0,000 mm 0,0 UV-I 0 W/m -1,1 C -8,0 C 30,6 km/h (5 Bft) 97,56 %
18.01.2018 00:22 1,6 C 3,3 C 82 % 1010,7 hPa 0,0 l/m 22,1 km/h (4 Bft) SW 236 0 min 0,000 mm 0,0 UV-I 0 W/m -1,1 C -8,5 C 40,2 km/h (6 Bft) 98,00 %
18.01.2018 00:24 1,6 C 3,3 C 82 % 1010,7 hPa 0,0 l/m 23,5 km/h (4 Bft) W-SW 252 0 min 0,000 mm 0,0 UV-I 0 W/m -1,1 C -9,0 C 40,2 km/h (6 Bft) 100,00 %
18.01.2018 00:26 1,6 C 3,3 C 82 % 1010,8 hPa 0,0 l/m 27,0 km/h (4 Bft) W-SW 256 0 min 0,000 mm 0,0 UV-I 0 W/m -1,1 C -10,2 C 43,5 km/h (6 Bft) 98,00 %
18.01.2018 00:28 1,7 C 3,3 C 82 % 1010,7 hPa 0,0 l/m 31,0 km/h (5 Bft) W-SW 254 0 min 0,000 mm 0,0 UV-I 0 W/m -1,0 C -11,3 C 43,5 km/h (6 Bft) 97,87 %
18.01.2018 00:30 1,7 C 3,3 C 81 % 1010,8 hPa 0,0 l/m 31,5 km/h (5 Bft) W 261 0 min 0,000 mm 0,0 UV-I 0 W/m -1,2 C -11,4 C 48,3 km/h (6 Bft) 98,11 %
18.01.2018 00:32 1,8 C 3,3 C 81 % 1010,8 hPa 0,0 l/m 30,1 km/h (5 Bft) W 264 0 min 0,000 mm 0,0 UV-I 0 W/m -1,1 C -10,9 C 43,5 km/h (6 Bft) 97,37 %
18.01.2018 00:34 1,8 C 3,3 C 81 % 1010,9 hPa 0,0 l/m 28,6 km/h (4 Bft) SW 214 0 min 0,000 mm 0,0 UV-I 0 W/m -1,1 C -10,5 C 53,1 km/h (7 Bft) 94,64 %
18.01.2018 00:36 1,8 C 3,3 C 81 % 1011,0 hPa 0,0 l/m 27,9 km/h (4 Bft) W-SW 252 0 min 0,000 mm 0,0 UV-I 0 W/m -1,1 C -10,2 C 48,3 km/h (6 Bft) 97,37 %
18.01.2018 00:38 1,8 C 3,3 C 81 % 1011,0 hPa 0,0 l/m 25,0 km/h (4 Bft) SW 217 0 min 0,000 mm 0,0 UV-I 0 W/m -1,1 C -9,3 C 37,0 km/h (5 Bft) 100,00 %
18.01.2018 00:40 1,8 C 3,3 C 81 % 1011,1 hPa 0,0 l/m 25,5 km/h (4 Bft) W-SW 248 0 min 0,000 mm 0,0 UV-I 0 W/m -1,1 C -9,5 C 37,0 km/h (5 Bft) 97,92 %
18.01.2018 00:42 1,9 C 3,3 C 80 % 1011,0 hPa 0,0 l/m 29,6 km/h (5 Bft) W-NW 300 0 min 0,000 mm 0,0 UV-I 0 W/m -1,2 C -10,6 C 45,1 km/h (6 Bft) 100,00 %
18.01.2018 00:44 1,9 C 3,3 C 80 % 1011,2 hPa 0,0 l/m 25,0 km/h (4 Bft) W-SW 246 0 min 0,000 mm 0,0 UV-I 0 W/m -1,2 C -9,1 C 41,8 km/h (6 Bft) 100,00 %
18.01.2018 00:46 2,0 C 3,3 C 80 % 1011,2 hPa 0,0 l/m 25,6 km/h (4 Bft) S 185 0 min 0,000 mm 0,0 UV-I 0 W/m -1,1 C -9,2 C 45,1 km/h (6 Bft) 100,00 %
18.01.2018 00:48 2,0 C 3,3 C 80 % 1011,1 hPa 0,0 l/m 28,7 km/h (4 Bft) W-SW 250 0 min 0,000 mm 0,0 UV-I 0 W/m -1,1 C -10,2 C 43,5 km/h (6 Bft) 100,00 %
18.01.2018 00:50 2,0 C 3,3 C 80 % 1011,1 hPa 0,0 l/m 22,3 km/h (4 Bft) W-NW 290 0 min 0,000 mm 0,0 UV-I 0 W/m -1,1 C -8,0 C 33,8 km/h (5 Bft) 100,00 %
18.01.2018 00:52 2,0 C 3,3 C 80 % 1011,2 hPa 0,0 l/m 27,0 km/h (4 Bft) W 265 0 min 0,000 mm 0,0 UV-I 0 W/m -1,1 C -9,7 C 49,9 km/h (6 Bft) 100,00 %
18.01.2018 00:54 2,0 C 3,3 C 80 % 1011,3 hPa 0,0 l/m 21,0 km/h (4 Bft) W 275 0 min 0,000 mm 0,0 UV-I 0 W/m -1,1 C -7,5 C 38,6 km/h (5 Bft) 100,00 %
18.01.2018 00:56 2,1 C 3,3 C 80 % 1011,1 hPa 0,0 l/m 21,0 km/h (4 Bft) W 260 0 min 0,000 mm 0,0 UV-I 0 W/m -1,0 C -7,3 C 30,6 km/h (5 Bft) 100,00 %
18.01.2018 00:58 2,0 C 3,3 C 80 % 1011,1 hPa 0,0 l/m 22,8 km/h (4 Bft) W 259 0 min 0,000 mm 0,0 UV-I 0 W/m -1,1 C -8,2 C 32,2 km/h (5 Bft) 100,00 %
18.01.2018 01:00 2,1 C 3,3 C 80 % 1011,2 hPa 0,0 l/m 25,5 km/h (4 Bft) W 262 0 min 0,025 mm 0,0 UV-I 0 W/m -1,0 C -9,0 C 41,8 km/h (6 Bft) 100,00 %
18.01.2018 01:02 2,1 C 3,3 C 80 % 1011,1 hPa 0,0 l/m 22,1 km/h (4 Bft) W 259 0 min 0,000 mm 0,0 UV-I 0 W/m -1,0 C -7,8 C 40,2 km/h (6 Bft) 98,00 %
18.01.2018 01:04 2,1 C 3,3 C 80 % 1011,2 hPa 0,0 l/m 24,4 km/h (4 Bft) W-SW 244 0 min 0,000 mm 0,0 UV-I 0 W/m -1,0 C -8,7 C 38,6 km/h (5 Bft) 100,00 %
18.01.2018 01:06 2,1 C 3,3 C 79 % 1011,2 hPa 0,0 l/m 26,1 km/h (4 Bft) W 271 0 min 0,000 mm 0,0 UV-I 0 W/m -1,2 C -9,2 C 45,1 km/h (6 Bft) 100,00 %
18.01.2018 01:08 2,1 C 3,3 C 79 % 1011,2 hPa 0,0 l/m 25,9 km/h (4 Bft) W-SW 237 0 min 0,000 mm 0,0 UV-I 0 W/m -1,2 C -9,2 C 46,7 km/h (6 Bft) 100,00 %
18.01.2018 01:10 2,1 C 3,3 C 79 % 1011,1 hPa 0,0 l/m 28,4 km/h (4 Bft) W-SW 242 0 min 0,000 mm 0,0 UV-I 0 W/m -1,2 C -10,0 C 45,1 km/h (6 Bft) 100,00 %
18.01.2018 01:12 2,1 C 3,3 C 79 % 1011,2 hPa 0,0 l/m 26,2 km/h (4 Bft) W-SW 238 0 min 0,000 mm 0,0 UV-I 0 W/m -1,2 C -9,3 C 37,0 km/h (5 Bft) 100,00 %
18.01.2018 01:14 2,1 C 3,3 C 79 % 1011,1 hPa 0,0 l/m 29,1 km/h (5 Bft) SW 234 0 min 0,000 mm 0,0 UV-I 0 W/m -1,2 C -10,2 C 41,8 km/h (6 Bft) 93,62 %
18.01.2018 01:16 2,1 C 3,3 C 79 % 1011,1 hPa 0,0 l/m 27,8 km/h (4 Bft) W 261 0 min 0,000 mm 0,0 UV-I 0 W/m -1,2 C -9,8 C 41,8 km/h (6 Bft) 98,11 %
18.01.2018 01:18 2,1 C 3,3 C 79 % 1011,2 hPa 0,0 l/m 21,3 km/h (4 Bft) W 267 0 min 0,000 mm 0,0 UV-I 0 W/m -1,2 C -7,5 C 41,8 km/h (6 Bft) 100,00 %
18.01.2018 01:20 2,1 C 3,3 C 79 % 1011,2 hPa 0,0 l/m 24,1 km/h (4 Bft) W 264 0 min 0,000 mm 0,0 UV-I 0 W/m -1,2 C -8,6 C 40,2 km/h (6 Bft) 97,37 %
18.01.2018 01:22 2,1 C 3,3 C 80 % 1011,2 hPa 0,0 l/m 21,9 km/h (4 Bft) W-SW 253 0 min 0,000 mm 0,0 UV-I 0 W/m -1,0 C -7,7 C 40,2 km/h (6 Bft) 97,87 %
18.01.2018 01:24 2,1 C 3,3 C 80 % 1011,2 hPa 0,0 l/m 23,7 km/h (4 Bft) SW 230 0 min 0,000 mm 0,0 UV-I 0 W/m -1,0 C -8,4 C 41,8 km/h (6 Bft) 96,00 %
18.01.2018 01:26 2,1 C 3,3 C 80 % 1011,3 hPa 0,0 l/m 22,9 km/h (4 Bft) SW 231 0 min 0,000 mm 0,0 UV-I 0 W/m -1,0 C -8,1 C 37,0 km/h (5 Bft) 98,11 %
18.01.2018 01:28 2,1 C 3,3 C 80 % 1011,3 hPa 0,0 l/m 26,3 km/h (4 Bft) W-SW 253 0 min 0,000 mm 0,0 UV-I 0 W/m -1,0 C -9,3 C 38,6 km/h (5 Bft) 97,62 %
18.01.2018 01:30 2,0 C 3,3 C 80 % 1011,3 hPa 0,0 l/m 24,5 km/h (4 Bft) W-SW 241 0 min 0,000 mm 0,0 UV-I 0 W/m -1,1 C -8,8 C 40,2 km/h (6 Bft) 94,74 %
18.01.2018 01:32 2,0 C 3,3 C 80 % 1011,4 hPa 0,0 l/m 25,3 km/h (4 Bft) W-SW 250 0 min 0,000 mm 0,0 UV-I 0 W/m -1,1 C -9,1 C 37,0 km/h (5 Bft) 98,31 %
18.01.2018 01:34 2,0 C 3,3 C 80 % 1011,4 hPa 0,0 l/m 25,1 km/h (4 Bft) W-SW 254 0 min 0,000 mm 0,0 UV-I 0 W/m -1,1 C -9,0 C 40,2 km/h (6 Bft) 95,12 %
18.01.2018 01:36 2,0 C 3,3 C 80 % 1011,4 hPa 0,0 l/m 22,5 km/h (4 Bft) SW 217 0 min 0,000 mm 0,0 UV-I 0 W/m -1,1 C -8,1 C 32,2 km/h (5 Bft) 97,37 %
18.01.2018 01:38 2,0 C 3,3 C 80 % 1011,5 hPa 0,0 l/m 22,4 km/h (4 Bft) W 261 0 min 0,000 mm 0,0 UV-I 0 W/m -1,1 C -8,0 C 30,6 km/h (5 Bft) 98,39 %
18.01.2018 01:40 2,0 C 3,3 C 80 % 1011,5 hPa 0,0 l/m 23,6 km/h (4 Bft) W-SW 254 0 min 0,000 mm 0,0 UV-I 0 W/m -1,1 C -8,5 C 32,2 km/h (5 Bft) 97,87 %
18.01.2018 01:42 2,0 C 3,3 C 80 % 1011,5 hPa 0,0 l/m 27,7 km/h (4 Bft) W 271 0 min 0,000 mm 0,0 UV-I 0 W/m -1,1 C -9,9 C 41,8 km/h (6 Bft) 97,56 %
18.01.2018 01:44 2,1 C 3,3 C 79 % 1011,5 hPa 0,0 l/m 28,7 km/h (4 Bft) W-SW 258 0 min 0,000 mm 0,0 UV-I 0 W/m -1,2 C -10,1 C 40,2 km/h (6 Bft) 97,56 %
18.01.2018 01:46 2,1 C 3,3 C 79 % 1011,5 hPa 0,0 l/m 20,4 km/h (4 Bft) W-SW 252 0 min 0,000 mm 0,0 UV-I 0 W/m -1,2 C -7,1 C 33,8 km/h (5 Bft) 96,23 %
18.01.2018 01:48 2,1 C 3,3 C 79 % 1011,6 hPa 0,0 l/m 22,1 km/h (4 Bft) NW 306 0 min 0,000 mm 0,0 UV-I 0 W/m -1,2 C -7,8 C 30,6 km/h (5 Bft) 97,73 %
18.01.2018 01:50 2,1 C 3,3 C 80 % 1011,5 hPa 0,0 l/m 20,6 km/h (4 Bft) W-SW 252 0 min 0,000 mm 0,0 UV-I 0 W/m -1,0 C -7,2 C 32,2 km/h (5 Bft) 98,00 %
18.01.2018 01:52 2,0 C 3,3 C 80 % 1011,6 hPa 0,0 l/m 19,3 km/h (3 Bft) W 269 0 min 0,000 mm 0,0 UV-I 0 W/m -1,1 C -6,7 C 30,6 km/h (5 Bft) 98,00 %
18.01.2018 01:54 2,1 C 3,3 C 80 % 1011,6 hPa 0,0 l/m 20,9 km/h (4 Bft) W 265 0 min 0,000 mm 0,0 UV-I 0 W/m -1,0 C -7,3 C 32,2 km/h (5 Bft) 97,87 %
18.01.2018 01:56 2,1 C 3,3 C 79 % 1011,6 hPa 0,0 l/m 19,5 km/h (3 Bft) SW 236 0 min 0,000 mm 0,0 UV-I 0 W/m -1,2 C -6,7 C 29,0 km/h (5 Bft) 92,68 %
18.01.2018 01:58 2,1 C 3,3 C 79 % 1011,6 hPa 0,0 l/m 20,1 km/h (4 Bft) W-SW 258 0 min 0,000 mm 0,0 UV-I 0 W/m -1,2 C -7,0 C 35,4 km/h (5 Bft) 97,56 %
18.01.2018 02:00 2,1 C 3,3 C 79 % 1011,6 hPa 0,0 l/m 19,0 km/h (3 Bft) W 271 0 min 0,051 mm 0,0 UV-I 0 W/m -1,2 C -6,5 C 27,4 km/h (4 Bft) 98,21 %
18.01.2018 02:02 2,1 C 3,3 C 79 % 1011,6 hPa 0,0 l/m 20,4 km/h (4 Bft) W-SW 257 0 min 0,000 mm 0,0 UV-I 0 W/m -1,2 C -7,1 C 35,4 km/h (5 Bft) 95,12 %
18.01.2018 02:04 2,1 C 3,3 C 79 % 1011,6 hPa 0,0 l/m 16,7 km/h (3 Bft) SW 223 0 min 0,000 mm 0,0 UV-I 0 W/m -1,2 C -5,4 C 24,1 km/h (4 Bft) 96,43 %
18.01.2018 02:06 2,1 C 3,3 C 79 % 1011,7 hPa 0,0 l/m 18,1 km/h (3 Bft) W-SW 252 0 min 0,000 mm 0,0 UV-I 0 W/m -1,2 C -6,0 C 30,6 km/h (5 Bft) 95,74 %
18.01.2018 02:08 2,0 C 3,3 C 79 % 1011,7 hPa 0,0 l/m 15,9 km/h (3 Bft) W 269 0 min 0,000 mm 0,0 UV-I 0 W/m -1,2 C -5,1 C 25,7 km/h (4 Bft) 97,92 %
18.01.2018 02:10 1,9 C 3,3 C 79 % 1011,7 hPa 0,0 l/m 15,8 km/h (3 Bft) W-SW 258 0 min 0,000 mm 0,0 UV-I 0 W/m -1,3 C -5,1 C 25,7 km/h (4 Bft) 94,74 %
18.01.2018 02:12 1,9 C 3,3 C 79 % 1011,7 hPa 0,0 l/m 15,7 km/h (3 Bft) W 259 0 min 0,000 mm 0,0 UV-I 0 W/m -1,3 C -5,1 C 22,5 km/h (4 Bft) 96,23 %
18.01.2018 02:14 1,9 C 3,3 C 79 % 1011,8 hPa 0,0 l/m 14,8 km/h (3 Bft) W-SW 238 0 min 0,000 mm 0,0 UV-I 0 W/m -1,3 C -4,6 C 22,5 km/h (4 Bft) 96,00 %
18.01.2018 02:16 1,8 C 3,3 C 79 % 1011,8 hPa 0,0 l/m 17,6 km/h (3 Bft) W 259 0 min 0,000 mm 0,0 UV-I 0 W/m -1,4 C -6,2 C 27,4 km/h (4 Bft) 93,62 %
18.01.2018 02:18 1,8 C 3,3 C 79 % 1011,8 hPa 0,0 l/m 15,8 km/h (3 Bft) W-SW 254 0 min 0,000 mm 0,0 UV-I 0 W/m -1,4 C -5,2 C 24,1 km/h (4 Bft) 95,12 %
18.01.2018 02:20 1,8 C 3,3 C 79 % 1011,8 hPa 0,0 l/m 18,3 km/h (3 Bft) W 263 0 min 0,000 mm 0,0 UV-I 0 W/m -1,4 C -6,5 C 29,0 km/h (5 Bft) 95,74 %
18.01.2018 02:22 1,8 C 3,3 C 80 % 1011,8 hPa 0,0 l/m 13,3 km/h (3 Bft) SW 227 0 min 0,000 mm 0,0 UV-I 0 W/m -1,3 C -3,8 C 22,5 km/h (4 Bft) 96,00 %
18.01.2018 02:24 1,8 C 3,3 C 80 % 1011,8 hPa 0,0 l/m 16,8 km/h (3 Bft) W-SW 238 0 min 0,000 mm 0,0 UV-I 0 W/m -1,3 C -5,8 C 27,4 km/h (4 Bft) 95,12 %
18.01.2018 02:26 1,8 C 3,3 C 80 % 1011,8 hPa 0,0 l/m 17,0 km/h (3 Bft) W-SW 248 0 min 0,000 mm 0,0 UV-I 0 W/m -1,3 C -5,9 C 20,9 km/h (4 Bft) 96,23 %
18.01.2018 02:28 1,8 C 3,3 C 80 % 1011,8 hPa 0,0 l/m 18,5 km/h (3 Bft) W 262 0 min 0,000 mm 0,0 UV-I 0 W/m -1,3 C -6,6 C 25,7 km/h (4 Bft) 92,11 %
18.01.2018 02:30 1,8 C 3,3 C 80 % 1011,9 hPa 0,0 l/m 18,3 km/h (3 Bft) W-SW 246 0 min 0,000 mm 0,0 UV-I 0 W/m -1,3 C -6,5 C 32,2 km/h (5 Bft) 95,45 %
18.01.2018 02:32 1,8 C 3,3 C 80 % 1011,9 hPa 0,0 l/m 19,5 km/h (3 Bft) W 263 0 min 0,000 mm 0,0 UV-I 0 W/m -1,3 C -7,1 C 27,4 km/h (4 Bft) 94,64 %
18.01.2018 02:34 1,8 C 3,3 C 80 % 1011,8 hPa 0,0 l/m 20,0 km/h (4 Bft) W 261 0 min 0,000 mm 0,0 UV-I 0 W/m -1,3 C -7,3 C 25,7 km/h (4 Bft) 97,37 %
18.01.2018 02:36 1,8 C 3,3 C 80 % 1011,8 hPa 0,0 l/m 20,4 km/h (4 Bft) W-SW 255 0 min 0,000 mm 0,0 UV-I 0 W/m -1,3 C -7,5 C 32,2 km/h (5 Bft) 96,43 %
18.01.2018 02:38 1,8 C 3,3 C 81 % 1011,8 hPa 0,0 l/m 17,1 km/h (3 Bft) W-SW 247 0 min 0,000 mm 0,0 UV-I 0 W/m -1,1 C -5,9 C 24,1 km/h (4 Bft) 95,12 %
18.01.2018 02:40 1,8 C 3,3 C 81 % 1012,0 hPa 0,0 l/m 20,6 km/h (4 Bft) W-SW 257 0 min 0,000 mm 0,0 UV-I 0 W/m -1,1 C -7,6 C 27,4 km/h (4 Bft) 98,00 %
18.01.2018 02:42 1,7 C 3,3 C 81 % 1011,9 hPa 0,0 l/m 15,1 km/h (3 Bft) W-SW 238 0 min 0,000 mm 0,0 UV-I 0 W/m -1,2 C -5,0 C 22,5 km/h (4 Bft) 98,11 %
18.01.2018 02:44 1,7 C 3,3 C 81 % 1011,9 hPa 0,0 l/m 16,1 km/h (3 Bft) W 263 0 min 0,000 mm 0,0 UV-I 0 W/m -1,2 C -5,5 C 22,5 km/h (4 Bft) 97,62 %
18.01.2018 02:46 1,7 C 3,3 C 81 % 1011,9 hPa 0,0 l/m 20,7 km/h (4 Bft) W-SW 252 0 min 0,000 mm 0,0 UV-I 0 W/m -1,2 C -7,7 C 32,2 km/h (5 Bft) 100,00 %
18.01.2018 02:48 1,7 C 3,3 C 81 % 1011,9 hPa 0,0 l/m 23,6 km/h (4 Bft) W 262 0 min 0,000 mm 0,0 UV-I 0 W/m -1,2 C -8,9 C 33,8 km/h (5 Bft) 100,00 %
18.01.2018 02:50 1,7 C 3,3 C 81 % 1011,9 hPa 0,0 l/m 18,0 km/h (3 Bft) W-SW 254 0 min 0,000 mm 0,0 UV-I 0 W/m -1,2 C -6,5 C 29,0 km/h (5 Bft) 100,00 %
18.01.2018 02:52 1,7 C 3,3 C 81 % 1011,9 hPa 0,0 l/m 22,1 km/h (4 Bft) W 260 0 min 0,000 mm 0,0 UV-I 0 W/m -1,2 C -8,3 C 32,2 km/h (5 Bft) 98,00 %
18.01.2018 02:54 1,7 C 3,3 C 82 % 1011,9 hPa 0,0 l/m 21,2 km/h (4 Bft) W-SW 253 0 min 0,000 mm 0,0 UV-I 0 W/m -1,0 C -8,0 C 29,0 km/h (5 Bft) 100,00 %
18.01.2018 02:56 1,6 C 3,3 C 82 % 1011,9 hPa 0,0 l/m 16,5 km/h (3 Bft) W 271 0 min 0,000 mm 0,0 UV-I 0 W/m -1,1 C -5,9 C 24,1 km/h (4 Bft) 100,00 %
18.01.2018 02:58 1,6 C 3,3 C 82 % 1012,0 hPa 0,0 l/m 17,5 km/h (3 Bft) W-SW 240 0 min 0,000 mm 0,0 UV-I 0 W/m -1,1 C -6,4 C 29,0 km/h (5 Bft) 100,00 %
18.01.2018 03:00 1,6 C 3,3 C 82 % 1012,0 hPa 0,0 l/m 13,8 km/h (3 Bft) W-SW 239 0 min 0,026 mm 0,0 UV-I 0 W/m -1,1 C -4,3 C 20,9 km/h (4 Bft) 100,00 %
18.01.2018 03:02 1,5 C 3,3 C 83 % 1012,0 hPa 0,0 l/m 15,2 km/h (3 Bft) W-SW 250 0 min 0,000 mm 0,0 UV-I 0 W/m -1,1 C -5,3 C 20,9 km/h (4 Bft) 100,00 %
18.01.2018 03:04 1,5 C 3,3 C 83 % 1011,9 hPa 0,0 l/m 14,9 km/h (3 Bft) W-SW 249 0 min 0,000 mm 0,0 UV-I 0 W/m -1,1 C -5,1 C 20,9 km/h (4 Bft) 97,87 %
18.01.2018 03:06 1,4 C 3,3 C 84 % 1012,0 hPa 0,0 l/m 15,3 km/h (3 Bft) SW 225 0 min 0,000 mm 0,0 UV-I 0 W/m -1,0 C -5,5 C 20,9 km/h (4 Bft) 100,00 %
18.01.2018 03:08 1,4 C 3,3 C 84 % 1012,0 hPa 0,0 l/m 13,4 km/h (3 Bft) W-SW 244 0 min 0,000 mm 0,0 UV-I 0 W/m -1,0 C -4,3 C 20,9 km/h (4 Bft) 98,00 %
18.01.2018 03:10 1,4 C 3,3 C 84 % 1012,0 hPa 0,0 l/m 12,9 km/h (3 Bft) W-SW 242 0 min 0,000 mm 0,0 UV-I 0 W/m -1,0 C -4,0 C 20,9 km/h (4 Bft) 100,00 %
18.01.2018 03:12 1,4 C 3,3 C 84 % 1012,1 hPa 0,0 l/m 15,0 km/h (3 Bft) W-SW 247 0 min 0,000 mm 0,0 UV-I 0 W/m -1,0 C -5,3 C 24,1 km/h (4 Bft) 100,00 %
18.01.2018 03:14 1,4 C 3,3 C 84 % 1012,0 hPa 0,0 l/m 15,4 km/h (3 Bft) W-SW 255 0 min 0,000 mm 0,0 UV-I 0 W/m -1,0 C -5,5 C 24,1 km/h (4 Bft) 97,14 %
18.01.2018 03:16 1,5 C 3,3 C 84 % 1012,1 hPa 0,0 l/m 15,4 km/h (3 Bft) W-SW 250 0 min 0,000 mm 0,0 UV-I 0 W/m -0,9 C -5,4 C 20,9 km/h (4 Bft) 100,00 %
18.01.2018 03:18 1,5 C 3,3 C 84 % 1012,0 hPa 0,0 l/m 13,2 km/h (3 Bft) W-SW 257 0 min 0,000 mm 0,0 UV-I 0 W/m -0,9 C -4,1 C 20,9 km/h (4 Bft) 100,00 %
18.01.2018 03:20 1,5 C 3,3 C 84 % 1012,0 hPa 0,0 l/m 15,5 km/h (3 Bft) SW 229 0 min 0,000 mm 0,0 UV-I 0 W/m -0,9 C -5,4 C 24,1 km/h (4 Bft) 100,00 %
18.01.2018 03:22 1,5 C 3,3 C 85 % 1012,0 hPa 0,0 l/m 14,5 km/h (3 Bft) W 266 0 min 0,000 mm 0,0 UV-I 0 W/m -0,7 C -4,9 C 17,7 km/h (3 Bft) 100,00 %
18.01.2018 03:24 1,5 C 3,3 C 85 % 1012,0 hPa 0,0 l/m 12,9 km/h (3 Bft) SW 225 0 min 0,000 mm 0,0 UV-I 0 W/m -0,7 C -3,9 C 22,5 km/h (4 Bft) 100,00 %
18.01.2018 03:26 1,5 C 3,3 C 85 % 1011,9 hPa 0,0 l/m 13,4 km/h (3 Bft) W-SW 252 0 min 0,000 mm 0,0 UV-I 0 W/m -0,7 C -4,2 C 22,5 km/h (4 Bft) 97,44 %
18.01.2018 03:28 1,6 C 3,3 C 84 % 1011,9 hPa 0,0 l/m 15,9 km/h (3 Bft) W-SW 239 0 min 0,000 mm 0,0 UV-I 0 W/m -0,8 C -5,5 C 27,4 km/h (4 Bft) 98,11 %
18.01.2018 03:30 1,6 C 3,3 C 84 % 1012,0 hPa 0,0 l/m 12,5 km/h (3 Bft) W 261 0 min 0,000 mm 0,0 UV-I 0 W/m -0,8 C -3,5 C 19,3 km/h (3 Bft) 100,00 %
18.01.2018 03:32 1,6 C 3,3 C 85 % 1011,9 hPa 0,0 l/m 14,0 km/h (3 Bft) W-SW 247 0 min 0,000 mm 0,0 UV-I 0 W/m -0,6 C -4,5 C 20,9 km/h (4 Bft) 100,00 %
18.01.2018 03:34 1,5 C 3,3 C 85 % 1011,8 hPa 0,0 l/m 15,0 km/h (3 Bft) S-SW 213 0 min 0,000 mm 0,0 UV-I 0 W/m -0,7 C -5,2 C 20,9 km/h (4 Bft) 97,56 %
18.01.2018 03:36 1,5 C 3,3 C 85 % 1011,7 hPa 0,0 l/m 17,3 km/h (3 Bft) S-SW 204 0 min 0,000 mm 0,0 UV-I 0 W/m -0,7 C -6,4 C 27,4 km/h (4 Bft) 100,00 %
18.01.2018 03:38 1,4 C 3,3 C 86 % 1011,7 hPa 0,0 l/m 14,1 km/h (3 Bft) W-SW 238 0 min 0,000 mm 0,0 UV-I 0 W/m -0,7 C -4,8 C 20,9 km/h (4 Bft) 100,00 %
18.01.2018 03:40 1,4 C 3,3 C 86 % 1011,6 hPa 0,0 l/m 17,5 km/h (3 Bft) W-SW 252 0 min 0,000 mm 0,0 UV-I 0 W/m -0,7 C -6,6 C 25,7 km/h (4 Bft) 100,00 %
18.01.2018 03:42 1,4 C 3,3 C 86 % 1011,8 hPa 0,0 l/m 14,7 km/h (3 Bft) W-SW 252 0 min 0,000 mm 0,0 UV-I 0 W/m -0,7 C -5,1 C 20,9 km/h (4 Bft) 94,74 %
18.01.2018 03:44 1,4 C 3,3 C 87 % 1011,8 hPa 0,0 l/m 18,3 km/h (3 Bft) SW 235 0 min 0,000 mm 0,0 UV-I 0 W/m -0,5 C -7,0 C 25,7 km/h (4 Bft) 100,00 %
18.01.2018 03:46 1,4 C 3,3 C 87 % 1011,8 hPa 0,0 l/m 14,5 km/h (3 Bft) W-SW 250 0 min 0,000 mm 0,0 UV-I 0 W/m -0,5 C -5,0 C 19,3 km/h (3 Bft) 100,00 %
18.01.2018 03:48 1,4 C 3,3 C 86 % 1011,9 hPa 0,0 l/m 11,0 km/h (2 Bft) SW 226 0 min 0,000 mm 0,0 UV-I 0 W/m -0,7 C -2,7 C 20,9 km/h (4 Bft) 100,00 %
18.01.2018 03:50 1,4 C 3,3 C 86 % 1011,9 hPa 0,0 l/m 14,9 km/h (3 Bft) S-SW 210 0 min 0,000 mm 0,0 UV-I 0 W/m -0,7 C -5,2 C 20,9 km/h (4 Bft) 100,00 %
18.01.2018 03:52 1,4 C 3,3 C 87 % 1012,0 hPa 0,0 l/m 12,0 km/h (2 Bft) SW 232 0 min 0,000 mm 0,0 UV-I 0 W/m -0,5 C -3,4 C 19,3 km/h (3 Bft) 97,56 %
18.01.2018 03:54 1,3 C 3,3 C 87 % 1012,0 hPa 0,0 l/m 11,1 km/h (2 Bft) SW 225 0 min 0,000 mm 0,0 UV-I 0 W/m -0,6 C -2,9 C 16,1 km/h (3 Bft) 98,11 %
18.01.2018 03:56 1,3 C 3,3 C 87 % 1012,0 hPa 0,0 l/m 10,8 km/h (2 Bft) SW 233 0 min 0,000 mm 0,0 UV-I 0 W/m -0,6 C -2,6 C 14,5 km/h (3 Bft) 98,00 %
18.01.2018 03:58 1,3 C 3,3 C 87 % 1012,0 hPa 0,0 l/m 10,1 km/h (2 Bft) S-SW 212 0 min 0,000 mm 0,0 UV-I 0 W/m -0,6 C -2,1 C 17,7 km/h (3 Bft) 100,00 %
18.01.2018 04:00 1,3 C 3,3 C 87 % 1012,0 hPa 0,0 l/m 14,9 km/h (3 Bft) W-SW 251 0 min 0,025 mm 0,0 UV-I 0 W/m -0,6 C -5,3 C 22,5 km/h (4 Bft) 97,87 %
18.01.2018 04:02 1,4 C 3,3 C 87 % 1012,0 hPa 0,0 l/m 10,1 km/h (2 Bft) W-SW 240 0 min 0,000 mm 0,0 UV-I 0 W/m -0,5 C -2,0 C 12,9 km/h (3 Bft) 100,00 %
18.01.2018 04:04 1,4 C 3,3 C 86 % 1012,0 hPa 0,0 l/m 10,6 km/h (2 Bft) W-SW 246 0 min 0,000 mm 0,0 UV-I 0 W/m -0,7 C -2,4 C 14,5 km/h (3 Bft) 98,21 %
18.01.2018 04:06 1,5 C 3,3 C 86 % 1012,0 hPa 0,0 l/m 11,1 km/h (2 Bft) W-SW 255 0 min 0,000 mm 0,0 UV-I 0 W/m -0,6 C -2,6 C 14,5 km/h (3 Bft) 100,00 %
18.01.2018 04:08 1,6 C 3,3 C 86 % 1012,0 hPa 0,0 l/m 10,9 km/h (2 Bft) S-SW 212 0 min 0,000 mm 0,0 UV-I 0 W/m -0,5 C -2,4 C 17,7 km/h (3 Bft) 100,00 %
18.01.2018 04:10 1,6 C 3,3 C 85 % 1012,0 hPa 0,0 l/m 12,0 km/h (2 Bft) W-SW 244 0 min 0,000 mm 0,0 UV-I 0 W/m -0,6 C -3,2 C 17,7 km/h (3 Bft) 100,00 %
18.01.2018 04:12 1,6 C 3,3 C 85 % 1012,0 hPa 0,0 l/m 9,4 km/h (2 Bft) W-SW 238 0 min 0,000 mm 0,0 UV-I 0 W/m -0,6 C -1,2 C 14,5 km/h (3 Bft) 100,00 %
18.01.2018 04:14 1,6 C 3,3 C 85 % 1012,0 hPa 0,0 l/m 11,1 km/h (2 Bft) W 262 0 min 0,000 mm 0,0 UV-I 0 W/m -0,6 C -2,5 C 17,7 km/h (3 Bft) 100,00 %
18.01.2018 04:16 1,6 C 3,3 C 85 % 1011,9 hPa 0,0 l/m 11,6 km/h (2 Bft) W-SW 239 0 min 0,000 mm 0,0 UV-I 0 W/m -0,6 C -2,9 C 17,7 km/h (3 Bft) 100,00 %
18.01.2018 04:18 1,6 C 3,3 C 85 % 1011,8 hPa 0,0 l/m 13,0 km/h (3 Bft) W-SW 256 0 min 0,000 mm 0,0 UV-I 0 W/m -0,6 C -3,8 C 19,3 km/h (3 Bft) 98,11 %
18.01.2018 04:20 1,6 C 3,3 C 85 % 1011,9 hPa 0,0 l/m 10,6 km/h (2 Bft) SW 221 0 min 0,000 mm 0,0 UV-I 0 W/m -0,6 C -2,1 C 19,3 km/h (3 Bft) 97,56 %
18.01.2018 04:22 1,6 C 3,3 C 86 % 1012,0 hPa 0,0 l/m 13,7 km/h (3 Bft) SW 234 0 min 0,000 mm 0,0 UV-I 0 W/m -0,5 C -4,3 C 19,3 km/h (3 Bft) 98,21 %
18.01.2018 04:24 1,6 C 3,3 C 86 % 1011,9 hPa 0,0 l/m 15,4 km/h (3 Bft) SW 232 0 min 0,000 mm 0,0 UV-I 0 W/m -0,5 C -5,3 C 20,9 km/h (4 Bft) 97,37 %
18.01.2018 04:26 1,6 C 3,3 C 86 % 1012,0 hPa 0,0 l/m 13,8 km/h (3 Bft) W 259 0 min 0,000 mm 0,0 UV-I 0 W/m -0,5 C -4,3 C 20,9 km/h (4 Bft) 98,00 %
18.01.2018 04:28 1,6 C 3,3 C 86 % 1012,0 hPa 0,0 l/m 15,4 km/h (3 Bft) W-SW 254 0 min 0,000 mm 0,0 UV-I 0 W/m -0,5 C -5,3 C 24,1 km/h (4 Bft) 98,00 %
18.01.2018 04:30 1,6 C 3,3 C 86 % 1012,0 hPa 0,0 l/m 13,9 km/h (3 Bft) W-SW 246 0 min 0,000 mm 0,0 UV-I 0 W/m -0,5 C -4,4 C 22,5 km/h (4 Bft) 97,87 %
18.01.2018 04:32 1,6 C 3,3 C 86 % 1012,0 hPa 0,0 l/m 10,6 km/h (2 Bft) W-SW 246 0 min 0,000 mm 0,0 UV-I 0 W/m -0,5 C -2,1 C 14,5 km/h (3 Bft) 95,12 %
18.01.2018 04:38 1,4 C 3,3 C 87 % 1012,0 hPa 0,0 l/m 11,0 km/h (2 Bft) W-SW 243 0 min 0,000 mm 0,0 UV-I 0 W/m -0,5 C -2,7 C 19,3 km/h (3 Bft) 97,37 %
18.01.2018 04:40 1,4 C 3,3 C 87 % 1012,0 hPa 0,0 l/m 10,1 km/h (2 Bft) W-SW 244 0 min 0,000 mm 0,0 UV-I 0 W/m -0,5 C -2,0 C 16,1 km/h (3 Bft) 93,62 %
18.01.2018 04:42 1,3 C 3,3 C 88 % 1012,0 hPa 0,0 l/m 6,6 km/h (2 Bft) S-SW 212 0 min 0,000 mm 0,0 UV-I 0 W/m -0,5 C 1,1 C 11,3 km/h (2 Bft) 98,11 %
18.01.2018 04:44 1,3 C 3,3 C 88 % 1012,0 hPa 0,0 l/m 11,1 km/h (2 Bft) W-SW 241 0 min 0,000 mm 0,0 UV-I 0 W/m -0,5 C -2,9 C 17,7 km/h (3 Bft) 97,56 %
18.01.2018 04:46 1,3 C 3,3 C 89 % 1012,0 hPa 0,0 l/m 15,4 km/h (3 Bft) SW 217 0 min 0,000 mm 0,0 UV-I 0 W/m -0,3 C -5,6 C 22,5 km/h (4 Bft) 96,00 %
18.01.2018 04:48 1,2 C 3,3 C 89 % 1012,1 hPa 0,0 l/m 12,5 km/h (3 Bft) W-SW 255 0 min 0,000 mm 0,0 UV-I 0 W/m -0,4 C -4,0 C 17,7 km/h (3 Bft) 97,87 %
18.01.2018 04:50 1,1 C 3,3 C 90 % 1012,0 hPa 0,0 l/m 10,3 km/h (2 Bft) W 261 0 min 0,000 mm 0,0 UV-I 0 W/m -0,4 C -2,5 C 17,7 km/h (3 Bft) 97,87 %
18.01.2018 04:52 1,0 C 3,3 C 91 % 1012,0 hPa 0,0 l/m 11,1 km/h (2 Bft) SW 234 0 min 0,000 mm 0,0 UV-I 0 W/m -0,3 C -3,2 C 19,3 km/h (3 Bft) 97,14 %
18.01.2018 04:54 0,9 C 3,3 C 92 % 1012,0 hPa 0,0 l/m 9,9 km/h (2 Bft) SW 226 0 min 0,000 mm 0,0 UV-I 0 W/m -0,2 C -2,4 C 14,5 km/h (3 Bft) 98,00 %
18.01.2018 04:56 0,8 C 3,3 C 92 % 1011,9 hPa 0,0 l/m 9,4 km/h (2 Bft) SW 234 0 min 0,000 mm 0,0 UV-I 0 W/m -0,3 C -2,1 C 14,5 km/h (3 Bft) 100,00 %
18.01.2018 04:58 0,8 C 3,3 C 92 % 1011,8 hPa 0,0 l/m 9,1 km/h (2 Bft) SW 225 0 min 0,000 mm 0,0 UV-I 0 W/m -0,3 C -1,8 C 16,1 km/h (3 Bft) 97,73 %
18.01.2018 05:00 0,8 C 3,3 C 93 % 1011,8 hPa 0,0 l/m 8,9 km/h (2 Bft) SW 223 0 min 0,025 mm 0,0 UV-I 0 W/m -0,2 C -1,6 C 16,1 km/h (3 Bft) 100,00 %
18.01.2018 05:02 0,8 C 3,3 C 93 % 1011,8 hPa 0,0 l/m 7,5 km/h (2 Bft) S-SW 209 0 min 0,000 mm 0,0 UV-I 0 W/m -0,2 C -0,3 C 12,9 km/h (3 Bft) 100,00 %
18.01.2018 05:04 0,8 C 3,3 C 93 % 1011,8 hPa 0,0 l/m 10,3 km/h (2 Bft) W-SW 252 0 min 0,000 mm 0,0 UV-I 0 W/m -0,2 C -2,8 C 16,1 km/h (3 Bft) 98,11 %
18.01.2018 05:06 0,8 C 3,3 C 93 % 1011,8 hPa 0,0 l/m 8,3 km/h (2 Bft) SW 225 0 min 0,000 mm 0,0 UV-I 0 W/m -0,2 C -1,1 C 11,3 km/h (2 Bft) 97,62 %
18.01.2018 05:08 0,8 C 3,3 C 93 % 1011,8 hPa 0,0 l/m 10,4 km/h (2 Bft) SW 236 0 min 0,000 mm 0,0 UV-I 0 W/m -0,2 C -2,9 C 17,7 km/h (3 Bft) 100,00 %
18.01.2018 05:10 0,8 C 3,3 C 93 % 1011,8 hPa 0,0 l/m 9,1 km/h (2 Bft) S-SW 194 0 min 0,000 mm 0,0 UV-I 0 W/m -0,2 C -1,8 C 12,9 km/h (3 Bft) 100,00 %
18.01.2018 05:12 0,8 C 3,3 C 93 % 1011,7 hPa 0,0 l/m 9,3 km/h (2 Bft) S-SW 209 0 min 0,000 mm 0,0 UV-I 0 W/m -0,2 C -2,0 C 14,5 km/h (3 Bft) 100,00 %
18.01.2018 05:14 0,8 C 3,3 C 93 % 1011,7 hPa 0,0 l/m 10,0 km/h (2 Bft) W-SW 246 0 min 0,000 mm 0,0 UV-I 0 W/m -0,2 C -2,6 C 17,7 km/h (3 Bft) 100,00 %
18.01.2018 05:16 0,8 C 3,3 C 93 % 1011,7 hPa 0,0 l/m 11,7 km/h (2 Bft) SW 230 0 min 0,000 mm 0,0 UV-I 0 W/m -0,2 C -3,9 C 19,3 km/h (3 Bft) 98,00 %
18.01.2018 05:18 0,8 C 3,3 C 93 % 1011,6 hPa 0,0 l/m 14,8 km/h (3 Bft) S 181 0 min 0,000 mm 0,0 UV-I 0 W/m -0,2 C -5,9 C 20,9 km/h (4 Bft) 100,00 %
18.01.2018 05:20 0,8 C 3,3 C 93 % 1011,6 hPa 0,0 l/m 11,5 km/h (2 Bft) W-SW 250 0 min 0,000 mm 0,0 UV-I 0 W/m -0,2 C -3,7 C 17,7 km/h (3 Bft) 100,00 %
18.01.2018 05:22 0,8 C 3,3 C 93 % 1011,6 hPa 0,0 l/m 13,0 km/h (3 Bft) SW 229 0 min 0,000 mm 0,0 UV-I 0 W/m -0,2 C -4,8 C 19,3 km/h (3 Bft) 100,00 %
18.01.2018 05:24 0,8 C 3,3 C 93 % 1011,5 hPa 0,0 l/m 11,3 km/h (2 Bft) SW 218 0 min 0,000 mm 0,0 UV-I 0 W/m -0,2 C -3,6 C 19,3 km/h (3 Bft) 100,00 %
18.01.2018 05:26 0,8 C 3,3 C 93 % 1011,5 hPa 0,0 l/m 10,1 km/h (2 Bft) SW 230 0 min 0,000 mm 0,0 UV-I 0 W/m -0,2 C -2,6 C 17,7 km/h (3 Bft) 97,56 %
18.01.2018 05:28 0,8 C 3,3 C 93 % 1011,5 hPa 0,0 l/m 6,8 km/h (2 Bft) W-SW 245 0 min 0,000 mm 0,0 UV-I 0 W/m -0,2 C 0,4 C 11,3 km/h (2 Bft) 100,00 %
18.01.2018 05:30 0,8 C 3,3 C 93 % 1011,4 hPa 0,0 l/m 9,8 km/h (2 Bft) SW 221 0 min 0,000 mm 0,0 UV-I 0 W/m -0,2 C -2,4 C 14,5 km/h (3 Bft) 100,00 %
18.01.2018 05:32 0,8 C 3,3 C 94 % 1011,5 hPa 0,0 l/m 10,1 km/h (2 Bft) SW 222 0 min 0,000 mm 0,0 UV-I 0 W/m -0,1 C -2,6 C 14,5 km/h (3 Bft) 97,87 %
18.01.2018 05:34 0,8 C 3,3 C 94 % 1011,5 hPa 0,0 l/m 10,0 km/h (2 Bft) SW 221 0 min 0,000 mm 0,0 UV-I 0 W/m -0,1 C -2,6 C 14,5 km/h (3 Bft) 100,00 %
18.01.2018 05:36 0,8 C 3,3 C 94 % 1011,5 hPa 0,0 l/m 13,0 km/h (3 Bft) W-SW 240 0 min 0,000 mm 0,0 UV-I 0 W/m -0,1 C -4,8 C 17,7 km/h (3 Bft) 100,00 %
18.01.2018 05:38 0,8 C 3,3 C 94 % 1011,5 hPa 0,0 l/m 13,5 km/h (3 Bft) W-SW 255 0 min 0,000 mm 0,0 UV-I 0 W/m -0,1 C -5,1 C 24,1 km/h (4 Bft) 100,00 %
18.01.2018 05:40 0,8 C 3,3 C 94 % 1011,4 hPa 0,0 l/m 11,3 km/h (2 Bft) SW 223 0 min 0,000 mm 0,0 UV-I 0 W/m -0,1 C -3,6 C 19,3 km/h (3 Bft) 100,00 %
18.01.2018 05:42 0,8 C 3,3 C 94 % 1011,5 hPa 0,0 l/m 10,0 km/h (2 Bft) SW 230 0 min 0,000 mm 0,0 UV-I 0 W/m -0,1 C -2,6 C 14,5 km/h (3 Bft) 100,00 %
18.01.2018 05:44 0,8 C 3,3 C 94 % 1011,4 hPa 0,0 l/m 14,8 km/h (3 Bft) W 271 0 min 0,000 mm 0,0 UV-I 0 W/m -0,1 C -5,9 C 20,9 km/h (4 Bft) 92,00 %
18.01.2018 05:46 0,8 C 3,3 C 94 % 1011,4 hPa 0,0 l/m 13,7 km/h (3 Bft) W-SW 242 0 min 0,000 mm 0,0 UV-I 0 W/m -0,1 C -5,2 C 20,9 km/h (4 Bft) 97,37 %
18.01.2018 05:48 0,8 C 3,3 C 94 % 1011,3 hPa 0,0 l/m 11,9 km/h (2 Bft) W-SW 242 0 min 0,000 mm 0,0 UV-I 0 W/m -0,1 C -4,0 C 16,1 km/h (3 Bft) 97,56 %
18.01.2018 05:50 0,8 C 3,3 C 94 % 1011,3 hPa 0,0 l/m 11,9 km/h (2 Bft) W-SW 243 0 min 0,000 mm 0,0 UV-I 0 W/m -0,1 C -4,0 C 19,3 km/h (3 Bft) 96,23 %
18.01.2018 05:52 0,8 C 3,3 C 94 % 1011,3 hPa 0,0 l/m 10,3 km/h (2 Bft) SW 216 0 min 0,000 mm 0,0 UV-I 0 W/m -0,1 C -2,8 C 14,5 km/h (3 Bft) 96,23 %
18.01.2018 05:54 0,8 C 3,3 C 94 % 1011,2 hPa 0,0 l/m 13,1 km/h (3 Bft) SW 219 0 min 0,000 mm 0,0 UV-I 0 W/m -0,1 C -4,8 C 20,9 km/h (4 Bft) 98,11 %
18.01.2018 05:56 0,8 C 3,3 C 94 % 1011,2 hPa 0,0 l/m 14,3 km/h (3 Bft) SW 220 0 min 0,000 mm 0,0 UV-I 0 W/m -0,1 C -5,6 C 22,5 km/h (4 Bft) 97,56 %
18.01.2018 05:58 0,8 C 3,3 C 94 % 1011,1 hPa 0,0 l/m 16,0 km/h (3 Bft) SW 234 0 min 0,000 mm 0,0 UV-I 0 W/m -0,1 C -6,6 C 24,1 km/h (4 Bft) 97,87 %
18.01.2018 06:00 0,8 C 3,3 C 94 % 1011,0 hPa 0,0 l/m 17,0 km/h (3 Bft) SW 229 0 min 0,000 mm 0,0 UV-I 0 W/m -0,1 C -7,1 C 22,5 km/h (4 Bft) 96,00 %
18.01.2018 06:02 0,8 C 3,3 C 94 % 1010,9 hPa 0,0 l/m 14,1 km/h (3 Bft) SW 232 0 min 0,000 mm 0,0 UV-I 0 W/m -0,1 C -5,5 C 20,9 km/h (4 Bft) 94,00 %
18.01.2018 06:04 0,8 C 3,3 C 94 % 1010,9 hPa 0,0 l/m 14,5 km/h (3 Bft) W-SW 248 0 min 0,000 mm 0,0 UV-I 0 W/m -0,1 C -5,7 C 20,9 km/h (4 Bft) 97,56 %
18.01.2018 06:06 0,8 C 3,3 C 94 % 1010,9 hPa 0,0 l/m 21,8 km/h (4 Bft) SW 217 0 min 0,000 mm 0,0 UV-I 0 W/m -0,1 C -9,4 C 27,4 km/h (4 Bft) 97,87 %
18.01.2018 06:08 0,8 C 3,3 C 95 % 1010,8 hPa 0,0 l/m 17,7 km/h (3 Bft) SW 233 0 min 0,000 mm 0,0 UV-I 0 W/m 0,1 C -7,5 C 24,1 km/h (4 Bft) 97,56 %
18.01.2018 06:10 0,8 C 3,3 C 94 % 1010,9 hPa 0,0 l/m 18,2 km/h (3 Bft) SW 228 0 min 0,000 mm 0,0 UV-I 0 W/m -0,1 C -7,7 C 24,1 km/h (4 Bft) 98,11 %
18.01.2018 06:12 0,8 C 3,3 C 95 % 1010,9 hPa 0,0 l/m 16,1 km/h (3 Bft) S 178 0 min 0,000 mm 0,0 UV-I 0 W/m 0,1 C -6,6 C 24,1 km/h (4 Bft) 98,00 %
18.01.2018 06:16 0,8 C 3,3 C 95 % 1010,8 hPa 0,0 l/m 13,6 km/h (3 Bft) SW 223 0 min 0,000 mm 0,0 UV-I 0 W/m 0,1 C -5,2 C 24,1 km/h (4 Bft) 95,35 %
18.01.2018 06:18 0,9 C 3,3 C 95 % 1010,9 hPa 0,0 l/m 15,4 km/h (3 Bft) W-SW 251 0 min 0,000 mm 0,0 UV-I 0 W/m 0,2 C -6,1 C 25,7 km/h (4 Bft) 98,11 %
18.01.2018 06:20 0,9 C 3,3 C 94 % 1010,9 hPa 0,0 l/m 18,1 km/h (3 Bft) SW 217 0 min 0,000 mm 0,0 UV-I 0 W/m 0,0 C -7,6 C 27,4 km/h (4 Bft) 97,73 %
18.01.2018 06:22 0,9 C 3,3 C 94 % 1010,8 hPa 0,0 l/m 18,0 km/h (3 Bft) W-SW 245 0 min 0,000 mm 0,0 UV-I 0 W/m 0,0 C -7,5 C 25,7 km/h (4 Bft) 98,11 %
18.01.2018 06:24 0,9 C 3,3 C 94 % 1010,8 hPa 0,0 l/m 14,0 km/h (3 Bft) SW 225 0 min 0,000 mm 0,0 UV-I 0 W/m 0,0 C -5,3 C 24,1 km/h (4 Bft) 94,74 %
18.01.2018 06:26 0,9 C 3,3 C 94 % 1010,8 hPa 0,0 l/m 15,9 km/h (3 Bft) W-SW 258 0 min 0,000 mm 0,0 UV-I 0 W/m 0,0 C -6,4 C 22,5 km/h (4 Bft) 95,74 %
18.01.2018 06:28 0,9 C 3,3 C 94 % 1010,8 hPa 0,0 l/m 18,1 km/h (3 Bft) SW 235 0 min 0,000 mm 0,0 UV-I 0 W/m 0,0 C -7,6 C 30,6 km/h (5 Bft) 93,75 %
18.01.2018 06:30 1,0 C 3,3 C 94 % 1010,8 hPa 0,0 l/m 16,5 km/h (3 Bft) S-SW 209 0 min 0,000 mm 0,0 UV-I 0 W/m 0,1 C -6,6 C 24,1 km/h (4 Bft) 96,23 %
18.01.2018 06:32 1,1 C 3,3 C 94 % 1010,8 hPa 0,0 l/m 14,2 km/h (3 Bft) SW 236 0 min 0,000 mm 0,0 UV-I 0 W/m 0,2 C -5,2 C 22,5 km/h (4 Bft) 94,74 %
18.01.2018 06:34 1,1 C 3,3 C 93 % 1010,7 hPa 0,0 l/m 19,7 km/h (3 Bft) S-SW 207 0 min 0,000 mm 0,0 UV-I 0 W/m 0,1 C -8,1 C 27,4 km/h (4 Bft) 96,00 %
18.01.2018 06:36 1,1 C 3,3 C 93 % 1010,8 hPa 0,0 l/m 20,9 km/h (4 Bft) SW 235 0 min 0,000 mm 0,0 UV-I 0 W/m 0,1 C -8,6 C 32,2 km/h (5 Bft) 92,00 %
18.01.2018 06:38 1,2 C 3,3 C 93 % 1010,7 hPa 0,0 l/m 13,9 km/h (3 Bft) W-SW 247 0 min 0,000 mm 0,0 UV-I 0 W/m 0,2 C -4,9 C 24,1 km/h (4 Bft) 95,74 %
18.01.2018 06:40 1,2 C 3,3 C 93 % 1010,7 hPa 0,0 l/m 15,7 km/h (3 Bft) SW 229 0 min 0,000 mm 0,0 UV-I 0 W/m 0,2 C -5,9 C 25,7 km/h (4 Bft) 93,62 %
18.01.2018 06:42 1,2 C 3,3 C 93 % 1010,7 hPa 0,0 l/m 14,7 km/h (3 Bft) W-SW 247 0 min 0,000 mm 0,0 UV-I 0 W/m 0,2 C -5,4 C 24,1 km/h (4 Bft) 95,74 %
18.01.2018 06:44 1,2 C 3,3 C 93 % 1010,7 hPa 0,0 l/m 18,5 km/h (3 Bft) SW 234 0 min 0,000 mm 0,0 UV-I 0 W/m 0,2 C -7,4 C 30,6 km/h (5 Bft) 95,74 %
18.01.2018 06:46 1,3 C 3,3 C 92 % 1010,8 hPa 0,0 l/m 19,0 km/h (3 Bft) W-SW 238 0 min 0,000 mm 0,0 UV-I 0 W/m 0,1 C -7,5 C 27,4 km/h (4 Bft) 94,29 %
18.01.2018 06:48 1,3 C 3,3 C 92 % 1010,8 hPa 0,0 l/m 17,7 km/h (3 Bft) SW 229 0 min 0,000 mm 0,0 UV-I 0 W/m 0,1 C -6,9 C 29,0 km/h (5 Bft) 95,16 %
18.01.2018 06:50 1,3 C 3,3 C 92 % 1010,8 hPa 0,0 l/m 15,4 km/h (3 Bft) SW 217 0 min 0,000 mm 0,0 UV-I 0 W/m 0,1 C -5,6 C 25,7 km/h (4 Bft) 93,18 %
18.01.2018 06:52 1,3 C 3,3 C 92 % 1010,8 hPa 0,0 l/m 18,8 km/h (3 Bft) SW 231 0 min 0,000 mm 0,0 UV-I 0 W/m 0,1 C -7,4 C 25,7 km/h (4 Bft) 94,00 %
18.01.2018 06:54 1,3 C 3,3 C 92 % 1010,7 hPa 0,0 l/m 15,2 km/h (3 Bft) W-SW 243 0 min 0,000 mm 0,0 UV-I 0 W/m 0,1 C -5,5 C 22,5 km/h (4 Bft) 97,14 %
18.01.2018 06:56 1,3 C 3,3 C 92 % 1010,7 hPa 0,0 l/m 13,9 km/h (3 Bft) S-SW 211 0 min 0,000 mm 0,0 UV-I 0 W/m 0,1 C -4,7 C 20,9 km/h (4 Bft) 96,00 %
18.01.2018 06:58 1,3 C 3,3 C 92 % 1010,6 hPa 0,0 l/m 14,5 km/h (3 Bft) W-SW 244 0 min 0,000 mm 0,0 UV-I 0 W/m 0,1 C -5,1 C 25,7 km/h (4 Bft) 98,00 %
18.01.2018 07:00 1,3 C 3,3 C 92 % 1010,6 hPa 0,0 l/m 16,2 km/h (3 Bft) S-SW 213 0 min 0,000 mm 0,0 UV-I 0 W/m 0,1 C -6,1 C 25,7 km/h (4 Bft) 97,87 %
18.01.2018 07:02 1,3 C 3,3 C 92 % 1010,5 hPa 0,0 l/m 11,7 km/h (2 Bft) W 266 0 min 0,000 mm 0,0 UV-I 0 W/m 0,1 C -3,3 C 20,9 km/h (4 Bft) 100,00 %
18.01.2018 07:04 1,3 C 3,3 C 92 % 1010,5 hPa 0,0 l/m 12,4 km/h (3 Bft) SW 219 0 min 0,000 mm 0,0 UV-I 0 W/m 0,1 C -3,8 C 20,9 km/h (4 Bft) 94,29 %
18.01.2018 07:06 1,3 C 3,3 C 92 % 1010,4 hPa 0,0 l/m 12,7 km/h (3 Bft) W-SW 243 0 min 0,000 mm 0,0 UV-I 0 W/m 0,1 C -4,0 C 19,3 km/h (3 Bft) 98,31 %
18.01.2018 07:08 1,3 C 3,3 C 92 % 1010,4 hPa 0,0 l/m 12,2 km/h (2 Bft) W-SW 252 0 min 0,000 mm 0,0 UV-I 0 W/m 0,1 C -3,6 C 17,7 km/h (3 Bft) 100,00 %
18.01.2018 07:10 1,3 C 3,3 C 92 % 1010,4 hPa 0,0 l/m 15,1 km/h (3 Bft) W-SW 244 0 min 0,000 mm 0,0 UV-I 0 W/m 0,1 C -5,5 C 24,1 km/h (4 Bft) 98,11 %
18.01.2018 07:12 1,3 C 3,3 C 92 % 1010,4 hPa 0,0 l/m 17,6 km/h (3 Bft) SW 221 0 min 0,000 mm 0,0 UV-I 0 W/m 0,1 C -6,8 C 38,6 km/h (5 Bft) 100,00 %
18.01.2018 07:14 1,4 C 3,3 C 92 % 1010,4 hPa 0,0 l/m 18,5 km/h (3 Bft) SW 227 0 min 0,000 mm 0,0 UV-I 0 W/m 0,2 C -7,1 C 30,6 km/h (5 Bft) 100,00 %
18.01.2018 07:16 1,4 C 3,3 C 91 % 1010,4 hPa 0,0 l/m 16,7 km/h (3 Bft) SW 236 0 min 0,000 mm 0,0 UV-I 0 W/m 0,1 C -6,2 C 22,5 km/h (4 Bft) 97,56 %
18.01.2018 07:18 1,5 C 3,3 C 91 % 1010,5 hPa 0,0 l/m 18,1 km/h (3 Bft) SW 214 0 min 0,000 mm 0,0 UV-I 0 W/m 0,2 C -6,8 C 27,4 km/h (4 Bft) 100,00 %
18.01.2018 07:20 1,6 C 3,3 C 91 % 1010,5 hPa 0,0 l/m 17,5 km/h (3 Bft) W-SW 255 0 min 0,000 mm 0,0 UV-I 0 W/m 0,3 C -6,4 C 24,1 km/h (4 Bft) 94,74 %
18.01.2018 07:22 1,6 C 3,3 C 90 % 1010,4 hPa 0,0 l/m 17,8 km/h (3 Bft) SW 223 0 min 0,000 mm 0,0 UV-I 0 W/m 0,1 C -6,5 C 25,7 km/h (4 Bft) 100,00 %
18.01.2018 07:24 1,6 C 3,3 C 90 % 1010,3 hPa 0,0 l/m 15,7 km/h (3 Bft) SW 218 0 min 0,000 mm 0,0 UV-I 0 W/m 0,1 C -5,4 C 29,0 km/h (5 Bft) 100,00 %
18.01.2018 07:26 1,6 C 3,3 C 90 % 1010,5 hPa 0,0 l/m 19,6 km/h (3 Bft) W-SW 241 0 min 0,000 mm 0,0 UV-I 0 W/m 0,1 C -7,4 C 27,4 km/h (4 Bft) 100,00 %
18.01.2018 07:28 1,7 C 3,3 C 90 % 1010,4 hPa 0,0 l/m 21,9 km/h (4 Bft) SW 216 0 min 0,000 mm 0,0 UV-I 0 W/m 0,2 C -8,2 C 32,2 km/h (5 Bft) 100,00 %
18.01.2018 07:30 1,7 C 3,3 C 90 % 1010,4 hPa 0,0 l/m 18,3 km/h (3 Bft) SW 232 0 min 0,000 mm 0,0 UV-I 0 W/m 0,2 C -6,7 C 25,7 km/h (4 Bft) 100,00 %
18.01.2018 07:32 1,7 C 3,3 C 90 % 1010,4 hPa 0,0 l/m 17,7 km/h (3 Bft) W-SW 244 0 min 0,000 mm 0,0 UV-I 0 W/m 0,2 C -6,4 C 25,7 km/h (4 Bft) 100,00 %
18.01.2018 07:34 1,7 C 3,3 C 90 % 1010,4 hPa 0,0 l/m 18,5 km/h (3 Bft) W-SW 246 0 min 0,000 mm 0,0 UV-I 0 W/m 0,2 C -6,7 C 27,4 km/h (4 Bft) 98,11 %
18.01.2018 07:36 1,8 C 3,3 C 89 % 1010,3 hPa 0,0 l/m 13,0 km/h (3 Bft) S-SW 202 0 min 0,000 mm 0,0 UV-I 0 W/m 0,2 C -3,6 C 22,5 km/h (4 Bft) 100,00 %
18.01.2018 07:38 1,8 C 3,3 C 89 % 1010,4 hPa 0,0 l/m 19,0 km/h (3 Bft) W-SW 247 0 min 0,000 mm 0,0 UV-I 5 W/m 0,2 C -6,9 C 32,2 km/h (5 Bft) 100,00 %
18.01.2018 07:40 1,8 C 3,3 C 89 % 1010,2 hPa 0,0 l/m 19,6 km/h (3 Bft) SW 227 0 min 0,000 mm 0,0 UV-I 5 W/m 0,2 C -7,1 C 25,7 km/h (4 Bft) 97,87 %
18.01.2018 07:42 1,8 C 3,3 C 89 % 1010,2 hPa 0,0 l/m 18,2 km/h (3 Bft) W-SW 239 0 min 0,000 mm 0,0 UV-I 5 W/m 0,2 C -6,5 C 29,0 km/h (5 Bft) 97,92 %
18.01.2018 07:44 1,8 C 3,3 C 89 % 1010,2 hPa 0,0 l/m 21,4 km/h (4 Bft) S-SW 209 0 min 0,000 mm 0,0 UV-I 5 W/m 0,2 C -7,9 C 27,4 km/h (4 Bft) 100,00 %
18.01.2018 07:46 1,8 C 3,3 C 89 % 1010,2 hPa 0,0 l/m 17,6 km/h (3 Bft) SW 234 0 min 0,000 mm 0,0 UV-I 5 W/m 0,2 C -6,2 C 30,6 km/h (5 Bft) 100,00 %
18.01.2018 07:48 1,8 C 3,3 C 89 % 1010,2 hPa 0,0 l/m 16,7 km/h (3 Bft) S-SW 209 0 min 0,000 mm 0,0 UV-I 7 W/m 0,2 C -5,7 C 30,6 km/h (5 Bft) 100,00 %
18.01.2018 07:50 1,8 C 3,3 C 89 % 1010,2 hPa 0,0 l/m 16,3 km/h (3 Bft) W-SW 250 0 min 0,000 mm 0,0 UV-I 7 W/m 0,2 C -5,5 C 24,1 km/h (4 Bft) 98,00 %
18.01.2018 07:52 1,8 C 3,3 C 89 % 1010,2 hPa 0,0 l/m 16,2 km/h (3 Bft) W-SW 250 0 min 0,000 mm 0,0 UV-I 9 W/m 0,2 C -5,5 C 24,1 km/h (4 Bft) 100,00 %
18.01.2018 07:54 1,8 C 3,3 C 89 % 1010,2 hPa 0,0 l/m 14,5 km/h (3 Bft) W-SW 244 0 min 0,000 mm 0,0 UV-I 11 W/m 0,2 C -4,5 C 25,7 km/h (4 Bft) 100,00 %
18.01.2018 07:56 1,8 C 3,3 C 89 % 1010,2 hPa 0,0 l/m 17,8 km/h (3 Bft) SW 228 0 min 0,000 mm 0,0 UV-I 12 W/m 0,2 C -6,3 C 29,0 km/h (5 Bft) 100,00 %
18.01.2018 07:58 1,9 C 3,3 C 89 % 1010,2 hPa 0,0 l/m 15,1 km/h (3 Bft) SW 234 0 min 0,000 mm 0,0 UV-I 12 W/m 0,3 C -4,7 C 24,1 km/h (4 Bft) 100,00 %
18.01.2018 08:00 1,9 C 3,3 C 89 % 1010,3 hPa 0,0 l/m 15,2 km/h (3 Bft) SW 227 2 min 0,026 mm 0,0 UV-I 14 W/m 0,3 C -4,8 C 29,0 km/h (5 Bft) 97,56 %
18.01.2018 08:02 1,9 C 3,3 C 89 % 1010,2 hPa 0,0 l/m 16,8 km/h (3 Bft) W-SW 241 2 min 0,000 mm 0,0 UV-I 14 W/m 0,3 C -5,7 C 24,1 km/h (4 Bft) 98,11 %
18.01.2018 08:04 1,9 C 3,3 C 89 % 1010,2 hPa 0,0 l/m 16,7 km/h (3 Bft) W-SW 252 0 min 0,000 mm 0,0 UV-I 14 W/m 0,3 C -5,6 C 24,1 km/h (4 Bft) 97,37 %
18.01.2018 08:06 1,9 C 3,3 C 89 % 1010,2 hPa 0,0 l/m 17,5 km/h (3 Bft) W-SW 253 0 min 0,000 mm 0,0 UV-I 16 W/m 0,3 C -6,0 C 27,4 km/h (4 Bft) 100,00 %
18.01.2018 08:08 1,9 C 3,3 C 90 % 1010,2 hPa 0,0 l/m 16,5 km/h (3 Bft) SW 236 0 min 0,000 mm 0,0 UV-I 18 W/m 0,4 C -5,5 C 24,1 km/h (4 Bft) 100,00 %
18.01.2018 08:10 1,9 C 3,3 C 90 % 1010,1 hPa 0,0 l/m 19,9 km/h (4 Bft) W-SW 242 0 min 0,000 mm 0,0 UV-I 22 W/m 0,4 C -7,1 C 29,0 km/h (5 Bft) 100,00 %
18.01.2018 08:12 1,9 C 3,3 C 90 % 1010,0 hPa 0,0 l/m 14,8 km/h (3 Bft) SW 218 0 min 0,000 mm 0,0 UV-I 25 W/m 0,4 C -4,6 C 24,1 km/h (4 Bft) 100,00 %
18.01.2018 08:14 1,8 C 3,3 C 90 % 1009,9 hPa 0,0 l/m 15,2 km/h (3 Bft) SW 234 0 min 0,000 mm 0,0 UV-I 27 W/m 0,3 C -4,9 C 24,1 km/h (4 Bft) 97,37 %
18.01.2018 08:16 1,8 C 3,3 C 90 % 1009,9 hPa 0,0 l/m 13,0 km/h (3 Bft) S-SW 196 0 min 0,000 mm 0,0 UV-I 29 W/m 0,3 C -3,6 C 22,5 km/h (4 Bft) 100,00 %
18.01.2018 08:18 1,8 C 3,3 C 90 % 1009,9 hPa 0,0 l/m 16,2 km/h (3 Bft) SW 224 0 min 0,000 mm 0,0 UV-I 28 W/m 0,3 C -5,5 C 24,1 km/h (4 Bft) 100,00 %
18.01.2018 08:20 1,8 C 3,3 C 90 % 1010,0 hPa 0,0 l/m 13,2 km/h (3 Bft) S-SW 208 0 min 0,000 mm 0,0 UV-I 26 W/m 0,3 C -3,7 C 19,3 km/h (3 Bft) 98,08 %
18.01.2018 08:22 1,8 C 3,3 C 90 % 1009,9 hPa 0,0 l/m 16,7 km/h (3 Bft) W-SW 246 0 min 0,000 mm 0,0 UV-I 25 W/m 0,3 C -5,7 C 24,1 km/h (4 Bft) 100,00 %
18.01.2018 08:24 1,8 C 3,3 C 91 % 1009,9 hPa 0,0 l/m 18,0 km/h (3 Bft) W-SW 240 0 min 0,000 mm 0,0 UV-I 25 W/m 0,5 C -6,4 C 29,0 km/h (5 Bft) 100,00 %
18.01.2018 08:26 1,8 C 3,3 C 91 % 1009,9 hPa 0,0 l/m 18,0 km/h (3 Bft) W-SW 257 0 min 0,000 mm 0,0 UV-I 25 W/m 0,5 C -6,4 C 24,1 km/h (4 Bft) 100,00 %
18.01.2018 08:28 1,8 C 3,3 C 91 % 1009,9 hPa 0,0 l/m 18,5 km/h (3 Bft) SW 229 0 min 0,000 mm 0,0 UV-I 23 W/m 0,5 C -6,6 C 27,4 km/h (4 Bft) 100,00 %
18.01.2018 08:30 1,8 C 3,3 C 91 % 1009,8 hPa 0,0 l/m 18,9 km/h (3 Bft) SW 235 0 min 0,000 mm 0,0 UV-I 22 W/m 0,5 C -6,8 C 25,7 km/h (4 Bft) 100,00 %
18.01.2018 08:32 1,8 C 3,3 C 91 % 1009,9 hPa 0,0 l/m 19,5 km/h (3 Bft) SW 219 0 min 0,000 mm 0,0 UV-I 21 W/m 0,5 C -7,1 C 27,4 km/h (4 Bft) 100,00 %
18.01.2018 08:34 1,9 C 3,3 C 91 % 1009,9 hPa 0,0 l/m 14,6 km/h (3 Bft) SW 232 0 min 0,000 mm 0,0 UV-I 21 W/m 0,6 C -4,4 C 25,7 km/h (4 Bft) 97,56 %
18.01.2018 08:36 1,9 C 3,3 C 91 % 1009,8 hPa 0,0 l/m 16,7 km/h (3 Bft) S-SW 198 0 min 0,000 mm 0,0 UV-I 21 W/m 0,6 C -5,6 C 24,1 km/h (4 Bft) 96,23 %
18.01.2018 08:38 1,9 C 3,3 C 91 % 1009,8 hPa 0,0 l/m 14,3 km/h (3 Bft) SW 226 0 min 0,000 mm 0,0 UV-I 19 W/m 0,6 C -4,3 C 25,7 km/h (4 Bft) 95,74 %
18.01.2018 08:40 1,9 C 3,3 C 91 % 1009,7 hPa 0,0 l/m 14,5 km/h (3 Bft) SW 222 0 min 0,000 mm 0,0 UV-I 19 W/m 0,6 C -4,4 C 24,1 km/h (4 Bft) 97,87 %
18.01.2018 08:42 1,9 C 3,3 C 91 % 1009,8 hPa 0,0 l/m 15,8 km/h (3 Bft) SW 236 0 min 0,000 mm 0,0 UV-I 21 W/m 0,6 C -5,1 C 24,1 km/h (4 Bft) 97,56 %
18.01.2018 08:44 1,9 C 3,3 C 91 % 1009,8 hPa 0,0 l/m 15,1 km/h (3 Bft) S-SW 204 0 min 0,000 mm 0,0 UV-I 24 W/m 0,6 C -4,7 C 22,5 km/h (4 Bft) 97,56 %
18.01.2018 08:46 1,8 C 3,3 C 91 % 1009,7 hPa 0,0 l/m 19,1 km/h (3 Bft) SW 215 0 min 0,000 mm 0,0 UV-I 26 W/m 0,5 C -6,9 C 27,4 km/h (4 Bft) 95,74 %
18.01.2018 08:48 1,8 C 3,3 C 91 % 1009,6 hPa 0,0 l/m 13,1 km/h (3 Bft) S-SW 210 0 min 0,000 mm 0,0 UV-I 28 W/m 0,5 C -3,7 C 19,3 km/h (3 Bft) 97,56 %
18.01.2018 08:50 1,8 C 3,3 C 92 % 1009,7 hPa 0,0 l/m 13,3 km/h (3 Bft) S 186 0 min 0,000 mm 0,0 UV-I 31 W/m 0,6 C -3,8 C 20,9 km/h (4 Bft) 98,21 %
18.01.2018 08:52 1,8 C 3,3 C 92 % 1009,6 hPa 0,0 l/m 14,4 km/h (3 Bft) SW 221 0 min 0,000 mm 0,0 UV-I 36 W/m 0,6 C -4,5 C 22,5 km/h (4 Bft) 96,23 %
18.01.2018 08:54 1,8 C 3,3 C 92 % 1009,4 hPa 0,0 l/m 15,7 km/h (3 Bft) S-SW 211 0 min 0,000 mm 0,0 UV-I 40 W/m 0,6 C -5,2 C 22,5 km/h (4 Bft) 97,37 %
18.01.2018 08:56 1,8 C 3,3 C 92 % 1009,3 hPa 0,0 l/m 14,3 km/h (3 Bft) SW 222 0 min 0,000 mm 0,0 UV-I 40 W/m 0,6 C -4,4 C 19,3 km/h (3 Bft) 96,00 %
18.01.2018 08:58 1,8 C 3,3 C 92 % 1009,3 hPa 0,0 l/m 9,7 km/h (2 Bft) W-SW 239 0 min 0,000 mm 0,0 UV-I 35 W/m 0,6 C -1,2 C 20,9 km/h (4 Bft) 97,92 %
18.01.2018 09:00 1,8 C 3,3 C 92 % 1009,3 hPa 0,0 l/m 10,3 km/h (2 Bft) SW 227 0 min 0,025 mm 0,0 UV-I 32 W/m 0,6 C -1,7 C 16,1 km/h (3 Bft) 97,56 %
18.01.2018 09:02 1,7 C 3,3 C 92 % 1009,2 hPa 0,0 l/m 9,5 km/h (2 Bft) S-SW 201 0 min 0,000 mm 0,0 UV-I 34 W/m 0,5 C -1,2 C 19,3 km/h (3 Bft) 96,43 %
18.01.2018 09:04 1,7 C 3,3 C 92 % 1009,2 hPa 0,2 l/m 9,7 km/h (2 Bft) SW 230 0 min 0,000 mm 0,0 UV-I 35 W/m 0,5 C -1,3 C 16,1 km/h (3 Bft) 94,29 %
18.01.2018 09:06 1,7 C 3,3 C 92 % 1009,1 hPa 0,0 l/m 9,9 km/h (2 Bft) SW 215 0 min 0,000 mm 0,0 UV-I 40 W/m 0,5 C -1,5 C 17,7 km/h (3 Bft) 100,00 %
18.01.2018 09:08 1,7 C 3,3 C 92 % 1009,1 hPa 0,0 l/m 10,3 km/h (2 Bft) S-SW 202 0 min 0,000 mm 0,0 UV-I 43 W/m 0,5 C -1,8 C 16,1 km/h (3 Bft) 97,87 %
18.01.2018 09:10 1,8 C 3,3 C 92 % 1009,0 hPa 0,0 l/m 10,4 km/h (2 Bft) SW 219 0 min 0,000 mm 0,0 UV-I 44 W/m 0,6 C -1,8 C 16,1 km/h (3 Bft) 98,00 %
18.01.2018 09:12 1,8 C 3,3 C 92 % 1008,9 hPa 0,0 l/m 10,6 km/h (2 Bft) S-SW 208 0 min 0,000 mm 0,0 UV-I 46 W/m 0,6 C -1,9 C 16,1 km/h (3 Bft) 100,00 %
18.01.2018 09:14 1,8 C 3,3 C 92 % 1008,9 hPa 0,0 l/m 9,0 km/h (2 Bft) SW 229 0 min 0,000 mm 0,0 UV-I 48 W/m 0,6 C -0,6 C 12,9 km/h (3 Bft) 100,00 %
18.01.2018 09:16 1,8 C 3,3 C 92 % 1008,8 hPa 0,0 l/m 8,8 km/h (2 Bft) S-SW 192 0 min 0,000 mm 0,0 UV-I 49 W/m 0,6 C -0,5 C 16,1 km/h (3 Bft) 100,00 %
18.01.2018 09:18 1,9 C 3,3 C 92 % 1008,8 hPa 0,0 l/m 11,5 km/h (2 Bft) SW 216 0 min 0,000 mm 0,0 UV-I 52 W/m 0,7 C -2,5 C 17,7 km/h (3 Bft) 100,00 %
18.01.2018 09:20 1,9 C 3,3 C 92 % 1008,7 hPa 0,0 l/m 11,5 km/h (2 Bft) SW 236 0 min 0,000 mm 0,0 UV-I 56 W/m 0,7 C -2,5 C 22,5 km/h (4 Bft) 100,00 %
18.01.2018 09:22 1,9 C 3,3 C 92 % 1008,6 hPa 0,0 l/m 10,0 km/h (2 Bft) S-SW 201 0 min 0,000 mm 0,0 UV-I 58 W/m 0,7 C -1,4 C 17,7 km/h (3 Bft) 100,00 %
18.01.2018 09:24 2,0 C 3,3 C 92 % 1008,4 hPa 0,2 l/m 10,2 km/h (2 Bft) S 179 0 min 0,000 mm 0,0 UV-I 62 W/m 0,8 C -1,4 C 19,3 km/h (3 Bft) 100,00 %
18.01.2018 09:26 2,0 C 3,3 C 91 % 1008,3 hPa 0,0 l/m 12,1 km/h (2 Bft) SW 225 0 min 0,000 mm 0,0 UV-I 62 W/m 0,7 C -2,8 C 17,7 km/h (3 Bft) 100,00 %
18.01.2018 09:28 2,1 C 3,3 C 91 % 1008,3 hPa 0,0 l/m 13,9 km/h (3 Bft) SW 217 0 min 0,000 mm 0,0 UV-I 64 W/m 0,8 C -3,8 C 20,9 km/h (4 Bft) 100,00 %
18.01.2018 09:30 2,2 C 3,3 C 91 % 1008,2 hPa 0,0 l/m 13,7 km/h (3 Bft) S-SW 205 0 min 0,000 mm 0,0 UV-I 65 W/m 0,9 C -3,6 C 20,9 km/h (4 Bft) 100,00 %
18.01.2018 09:32 2,2 C 3,3 C 90 % 1008,1 hPa 0,0 l/m 11,6 km/h (2 Bft) S-SW 202 0 min 0,000 mm 0,0 UV-I 77 W/m 0,7 C -2,2 C 19,3 km/h (3 Bft) 100,00 %
18.01.2018 09:34 2,2 C 3,3 C 90 % 1008,0 hPa 0,0 l/m 12,0 km/h (2 Bft) S-SW 209 0 min 0,000 mm 0,0 UV-I 80 W/m 0,7 C -2,5 C 17,7 km/h (3 Bft) 100,00 %
18.01.2018 09:36 2,2 C 3,3 C 90 % 1008,1 hPa 0,0 l/m 11,7 km/h (2 Bft) SW 226 0 min 0,000 mm 0,0 UV-I 80 W/m 0,7 C -2,3 C 20,9 km/h (4 Bft) 100,00 %
18.01.2018 09:38 2,3 C 3,3 C 90 % 1008,1 hPa 0,0 l/m 10,1 km/h (2 Bft) SW 236 0 min 0,000 mm 0,0 UV-I 82 W/m 0,8 C -1,0 C 16,1 km/h (3 Bft) 100,00 %
18.01.2018 09:40 2,3 C 3,3 C 90 % 1008,0 hPa 0,0 l/m 10,2 km/h (2 Bft) SW 219 0 min 0,000 mm 0,0 UV-I 70 W/m 0,8 C -1,1 C 14,5 km/h (3 Bft) 100,00 %
18.01.2018 09:42 2,3 C 3,3 C 90 % 1007,8 hPa 0,0 l/m 9,8 km/h (2 Bft) S-SW 209 0 min 0,000 mm 0,0 UV-I 61 W/m 0,8 C -0,8 C 14,5 km/h (3 Bft) 98,00 %
18.01.2018 09:44 2,3 C 3,3 C 89 % 1007,8 hPa 0,0 l/m 5,2 km/h (1 Bft) S 180 0 min 0,000 mm 0,0 UV-I 62 W/m 0,7 C 2,3 C 9,7 km/h (2 Bft) 100,00 %
18.01.2018 09:46 2,3 C 3,3 C 90 % 1007,7 hPa 0,0 l/m 7,4 km/h (2 Bft) S 190 0 min 0,000 mm 0,0 UV-I 81 W/m 0,8 C 1,3 C 11,3 km/h (2 Bft) 97,56 %
18.01.2018 09:48 2,3 C 3,3 C 89 % 1007,7 hPa 0,0 l/m 6,6 km/h (2 Bft) SW 227 0 min 0,000 mm 0,0 UV-I 96 W/m 0,7 C 2,1 C 12,9 km/h (3 Bft) 100,00 %
18.01.2018 09:50 2,4 C 3,3 C 89 % 1007,8 hPa 0,0 l/m 7,3 km/h (2 Bft) SW 221 0 min 0,000 mm 0,0 UV-I 86 W/m 0,8 C 1,5 C 9,7 km/h (2 Bft) 97,87 %
18.01.2018 09:52 2,5 C 3,3 C 89 % 1007,7 hPa 0,0 l/m 5,1 km/h (1 Bft) SW 234 0 min 0,000 mm 0,0 UV-I 65 W/m 0,9 C 2,5 C 8,0 km/h (2 Bft) 100,00 %
18.01.2018 09:54 2,5 C 3,3 C 89 % 1007,7 hPa 0,0 l/m 5,3 km/h (1 Bft) S-SW 211 0 min 0,000 mm 0,0 UV-I 63 W/m 0,9 C 2,5 C 9,7 km/h (2 Bft) 100,00 %
18.01.2018 09:56 2,6 C 3,3 C 88 % 1007,7 hPa 0,2 l/m 5,6 km/h (1 Bft) SW 218 0 min 0,000 mm 0,0 UV-I 75 W/m 0,8 C 2,6 C 11,3 km/h (2 Bft) 97,14 %
18.01.2018 09:58 2,7 C 3,3 C 88 % 1007,7 hPa 0,0 l/m 6,8 km/h (2 Bft) SW 228 0 min 0,000 mm 0,0 UV-I 72 W/m 0,9 C 2,3 C 12,9 km/h (3 Bft) 100,00 %
18.01.2018 10:00 2,7 C 3,3 C 87 % 1007,7 hPa 0,0 l/m 5,1 km/h (1 Bft) NO 51 0 min 0,026 mm 0,0 UV-I 69 W/m 0,8 C 2,7 C 12,9 km/h (3 Bft) 100,00 %
18.01.2018 10:02 2,8 C 3,3 C 86 % 1007,6 hPa 0,0 l/m 9,1 km/h (2 Bft) W-SW 238 0 min 0,000 mm 0,0 UV-I 77 W/m 0,7 C 0,4 C 16,1 km/h (3 Bft) 100,00 %
18.01.2018 10:05 3,2 C 3,3 C 85 % 1007,6 hPa 0,0 l/m 8,9 km/h (2 Bft) S 191 0 min 0,000 mm 0,0 UV-I 80 W/m 0,9 C 0,9 C 16,1 km/h (3 Bft) 95,12 %
18.01.2018 10:06 3,2 C 3,3 C 84 % 1007,5 hPa 0,0 l/m 13,5 km/h (3 Bft) S-SW 213 0 min 0,000 mm 0,0 UV-I 83 W/m 0,8 C -2,3 C 25,7 km/h (4 Bft) 96,55 %
18.01.2018 10:08 3,4 C 3,3 C 83 % 1007,5 hPa 0,0 l/m 14,9 km/h (3 Bft) S-SW 208 0 min 0,000 mm 0,0 UV-I 88 W/m 0,8 C -2,8 C 25,7 km/h (4 Bft) 97,37 %
18.01.2018 10:12 3,6 C 3,3 C 82 % 1007,1 hPa 0,0 l/m 11,9 km/h (2 Bft) S 188 0 min 0,000 mm 0,0 UV-I 71 W/m 0,8 C -0,8 C 24,1 km/h (4 Bft) 98,17 %
18.01.2018 10:14 3,6 C 3,3 C 81 % 1007,1 hPa 0,0 l/m 10,8 km/h (2 Bft) SW 217 0 min 0,000 mm 0,0 UV-I 55 W/m 0,7 C -0,1 C 17,7 km/h (3 Bft) 95,12 %
18.01.2018 10:16 3,6 C 3,3 C 81 % 1006,9 hPa 0,2 l/m 6,2 km/h (2 Bft) S 175 0 min 0,000 mm 0,0 UV-I 58 W/m 0,7 C 3,6 C 11,3 km/h (2 Bft) 96,00 %
18.01.2018 10:18 3,7 C 3,3 C 81 % 1006,8 hPa 0,0 l/m 10,3 km/h (2 Bft) S-SW 213 0 min 0,000 mm 0,0 UV-I 63 W/m 0,7 C 0,4 C 17,7 km/h (3 Bft) 97,44 %
18.01.2018 10:22 3,7 C 3,3 C 80 % 1006,6 hPa 0,0 l/m 12,2 km/h (2 Bft) S-SW 205 0 min 0,000 mm 0,0 UV-I 81 W/m 0,6 C -0,9 C 20,9 km/h (4 Bft) 96,00 %
18.01.2018 10:24 3,8 C 3,3 C 80 % 1006,6 hPa 0,0 l/m 12,0 km/h (2 Bft) S-SW 211 0 min 0,000 mm 0,0 UV-I 101 W/m 0,7 C -0,6 C 19,3 km/h (3 Bft) 100,00 %
18.01.2018 10:27 3,8 C 3,3 C 80 % 1006,5 hPa 0,0 l/m 9,1 km/h (2 Bft) SW 236 0 min 0,000 mm 0,0 UV-I 108 W/m 0,7 C 1,4 C 17,7 km/h (3 Bft) 97,65 %
18.01.2018 10:28 3,8 C 3,3 C 80 % 1006,5 hPa 0,0 l/m 8,8 km/h (2 Bft) S-SW 201 0 min 0,000 mm 0,0 UV-I 115 W/m 0,7 C 1,7 C 14,5 km/h (3 Bft) 91,67 %
18.01.2018 10:30 3,8 C 3,3 C 80 % 1006,4 hPa 0,0 l/m 6,8 km/h (2 Bft) S-SW 200 0 min 0,000 mm 0,0 UV-I 101 W/m 0,7 C 3,4 C 12,9 km/h (3 Bft) 98,21 %
18.01.2018 10:32 3,8 C 3,3 C 80 % 1006,4 hPa 0,0 l/m 8,5 km/h (2 Bft) W-SW 241 0 min 0,000 mm 0,0 UV-I 72 W/m 0,7 C 1,9 C 12,9 km/h (3 Bft) 97,37 %
18.01.2018 10:34 3,8 C 3,3 C 80 % 1006,4 hPa 0,0 l/m 8,3 km/h (2 Bft) S-SW 211 0 min 0,000 mm 0,0 UV-I 66 W/m 0,7 C 2,1 C 11,3 km/h (2 Bft) 94,34 %
18.01.2018 10:36 3,8 C 3,3 C 80 % 1006,4 hPa 0,0 l/m 7,8 km/h (2 Bft) S-SW 200 0 min 0,000 mm 0,0 UV-I 66 W/m 0,7 C 2,5 C 12,9 km/h (3 Bft) 97,87 %
18.01.2018 10:38 3,8 C 3,3 C 80 % 1006,4 hPa 0,0 l/m 6,7 km/h (2 Bft) SW 219 0 min 0,000 mm 0,0 UV-I 66 W/m 0,7 C 3,5 C 9,7 km/h (2 Bft) 97,56 %
18.01.2018 10:40 3,8 C 3,3 C 80 % 1006,2 hPa 0,0 l/m 5,6 km/h (1 Bft) S-SW 209 0 min 0,000 mm 0,0 UV-I 75 W/m 0,7 C 3,8 C 8,0 km/h (2 Bft) 95,74 %
18.01.2018 10:42 3,8 C 3,3 C 80 % 1006,0 hPa 0,0 l/m 8,0 km/h (2 Bft) S 170 0 min 0,000 mm 0,0 UV-I 77 W/m 0,7 C 2,3 C 14,5 km/h (3 Bft) 96,23 %
18.01.2018 10:44 3,8 C 3,3 C 80 % 1005,9 hPa 0,2 l/m 3,9 km/h (1 Bft) S 175 0 min 0,000 mm 0,0 UV-I 72 W/m 0,7 C 3,8 C 6,4 km/h (2 Bft) 95,12 %
18.01.2018 10:46 3,8 C 3,3 C 81 % 1006,1 hPa 0,0 l/m 4,5 km/h (1 Bft) S-SW 199 0 min 0,000 mm 0,0 UV-I 70 W/m 0,8 C 3,8 C 8,0 km/h (2 Bft) 92,86 %
18.01.2018 10:48 3,8 C 3,3 C 81 % 1006,1 hPa 0,0 l/m 6,7 km/h (2 Bft) S 186 0 min 0,000 mm 0,0 UV-I 75 W/m 0,8 C 3,5 C 9,7 km/h (2 Bft) 92,11 %
18.01.2018 10:50 3,9 C 3,3 C 80 % 1006,0 hPa 0,0 l/m 5,8 km/h (2 Bft) SW 229 0 min 0,000 mm 0,0 UV-I 64 W/m 0,8 C 3,9 C 12,9 km/h (3 Bft) 94,00 %
18.01.2018 10:52 3,9 C 3,3 C 80 % 1006,0 hPa 0,0 l/m 4,5 km/h (1 Bft) W-SW 239 0 min 0,000 mm 0,0 UV-I 57 W/m 0,8 C 3,9 C 8,0 km/h (2 Bft) 94,34 %
18.01.2018 10:54 3,9 C 3,3 C 79 % 1006,0 hPa 0,0 l/m 6,4 km/h (2 Bft) SW 223 0 min 0,000 mm 0,0 UV-I 56 W/m 0,6 C 3,9 C 9,7 km/h (2 Bft) 94,44 %
18.01.2018 10:56 4,0 C 3,3 C 79 % 1006,0 hPa 0,0 l/m 5,3 km/h (1 Bft) W-SW 256 0 min 0,000 mm 0,0 UV-I 60 W/m 0,7 C 4,0 C 9,7 km/h (2 Bft) 94,00 %
18.01.2018 10:58 4,0 C 3,3 C 79 % 1005,9 hPa 0,0 l/m 3,0 km/h (1 Bft) W-SW 257 0 min 0,000 mm 0,0 UV-I 63 W/m 0,7 C 4,0 C 6,4 km/h (2 Bft) 93,62 %
18.01.2018 11:00 3,9 C 3,3 C 80 % 1005,9 hPa 0,0 l/m 3,8 km/h (1 Bft) W-SW 239 0 min 0,050 mm 0,0 UV-I 69 W/m 0,8 C 3,9 C 4,8 km/h (1 Bft) 92,68 %
18.01.2018 11:02 3,9 C 3,3 C 80 % 1005,9 hPa 0,0 l/m 3,6 km/h (1 Bft) W-SW 238 0 min 0,000 mm 0,0 UV-I 71 W/m 0,8 C 3,9 C 4,8 km/h (1 Bft) 92,45 %
18.01.2018 11:04 3,9 C 3,3 C 80 % 1005,9 hPa 0,0 l/m 1,9 km/h (1 Bft) W-SW 238 0 min 0,000 mm 0,0 UV-I 70 W/m 0,8 C 3,9 C 3,2 km/h (1 Bft) 96,00 %
18.01.2018 11:06 3,9 C 3,3 C 80 % 1005,9 hPa 0,0 l/m 0,9 km/h (0 Bft) W-SW 238 0 min 0,000 mm 0,0 UV-I 69 W/m 0,8 C 3,9 C 3,2 km/h (1 Bft) 94,74 %
18.01.2018 11:08 3,9 C 3,3 C 81 % 1005,8 hPa 0,0 l/m 0,6 km/h (0 Bft) W-SW 238 0 min 0,000 mm 0,0 UV-I 64 W/m 0,9 C 3,9 C 3,2 km/h (1 Bft) 94,34 %
18.01.2018 11:10 3,9 C 3,3 C 81 % 1005,7 hPa 0,0 l/m 0,5 km/h (0 Bft) W-SW 238 0 min 0,000 mm 0,0 UV-I 60 W/m 0,9 C 3,9 C 3,2 km/h (1 Bft) 94,00 %
18.01.2018 11:12 3,8 C 3,3 C 81 % 1005,7 hPa 0,0 l/m 2,1 km/h (1 Bft) W-SW 238 0 min 0,000 mm 0,0 UV-I 62 W/m 0,8 C 3,8 C 4,8 km/h (1 Bft) 95,12 %
18.01.2018 11:14 3,8 C 3,3 C 82 % 1005,7 hPa 0,0 l/m 2,0 km/h (1 Bft) W-SW 238 0 min 0,000 mm 0,0 UV-I 64 W/m 1,0 C 3,8 C 3,2 km/h (1 Bft) 92,45 %
18.01.2018 11:16 3,9 C 3,3 C 82 % 1005,7 hPa 0,0 l/m 2,4 km/h (1 Bft) W-SW 238 0 min 0,000 mm 0,0 UV-I 62 W/m 1,1 C 3,9 C 3,2 km/h (1 Bft) 94,00 %
18.01.2018 11:18 3,9 C 3,3 C 81 % 1005,7 hPa 0,0 l/m 1,0 km/h (0 Bft) W-SW 238 0 min 0,000 mm 0,0 UV-I 59 W/m 0,9 C 3,9 C 3,2 km/h (1 Bft) 95,45 %
18.01.2018 11:20 3,9 C 3,3 C 81 % 1005,7 hPa 0,0 l/m 3,2 km/h (1 Bft) W-SW 238 0 min 0,000 mm 0,0 UV-I 62 W/m 0,9 C 3,9 C 4,8 km/h (1 Bft) 97,87 %
18.01.2018 11:22 3,9 C 3,3 C 81 % 1005,6 hPa 0,0 l/m 2,4 km/h (1 Bft) W-SW 238 0 min 0,000 mm 0,0 UV-I 70 W/m 0,9 C 3,9 C 4,8 km/h (1 Bft) 95,74 %
18.01.2018 11:24 3,9 C 3,3 C 81 % 1005,7 hPa 0,0 l/m 2,8 km/h (1 Bft) W-SW 238 0 min 0,000 mm 0,0 UV-I 67 W/m 0,9 C 3,9 C 4,8 km/h (1 Bft) 94,74 %
18.01.2018 11:26 3,9 C 3,3 C 81 % 1005,6 hPa 0,0 l/m 4,0 km/h (1 Bft) W-SW 238 0 min 0,000 mm 0,0 UV-I 62 W/m 0,9 C 3,9 C 6,4 km/h (2 Bft) 96,00 %
18.01.2018 11:28 3,9 C 3,3 C 81 % 1005,8 hPa 0,0 l/m 3,8 km/h (1 Bft) W-SW 247 0 min 0,000 mm 0,0 UV-I 54 W/m 0,9 C 3,9 C 6,4 km/h (2 Bft) 100,00 %
18.01.2018 11:30 3,9 C 3,3 C 81 % 1005,7 hPa 0,0 l/m 3,6 km/h (1 Bft) W-SW 247 0 min 0,000 mm 0,0 UV-I 52 W/m 0,9 C 3,9 C 4,8 km/h (1 Bft) 100,00 %
18.01.2018 11:32 3,9 C 3,3 C 81 % 1005,5 hPa 0,0 l/m 2,0 km/h (1 Bft) W-SW 247 0 min 0,000 mm 0,0 UV-I 39 W/m 0,9 C 3,9 C 4,8 km/h (1 Bft) 100,00 %
18.01.2018 11:34 3,9 C 3,3 C 81 % 1005,7 hPa 0,0 l/m 4,4 km/h (1 Bft) W 263 0 min 0,000 mm 0,0 UV-I 31 W/m 0,9 C 3,9 C 6,4 km/h (2 Bft) 100,00 %
18.01.2018 11:36 3,8 C 3,3 C 81 % 1005,5 hPa 0,0 l/m 3,8 km/h (1 Bft) W 277 0 min 0,000 mm 0,0 UV-I 29 W/m 0,8 C 3,8 C 6,4 km/h (2 Bft) 100,00 %
18.01.2018 11:38 3,8 C 3,3 C 82 % 1005,7 hPa 0,2 l/m 6,8 km/h (2 Bft) NW 304 0 min 0,000 mm 0,0 UV-I 26 W/m 1,0 C 3,4 C 12,9 km/h (3 Bft) 98,00 %
18.01.2018 11:40 3,7 C 3,3 C 83 % 1005,7 hPa 0,0 l/m 7,7 km/h (2 Bft) W-NW 292 0 min 0,000 mm 0,0 UV-I 32 W/m 1,1 C 2,5 C 12,9 km/h (3 Bft) 98,00 %
18.01.2018 11:42 3,6 C 3,3 C 85 % 1005,6 hPa 0,0 l/m 4,7 km/h (1 Bft) W-NW 288 0 min 0,000 mm 0,0 UV-I 49 W/m 1,3 C 3,6 C 12,9 km/h (3 Bft) 100,00 %
18.01.2018 11:44 3,6 C 3,3 C 85 % 1005,4 hPa 0,0 l/m 7,5 km/h (2 Bft) W-SW 249 0 min 0,000 mm 0,0 UV-I 54 W/m 1,3 C 2,6 C 12,9 km/h (3 Bft) 100,00 %
18.01.2018 11:46 3,7 C 3,3 C 85 % 1005,6 hPa 0,2 l/m 11,2 km/h (2 Bft) SW 232 0 min 0,000 mm 0,0 UV-I 55 W/m 1,4 C -0,2 C 20,9 km/h (4 Bft) 98,11 %
18.01.2018 11:48 3,7 C 3,3 C 84 % 1005,3 hPa 0,0 l/m 11,1 km/h (2 Bft) W-SW 237 0 min 0,000 mm 0,0 UV-I 67 W/m 1,3 C -0,1 C 20,9 km/h (4 Bft) 100,00 %
18.01.2018 11:50 3,7 C 3,3 C 84 % 1005,4 hPa 0,0 l/m 14,3 km/h (3 Bft) W-NW 287 0 min 0,000 mm 0,0 UV-I 49 W/m 1,3 C -2,1 C 22,5 km/h (4 Bft) 100,00 %
18.01.2018 11:52 3,7 C 3,3 C 85 % 1005,4 hPa 0,0 l/m 11,6 km/h (2 Bft) SW 227 0 min 0,000 mm 0,0 UV-I 65 W/m 1,4 C -0,5 C 17,7 km/h (3 Bft) 98,00 %
18.01.2018 11:54 3,8 C 3,3 C 85 % 1005,2 hPa 0,0 l/m 9,7 km/h (2 Bft) S-SW 197 0 min 0,000 mm 0,0 UV-I 82 W/m 1,5 C 1,0 C 14,5 km/h (3 Bft) 97,87 %
18.01.2018 11:56 3,8 C 3,3 C 85 % 1005,1 hPa 0,0 l/m 8,5 km/h (2 Bft) SW 229 0 min 0,000 mm 0,0 UV-I 80 W/m 1,5 C 1,9 C 12,9 km/h (3 Bft) 100,00 %
18.01.2018 11:58 3,8 C 3,3 C 85 % 1005,2 hPa 0,0 l/m 14,5 km/h (3 Bft) W 274 0 min 0,000 mm 0,0 UV-I 86 W/m 1,5 C -2,1 C 19,3 km/h (3 Bft) 100,00 %
18.01.2018 12:00 3,8 C 3,3 C 84 % 1005,1 hPa 0,0 l/m 13,4 km/h (3 Bft) W-SW 242 0 min 0,026 mm 0,0 UV-I 97 W/m 1,4 C -1,5 C 19,3 km/h (3 Bft) 100,00 %
18.01.2018 12:02 3,9 C 3,3 C 85 % 1004,9 hPa 0,0 l/m 13,4 km/h (3 Bft) W-SW 242 0 min 0,000 mm 0,0 UV-I 103 W/m 1,6 C -1,4 C 20,9 km/h (4 Bft) 100,00 %
18.01.2018 12:04 3,9 C 3,3 C 85 % 1005,0 hPa 0,0 l/m 17,4 km/h (3 Bft) W-SW 252 0 min 0,000 mm 0,0 UV-I 106 W/m 1,6 C -3,5 C 29,0 km/h (5 Bft) 100,00 %
18.01.2018 12:06 4,0 C 3,3 C 85 % 1004,8 hPa 0,0 l/m 14,6 km/h (3 Bft) SW 226 0 min 0,000 mm 0,0 UV-I 106 W/m 1,7 C -1,9 C 22,5 km/h (4 Bft) 96,00 %
18.01.2018 12:08 4,1 C 3,3 C 85 % 1004,8 hPa 0,0 l/m 16,3 km/h (3 Bft) SW 234 0 min 0,000 mm 0,0 UV-I 99 W/m 1,8 C -2,7 C 24,1 km/h (4 Bft) 97,87 %
18.01.2018 12:10 4,1 C 3,3 C 85 % 1004,7 hPa 0,0 l/m 11,9 km/h (2 Bft) SW 233 0 min 0,000 mm 0,0 UV-I 100 W/m 1,8 C -0,2 C 17,7 km/h (3 Bft) 100,00 %
18.01.2018 12:12 4,1 C 3,3 C 85 % 1004,8 hPa 0,0 l/m 12,3 km/h (3 Bft) W 265 0 min 0,000 mm 0,0 UV-I 114 W/m 1,8 C -0,5 C 17,7 km/h (3 Bft) 100,00 %
18.01.2018 12:14 4,2 C 3,3 C 85 % 1004,6 hPa 0,0 l/m 11,1 km/h (2 Bft) W 267 0 min 0,000 mm 0,0 UV-I 131 W/m 1,9 C 0,4 C 16,1 km/h (3 Bft) 100,00 %
18.01.2018 12:16 4,2 C 3,3 C 85 % 1004,5 hPa 0,0 l/m 9,0 km/h (2 Bft) W 265 0 min 0,000 mm 0,0 UV-I 138 W/m 1,9 C 1,9 C 14,5 km/h (3 Bft) 97,87 %
18.01.2018 12:18 4,3 C 3,3 C 85 % 1004,5 hPa 0,0 l/m 16,3 km/h (3 Bft) SW 229 0 min 0,000 mm 0,0 UV-I 131 W/m 2,0 C -2,4 C 29,0 km/h (5 Bft) 100,00 %
18.01.2018 12:20 4,3 C 3,3 C 84 % 1004,5 hPa 0,0 l/m 16,8 km/h (3 Bft) S-SW 211 0 min 0,000 mm 0,0 UV-I 123 W/m 1,8 C -2,7 C 29,0 km/h (5 Bft) 97,87 %
18.01.2018 12:22 4,4 C 3,3 C 84 % 1004,4 hPa 0,0 l/m 13,6 km/h (3 Bft) W-SW 251 0 min 0,000 mm 0,0 UV-I 111 W/m 1,9 C -0,9 C 19,3 km/h (3 Bft) 100,00 %
18.01.2018 12:24 4,4 C 3,3 C 85 % 1004,4 hPa 0,0 l/m 14,1 km/h (3 Bft) W-SW 256 0 min 0,000 mm 0,0 UV-I 109 W/m 2,1 C -1,2 C 24,1 km/h (4 Bft) 98,59 %
18.01.2018 12:26 4,4 C 3,3 C 85 % 1004,3 hPa 0,0 l/m 11,7 km/h (2 Bft) W-SW 240 0 min 0,000 mm 0,0 UV-I 99 W/m 2,1 C 0,3 C 17,7 km/h (3 Bft) 97,56 %
18.01.2018 12:28 4,4 C 3,3 C 84 % 1004,3 hPa 0,0 l/m 10,9 km/h (2 Bft) W-SW 248 0 min 0,000 mm 0,0 UV-I 91 W/m 1,9 C 0,8 C 17,7 km/h (3 Bft) 100,00 %
18.01.2018 12:30 4,4 C 3,3 C 85 % 1004,2 hPa 0,0 l/m 9,9 km/h (2 Bft) SW 222 0 min 0,000 mm 0,0 UV-I 96 W/m 2,1 C 1,5 C 17,7 km/h (3 Bft) 100,00 %
18.01.2018 12:32 4,4 C 3,3 C 85 % 1004,2 hPa 0,0 l/m 9,0 km/h (2 Bft) SW 236 0 min 0,000 mm 0,0 UV-I 91 W/m 2,1 C 2,2 C 16,1 km/h (3 Bft) 100,00 %
18.01.2018 12:34 4,5 C 3,3 C 85 % 1004,1 hPa 0,0 l/m 11,1 km/h (2 Bft) W-SW 254 0 min 0,000 mm 0,0 UV-I 91 W/m 2,2 C 0,8 C 16,1 km/h (3 Bft) 100,00 %
18.01.2018 12:36 4,6 C 3,3 C 84 % 1004,1 hPa 0,0 l/m 11,5 km/h (2 Bft) SW 225 0 min 0,000 mm 0,0 UV-I 98 W/m 2,1 C 0,6 C 17,7 km/h (3 Bft) 97,56 %
18.01.2018 12:38 4,6 C 3,3 C 85 % 1004,1 hPa 0,0 l/m 10,2 km/h (2 Bft) W 268 0 min 0,000 mm 0,0 UV-I 103 W/m 2,3 C 1,5 C 19,3 km/h (3 Bft) 100,00 %
18.01.2018 12:40 4,7 C 3,3 C 85 % 1004,0 hPa 0,0 l/m 9,1 km/h (2 Bft) W-SW 249 0 min 0,000 mm 0,0 UV-I 102 W/m 2,4 C 2,4 C 14,5 km/h (3 Bft) 100,00 %
18.01.2018 12:42 4,7 C 3,3 C 84 % 1003,9 hPa 0,0 l/m 7,6 km/h (2 Bft) W-SW 240 0 min 0,000 mm 0,0 UV-I 115 W/m 2,2 C 3,6 C 12,9 km/h (3 Bft) 97,56 %
18.01.2018 12:44 4,7 C 3,3 C 85 % 1003,9 hPa 0,0 l/m 7,4 km/h (2 Bft) W 263 0 min 0,000 mm 0,0 UV-I 118 W/m 2,4 C 3,8 C 11,3 km/h (2 Bft) 100,00 %
18.01.2018 12:46 4,7 C 3,3 C 85 % 1003,9 hPa 0,0 l/m 10,6 km/h (2 Bft) W-SW 246 0 min 0,000 mm 0,0 UV-I 128 W/m 2,4 C 1,3 C 14,5 km/h (3 Bft) 100,00 %
18.01.2018 12:48 4,8 C 3,3 C 84 % 1003,8 hPa 0,0 l/m 11,6 km/h (2 Bft) SW 217 0 min 0,000 mm 0,0 UV-I 147 W/m 2,3 C 0,8 C 17,7 km/h (3 Bft) 100,00 %
18.01.2018 12:50 4,8 C 3,3 C 84 % 1003,7 hPa 0,0 l/m 7,2 km/h (2 Bft) W-SW 240 0 min 0,000 mm 0,0 UV-I 137 W/m 2,3 C 4,1 C 11,3 km/h (2 Bft) 100,00 %
18.01.2018 12:52 4,8 C 3,3 C 84 % 1003,5 hPa 0,0 l/m 6,7 km/h (2 Bft) SW 219 0 min 0,000 mm 0,5 UV-I 159 W/m 2,3 C 4,6 C 9,7 km/h (2 Bft) 100,00 %
18.01.2018 12:54 4,9 C 3,3 C 84 % 1003,5 hPa 0,0 l/m 7,0 km/h (2 Bft) SW 236 0 min 0,000 mm 0,5 UV-I 174 W/m 2,4 C 4,4 C 14,5 km/h (3 Bft) 100,00 %
18.01.2018 12:56 4,9 C 3,3 C 84 % 1003,5 hPa 0,0 l/m 6,9 km/h (2 Bft) SW 226 0 min 0,000 mm 0,5 UV-I 180 W/m 2,4 C 4,5 C 12,9 km/h (3 Bft) 97,87 %
18.01.2018 12:58 4,9 C 3,3 C 84 % 1003,4 hPa 0,0 l/m 4,6 km/h (1 Bft) S-SW 196 0 min 0,000 mm 0,5 UV-I 182 W/m 2,4 C 4,9 C 6,4 km/h (2 Bft) 97,37 %
18.01.2018 13:00 5,0 C 3,3 C 84 % 1003,4 hPa 0,0 l/m 7,2 km/h (2 Bft) S 177 0 min 0,051 mm 0,4 UV-I 164 W/m 2,5 C 4,3 C 9,7 km/h (2 Bft) 94,92 %
18.01.2018 13:02 5,0 C 3,3 C 84 % 1003,4 hPa 0,0 l/m 5,2 km/h (1 Bft) W 264 0 min 0,000 mm 0,0 UV-I 128 W/m 2,5 C 5,0 C 8,0 km/h (2 Bft) 94,74 %
18.01.2018 13:04 5,0 C 3,3 C 84 % 1003,3 hPa 0,0 l/m 4,2 km/h (1 Bft) SW 227 0 min 0,000 mm 0,0 UV-I 102 W/m 2,5 C 5,0 C 6,4 km/h (2 Bft) 97,87 %
18.01.2018 13:06 5,1 C 3,3 C 84 % 1003,3 hPa 0,0 l/m 4,9 km/h (1 Bft) SW 232 0 min 0,000 mm 0,0 UV-I 95 W/m 2,6 C 5,1 C 8,0 km/h (2 Bft) 97,87 %
18.01.2018 13:08 5,1 C 3,3 C 84 % 1003,3 hPa 0,0 l/m 5,3 km/h (1 Bft) SW 229 0 min 0,000 mm 0,0 UV-I 90 W/m 2,6 C 5,1 C 9,7 km/h (2 Bft) 97,56 %
18.01.2018 13:10 5,0 C 3,3 C 84 % 1003,2 hPa 0,0 l/m 4,2 km/h (1 Bft) S-SW 192 0 min 0,000 mm 0,0 UV-I 86 W/m 2,5 C 5,0 C 8,0 km/h (2 Bft) 98,11 %
18.01.2018 13:12 5,0 C 3,3 C 84 % 1003,1 hPa 0,0 l/m 3,7 km/h (1 Bft) S-SW 202 0 min 0,000 mm 0,0 UV-I 84 W/m 2,5 C 5,0 C 6,4 km/h (2 Bft) 97,87 %
18.01.2018 13:14 5,1 C 3,3 C 85 % 1003,2 hPa 0,0 l/m 4,7 km/h (1 Bft) SW 225 0 min 0,000 mm 0,0 UV-I 91 W/m 2,8 C 5,1 C 6,4 km/h (2 Bft) 94,34 %
18.01.2018 13:16 5,0 C 3,3 C 85 % 1003,1 hPa 0,0 l/m 2,6 km/h (1 Bft) SW 225 0 min 0,000 mm 0,0 UV-I 101 W/m 2,7 C 5,0 C 4,8 km/h (1 Bft) 97,87 %
18.01.2018 13:18 5,0 C 3,3 C 85 % 1003,1 hPa 0,0 l/m 4,2 km/h (1 Bft) W-SW 242 0 min 0,000 mm 0,0 UV-I 83 W/m 2,7 C 5,0 C 6,4 km/h (2 Bft) 94,74 %
18.01.2018 13:20 5,1 C 3,3 C 85 % 1003,1 hPa 0,0 l/m 5,7 km/h (1 Bft) W-SW 251 0 min 0,000 mm 0,0 UV-I 76 W/m 2,8 C 5,1 C 8,0 km/h (2 Bft) 98,11 %
18.01.2018 13:22 5,1 C 3,3 C 85 % 1003,0 hPa 0,0 l/m 3,7 km/h (1 Bft) W-SW 242 0 min 0,000 mm 0,0 UV-I 78 W/m 2,8 C 5,1 C 4,8 km/h (1 Bft) 98,00 %
18.01.2018 13:24 5,1 C 3,3 C 85 % 1003,1 hPa 0,0 l/m 4,7 km/h (1 Bft) W 261 0 min 0,000 mm 0,0 UV-I 83 W/m 2,8 C 5,1 C 6,4 km/h (2 Bft) 94,74 %
18.01.2018 13:26 5,1 C 3,3 C 85 % 1003,0 hPa 0,0 l/m 4,2 km/h (1 Bft) W-SW 254 0 min 0,000 mm 0,0 UV-I 97 W/m 2,8 C 5,1 C 6,4 km/h (2 Bft) 98,11 %
18.01.2018 13:28 5,2 C 3,3 C 85 % 1002,9 hPa 0,0 l/m 3,2 km/h (1 Bft) W-SW 252 0 min 0,000 mm 0,0 UV-I 105 W/m 2,9 C 5,2 C 4,8 km/h (1 Bft) 97,44 %
18.01.2018 13:30 5,3 C 3,3 C 84 % 1002,9 hPa 0,0 l/m 6,1 km/h (2 Bft) W-SW 238 0 min 0,000 mm 0,0 UV-I 129 W/m 2,8 C 5,3 C 11,3 km/h (2 Bft) 100,00 %
18.01.2018 13:32 5,3 C 3,3 C 84 % 1002,7 hPa 0,0 l/m 6,6 km/h (2 Bft) SW 232 0 min 0,000 mm 0,0 UV-I 143 W/m 2,8 C 5,1 C 9,7 km/h (2 Bft) 97,87 %
18.01.2018 13:34 5,4 C 3,3 C 84 % 1002,7 hPa 0,0 l/m 9,4 km/h (2 Bft) W-SW 244 0 min 0,000 mm 0,0 UV-I 158 W/m 2,9 C 2,9 C 14,5 km/h (3 Bft) 100,00 %
18.01.2018 13:36 5,6 C 3,3 C 83 % 1002,7 hPa 0,0 l/m 8,9 km/h (2 Bft) W-SW 242 0 min 0,000 mm 0,5 UV-I 161 W/m 2,9 C 3,5 C 14,5 km/h (3 Bft) 100,00 %
18.01.2018 13:38 5,7 C 3,3 C 83 % 1002,7 hPa 0,0 l/m 6,9 km/h (2 Bft) W-SW 254 0 min 0,000 mm 0,5 UV-I 157 W/m 3,0 C 5,3 C 9,7 km/h (2 Bft) 96,00 %
18.01.2018 13:40 5,7 C 3,3 C 83 % 1002,7 hPa 0,0 l/m 9,1 km/h (2 Bft) SW 236 0 min 0,000 mm 0,5 UV-I 164 W/m 3,0 C 3,5 C 12,9 km/h (3 Bft) 100,00 %
18.01.2018 13:42 5,8 C 3,3 C 83 % 1002,7 hPa 0,0 l/m 6,5 km/h (2 Bft) W-SW 246 0 min 0,000 mm 0,1 UV-I 147 W/m 3,1 C 5,7 C 11,3 km/h (2 Bft) 98,00 %
18.01.2018 13:44 5,9 C 3,3 C 82 % 1002,7 hPa 0,0 l/m 9,9 km/h (2 Bft) W-SW 247 0 min 0,000 mm 0,0 UV-I 131 W/m 3,1 C 3,1 C 12,9 km/h (3 Bft) 100,00 %
18.01.2018 13:46 6,1 C 3,3 C 82 % 1002,7 hPa 0,0 l/m 12,1 km/h (2 Bft) SW 234 0 min 0,000 mm 0,0 UV-I 141 W/m 3,3 C 2,0 C 19,3 km/h (3 Bft) 97,37 %
18.01.2018 13:48 6,1 C 3,3 C 81 % 1002,6 hPa 0,0 l/m 11,3 km/h (2 Bft) W 261 0 min 0,000 mm 0,0 UV-I 136 W/m 3,1 C 2,4 C 16,1 km/h (3 Bft) 98,21 %
18.01.2018 13:50 6,2 C 3,3 C 81 % 1002,6 hPa 0,0 l/m 7,5 km/h (2 Bft) W-SW 255 0 min 0,000 mm 0,0 UV-I 132 W/m 3,2 C 5,3 C 12,9 km/h (3 Bft) 100,00 %
18.01.2018 13:52 6,3 C 3,3 C 81 % 1002,5 hPa 0,0 l/m 9,1 km/h (2 Bft) W 261 0 min 0,000 mm 0,0 UV-I 128 W/m 3,3 C 4,1 C 14,5 km/h (3 Bft) 100,00 %
18.01.2018 13:54 6,3 C 3,3 C 80 % 1002,5 hPa 0,0 l/m 9,9 km/h (2 Bft) W-SW 258 0 min 0,000 mm 0,0 UV-I 119 W/m 3,1 C 3,6 C 14,5 km/h (3 Bft) 97,56 %
18.01.2018 13:56 6,4 C 3,3 C 80 % 1002,5 hPa 0,0 l/m 11,7 km/h (2 Bft) W-NW 289 0 min 0,000 mm 0,0 UV-I 130 W/m 3,2 C 2,5 C 16,1 km/h (3 Bft) 97,87 %
18.01.2018 13:58 6,4 C 3,3 C 80 % 1002,4 hPa 0,0 l/m 9,3 km/h (2 Bft) W-SW 254 0 min 0,000 mm 0,0 UV-I 124 W/m 3,2 C 4,1 C 14,5 km/h (3 Bft) 100,00 %
18.01.2018 14:00 6,4 C 3,3 C 80 % 1002,3 hPa 0,0 l/m 10,5 km/h (2 Bft) W 261 0 min 0,000 mm 0,0 UV-I 122 W/m 3,2 C 3,3 C 14,5 km/h (3 Bft) 100,00 %
18.01.2018 14:02 6,5 C 3,3 C 79 % 1002,3 hPa 0,0 l/m 7,0 km/h (2 Bft) SW 225 0 min 0,050 mm 0,0 UV-I 112 W/m 3,1 C 6,0 C 11,3 km/h (2 Bft) 100,00 %
18.01.2018 14:04 6,6 C 3,9 C 79 % 1002,3 hPa 0,0 l/m 8,5 km/h (2 Bft) W-SW 254 0 min 0,000 mm 0,0 UV-I 115 W/m 3,2 C 4,9 C 12,9 km/h (3 Bft) 96,00 %
18.01.2018 14:06 6,7 C 3,3 C 78 % 1002,3 hPa 0,0 l/m 8,4 km/h (2 Bft) SW 222 0 min 0,000 mm 0,0 UV-I 121 W/m 3,1 C 5,1 C 11,3 km/h (2 Bft) 100,00 %
18.01.2018 14:08 6,7 C 3,3 C 79 % 1002,3 hPa 0,0 l/m 7,8 km/h (2 Bft) W-SW 246 0 min 0,000 mm 0,0 UV-I 120 W/m 3,3 C 5,5 C 11,3 km/h (2 Bft) 100,00 %
18.01.2018 14:10 6,7 C 3,3 C 78 % 1002,2 hPa 0,0 l/m 10,1 km/h (2 Bft) SW 219 0 min 0,000 mm 0,0 UV-I 115 W/m 3,1 C 3,9 C 16,1 km/h (3 Bft) 97,96 %
18.01.2018 14:12 6,7 C 3,3 C 78 % 1002,1 hPa 0,0 l/m 14,9 km/h (3 Bft) SW 226 0 min 0,000 mm 0,0 UV-I 108 W/m 3,1 C 1,2 C 24,1 km/h (4 Bft) 100,00 %
18.01.2018 14:14 6,7 C 3,3 C 79 % 1002,1 hPa 0,0 l/m 9,3 km/h (2 Bft) SW 223 0 min 0,000 mm 0,0 UV-I 100 W/m 3,3 C 4,4 C 16,1 km/h (3 Bft) 100,00 %
18.01.2018 14:16 6,7 C 3,3 C 79 % 1002,1 hPa 0,0 l/m 16,2 km/h (3 Bft) W-SW 238 0 min 0,000 mm 0,0 UV-I 98 W/m 3,3 C 0,6 C 22,5 km/h (4 Bft) 100,00 %
18.01.2018 14:18 6,8 C 3,3 C 79 % 1001,9 hPa 0,0 l/m 14,4 km/h (3 Bft) SW 223 0 min 0,000 mm 0,0 UV-I 98 W/m 3,4 C 1,5 C 20,9 km/h (4 Bft) 100,00 %
18.01.2018 14:20 6,8 C 3,3 C 79 % 1001,9 hPa 0,0 l/m 16,3 km/h (3 Bft) SW 234 0 min 0,000 mm 0,0 UV-I 113 W/m 3,4 C 0,7 C 20,9 km/h (4 Bft) 97,37 %
18.01.2018 14:22 6,8 C 3,3 C 79 % 1001,9 hPa 0,0 l/m 14,9 km/h (3 Bft) W-SW 238 0 min 0,000 mm 0,0 UV-I 121 W/m 3,4 C 1,3 C 19,3 km/h (3 Bft) 98,00 %
18.01.2018 14:24 6,9 C 3,3 C 79 % 1001,8 hPa 0,0 l/m 12,9 km/h (3 Bft) W-SW 246 0 min 0,000 mm 0,0 UV-I 109 W/m 3,5 C 2,4 C 17,7 km/h (3 Bft) 98,00 %
18.01.2018 14:26 7,0 C 3,3 C 78 % 1001,8 hPa 0,0 l/m 12,4 km/h (3 Bft) W-SW 257 0 min 0,000 mm 0,0 UV-I 106 W/m 3,4 C 2,8 C 20,9 km/h (4 Bft) 100,00 %
18.01.2018 14:28 7,1 C 3,3 C 78 % 1001,7 hPa 0,0 l/m 17,7 km/h (3 Bft) SW 224 0 min 0,000 mm 0,0 UV-I 131 W/m 3,5 C 0,4 C 27,4 km/h (4 Bft) 100,00 %
18.01.2018 14:30 7,2 C 3,3 C 77 % 1001,7 hPa 0,0 l/m 16,7 km/h (3 Bft) SW 218 2 min 0,000 mm 0,0 UV-I 152 W/m 3,4 C 1,0 C 27,4 km/h (4 Bft) 100,00 %
18.01.2018 14:32 7,3 C 3,3 C 76 % 1001,7 hPa 0,0 l/m 20,9 km/h (4 Bft) W-SW 246 2 min 0,000 mm 0,0 UV-I 156 W/m 3,4 C -0,5 C 29,0 km/h (5 Bft) 100,00 %
18.01.2018 14:34 7,4 C 3,3 C 76 % 1001,7 hPa 0,0 l/m 17,2 km/h (3 Bft) W-SW 242 2 min 0,000 mm 0,0 UV-I 144 W/m 3,5 C 1,0 C 24,1 km/h (4 Bft) 100,00 %
18.01.2018 14:36 7,4 C 3,3 C 76 % 1001,7 hPa 0,0 l/m 19,1 km/h (3 Bft) W-SW 255 0 min 0,000 mm 0,0 UV-I 126 W/m 3,5 C 0,3 C 25,7 km/h (4 Bft) 98,00 %
18.01.2018 14:38 7,6 C 3,3 C 75 % 1001,8 hPa 0,0 l/m 22,2 km/h (4 Bft) SW 235 0 min 0,000 mm 0,0 UV-I 110 W/m 3,5 C -0,6 C 30,6 km/h (5 Bft) 100,00 %
18.01.2018 14:40 7,6 C 3,3 C 75 % 1001,7 hPa 0,0 l/m 19,5 km/h (3 Bft) W-SW 247 0 min 0,000 mm 0,0 UV-I 111 W/m 3,5 C 0,4 C 29,0 km/h (5 Bft) 100,00 %
18.01.2018 14:42 7,7 C 3,3 C 74 % 1001,6 hPa 0,0 l/m 21,3 km/h (4 Bft) S-SW 211 0 min 0,000 mm 0,0 UV-I 124 W/m 3,4 C -0,1 C 32,2 km/h (5 Bft) 100,00 %
18.01.2018 14:44 7,7 C 3,3 C 74 % 1001,4 hPa 0,0 l/m 20,2 km/h (4 Bft) S-SW 207 0 min 0,000 mm 0,0 UV-I 127 W/m 3,4 C 0,2 C 27,4 km/h (4 Bft) 100,00 %
18.01.2018 14:46 7,8 C 3,3 C 74 % 1001,4 hPa 0,0 l/m 20,1 km/h (4 Bft) W 263 2 min 0,000 mm 0,0 UV-I 132 W/m 3,5 C 0,4 C 27,4 km/h (4 Bft) 100,00 %
18.01.2018 14:48 7,8 C 3,3 C 74 % 1001,3 hPa 0,0 l/m 24,3 km/h (4 Bft) SW 232 0 min 0,000 mm 0,0 UV-I 119 W/m 3,5 C -0,9 C 35,4 km/h (5 Bft) 100,00 %
18.01.2018 14:50 7,8 C 3,3 C 73 % 1001,2 hPa 0,0 l/m 20,0 km/h (4 Bft) SW 228 0 min 0,000 mm 0,0 UV-I 103 W/m 3,3 C 0,4 C 38,6 km/h (5 Bft) 100,00 %
18.01.2018 14:52 7,8 C 3,3 C 73 % 1001,3 hPa 0,0 l/m 24,7 km/h (4 Bft) SW 230 0 min 0,000 mm 0,0 UV-I 98 W/m 3,3 C -1,1 C 32,2 km/h (5 Bft) 100,00 %
18.01.2018 14:54 7,8 C 3,9 C 73 % 1001,2 hPa 0,0 l/m 25,5 km/h (4 Bft) W 261 0 min 0,000 mm 0,0 UV-I 92 W/m 3,3 C -1,3 C 37,0 km/h (5 Bft) 100,00 %
18.01.2018 14:56 7,8 C 3,3 C 73 % 1001,0 hPa 0,0 l/m 26,5 km/h (4 Bft) W-SW 250 0 min 0,000 mm 0,0 UV-I 88 W/m 3,3 C -1,6 C 38,6 km/h (5 Bft) 100,00 %
18.01.2018 14:58 7,9 C 3,3 C 72 % 1001,2 hPa 0,0 l/m 26,0 km/h (4 Bft) W-SW 250 0 min 0,000 mm 0,0 UV-I 88 W/m 3,2 C -1,3 C 38,6 km/h (5 Bft) 98,00 %
18.01.2018 15:00 8,0 C 3,3 C 72 % 1001,1 hPa 0,0 l/m 27,7 km/h (4 Bft) SW 229 0 min 0,077 mm 0,0 UV-I 78 W/m 3,3 C -1,6 C 41,8 km/h (6 Bft) 97,73 %
18.01.2018 15:02 7,9 C 3,3 C 72 % 1001,1 hPa 0,0 l/m 23,8 km/h (4 Bft) SW 236 0 min 0,000 mm 0,0 UV-I 58 W/m 3,2 C -0,7 C 38,6 km/h (5 Bft) 94,00 %
18.01.2018 15:04 7,9 C 3,3 C 73 % 1001,0 hPa 0,0 l/m 21,0 km/h (4 Bft) SW 217 0 min 0,000 mm 0,0 UV-I 53 W/m 3,4 C 0,2 C 30,6 km/h (5 Bft) 97,14 %
18.01.2018 15:06 7,9 C 3,3 C 72 % 1000,9 hPa 0,0 l/m 32,2 km/h (5 Bft) W-SW 243 0 min 0,000 mm 0,0 UV-I 58 W/m 3,2 C -2,8 C 41,8 km/h (6 Bft) 95,45 %
18.01.2018 15:08 7,9 C 3,3 C 72 % 1000,9 hPa 0,0 l/m 28,7 km/h (4 Bft) SW 234 0 min 0,000 mm 0,0 UV-I 62 W/m 3,2 C -2,0 C 45,1 km/h (6 Bft) 94,12 %
18.01.2018 15:10 7,9 C 3,9 C 72 % 1000,8 hPa 0,0 l/m 27,8 km/h (4 Bft) SW 231 0 min 0,000 mm 0,0 UV-I 58 W/m 3,2 C -1,8 C 41,8 km/h (6 Bft) 95,74 %
18.01.2018 15:12 7,9 C 3,3 C 72 % 1000,8 hPa 0,0 l/m 26,0 km/h (4 Bft) SW 229 0 min 0,000 mm 0,0 UV-I 58 W/m 3,2 C -1,3 C 35,4 km/h (5 Bft) 91,49 %
18.01.2018 15:14 7,9 C 3,3 C 72 % 1000,8 hPa 0,0 l/m 23,5 km/h (4 Bft) W-SW 242 0 min 0,000 mm 0,0 UV-I 66 W/m 3,2 C -0,6 C 35,4 km/h (5 Bft) 96,00 %
18.01.2018 15:16 7,9 C 3,3 C 72 % 1000,7 hPa 0,0 l/m 27,1 km/h (4 Bft) W-SW 238 0 min 0,000 mm 0,0 UV-I 68 W/m 3,2 C -1,6 C 40,2 km/h (6 Bft) 95,74 %
18.01.2018 15:18 7,9 C 3,3 C 71 % 1000,7 hPa 0,0 l/m 24,5 km/h (4 Bft) W-SW 249 2 min 0,000 mm 0,0 UV-I 110 W/m 3,0 C -0,9 C 35,4 km/h (5 Bft) 92,45 %
18.01.2018 15:20 8,0 C 3,9 C 72 % 1000,8 hPa 0,0 l/m 23,7 km/h (4 Bft) SW 228 2 min 0,000 mm 0,0 UV-I 132 W/m 3,3 C -0,5 C 32,2 km/h (5 Bft) 95,12 %
18.01.2018 15:22 8,1 C 3,9 C 71 % 1000,8 hPa 0,0 l/m 23,1 km/h (4 Bft) W-SW 241 2 min 0,000 mm 0,0 UV-I 133 W/m 3,2 C -0,2 C 33,8 km/h (5 Bft) 93,33 %
18.01.2018 15:24 8,1 C 3,3 C 72 % 1000,8 hPa 0,0 l/m 21,4 km/h (4 Bft) SW 236 2 min 0,000 mm 0,0 UV-I 138 W/m 3,4 C 0,4 C 29,0 km/h (5 Bft) 95,74 %
18.01.2018 15:26 8,2 C 3,3 C 72 % 1000,8 hPa 0,0 l/m 25,1 km/h (4 Bft) W-SW 257 2 min 0,000 mm 0,0 UV-I 140 W/m 3,5 C -0,6 C 33,8 km/h (5 Bft) 95,74 %
18.01.2018 15:28 8,2 C 3,3 C 72 % 1000,9 hPa 0,0 l/m 21,8 km/h (4 Bft) W-SW 255 2 min 0,000 mm 0,0 UV-I 121 W/m 3,5 C 0,4 C 32,2 km/h (5 Bft) 94,00 %
18.01.2018 15:30 8,3 C 3,3 C 71 % 1000,9 hPa 0,0 l/m 25,4 km/h (4 Bft) SW 219 2 min 0,000 mm 0,0 UV-I 112 W/m 3,4 C -0,6 C 37,0 km/h (5 Bft) 95,35 %
18.01.2018 15:31 8,3 C 3,3 C 71 % 1000,9 hPa 0,0 l/m 19,1 km/h (3 Bft) SW 235 1 min 0,000 mm 0,0 UV-I 104 W/m 3,4 C 1,4 C 32,2 km/h (5 Bft) 96,15 %
18.01.2018 15:32 8,3 C 3,9 C 71 % 1000,8 hPa 0,0 l/m 19,6 km/h (3 Bft) SW 217 1 min 0,000 mm 0,0 UV-I 109 W/m 3,4 C 1,2 C 27,4 km/h (4 Bft) 94,44 %
18.01.2018 15:33 8,3 C 3,9 C 71 % 1000,8 hPa 0,0 l/m 21,6 km/h (4 Bft) W 263 0 min 0,000 mm 0,0 UV-I 72 W/m 3,4 C 0,6 C 29,0 km/h (5 Bft) 96,15 %
18.01.2018 15:34 8,3 C 3,9 C 71 % 1000,8 hPa 0,0 l/m 27,9 km/h (4 Bft) SW 234 0 min 0,000 mm 0,0 UV-I 54 W/m 3,4 C -1,2 C 38,6 km/h (5 Bft) 91,67 %
18.01.2018 15:35 8,3 C 3,3 C 71 % 1000,8 hPa 0,0 l/m 27,1 km/h (4 Bft) SW 216 0 min 0,000 mm 0,0 UV-I 48 W/m 3,4 C -1,0 C 35,4 km/h (5 Bft) 96,67 %
18.01.2018 15:36 8,3 C 3,3 C 71 % 1000,8 hPa 0,0 l/m 23,6 km/h (4 Bft) SW 232 0 min 0,000 mm 0,0 UV-I 48 W/m 3,4 C -0,1 C 30,6 km/h (5 Bft) 88,46 %
18.01.2018 15:37 8,3 C 3,3 C 70 % 1000,8 hPa 0,0 l/m 27,0 km/h (4 Bft) SW 221 0 min 0,000 mm 0,0 UV-I 53 W/m 3,2 C -1,0 C 37,0 km/h (5 Bft) 100,00 %
18.01.2018 15:38 8,3 C 3,3 C 70 % 1000,8 hPa 0,0 l/m 29,1 km/h (5 Bft) SW 221 0 min 0,000 mm 0,0 UV-I 51 W/m 3,2 C -1,5 C 41,8 km/h (6 Bft) 91,30 %
18.01.2018 15:39 8,3 C 3,3 C 70 % 1000,9 hPa 0,0 l/m 26,9 km/h (4 Bft) W-SW 247 0 min 0,000 mm 0,0 UV-I 49 W/m 3,2 C -1,0 C 48,3 km/h (6 Bft) 95,83 %
18.01.2018 15:40 8,3 C 3,3 C 70 % 1000,9 hPa 0,0 l/m 28,4 km/h (4 Bft) SW 234 0 min 0,000 mm 0,0 UV-I 57 W/m 3,2 C -1,4 C 35,4 km/h (5 Bft) 95,65 %
18.01.2018 15:41 8,3 C 3,3 C 70 % 1000,9 hPa 0,0 l/m 25,3 km/h (4 Bft) SW 232 1 min 0,000 mm 0,0 UV-I 75 W/m 3,2 C -0,6 C 38,6 km/h (5 Bft) 95,83 %
18.01.2018 15:42 8,3 C 3,3 C 70 % 1001,0 hPa 0,0 l/m 29,1 km/h (5 Bft) S-SW 210 0 min 0,000 mm 0,0 UV-I 47 W/m 3,2 C -1,5 C 46,7 km/h (6 Bft) 100,00 %
18.01.2018 15:43 8,4 C 3,3 C 70 % 1001,0 hPa 0,0 l/m 24,5 km/h (4 Bft) W-SW 240 0 min 0,000 mm 0,0 UV-I 45 W/m 3,3 C -0,2 C 30,6 km/h (5 Bft) 96,30 %
18.01.2018 15:44 8,4 C 3,3 C 70 % 1000,9 hPa 0,0 l/m 22,9 km/h (4 Bft) W-SW 253 0 min 0,000 mm 0,0 UV-I 41 W/m 3,3 C 0,3 C 32,2 km/h (5 Bft) 100,00 %
18.01.2018 15:45 8,3 C 3,3 C 71 % 1001,0 hPa 0,0 l/m 21,6 km/h (4 Bft) W-SW 242 0 min 0,000 mm 0,0 UV-I 40 W/m 3,4 C 0,6 C 32,2 km/h (5 Bft) 93,33 %
18.01.2018 15:46 8,3 C 3,3 C 70 % 1001,0 hPa 0,0 l/m 27,0 km/h (4 Bft) W-SW 242 0 min 0,000 mm 0,0 UV-I 42 W/m 3,2 C -1,0 C 33,8 km/h (5 Bft) 92,31 %
18.01.2018 15:47 8,3 C 3,3 C 71 % 1001,0 hPa 0,0 l/m 22,9 km/h (4 Bft) SW 227 0 min 0,000 mm 0,0 UV-I 40 W/m 3,4 C 0,1 C 35,4 km/h (5 Bft) 96,30 %
18.01.2018 15:48 8,3 C 3,3 C 71 % 1001,0 hPa 0,0 l/m 22,4 km/h (4 Bft) SW 230 0 min 0,000 mm 0,0 UV-I 42 W/m 3,4 C 0,3 C 30,6 km/h (5 Bft) 96,15 %
18.01.2018 15:49 8,3 C 3,3 C 71 % 1001,0 hPa 0,0 l/m 22,7 km/h (4 Bft) W-SW 255 0 min 0,000 mm 0,0 UV-I 43 W/m 3,4 C 0,2 C 32,2 km/h (5 Bft) 100,00 %
18.01.2018 15:50 8,3 C 3,3 C 71 % 1001,0 hPa 0,0 l/m 23,9 km/h (4 Bft) S-SW 213 0 min 0,000 mm 0,0 UV-I 44 W/m 3,4 C -0,2 C 32,2 km/h (5 Bft) 95,65 %
18.01.2018 15:51 8,3 C 3,3 C 71 % 1000,9 hPa 0,0 l/m 22,9 km/h (4 Bft) SW 221 0 min 0,000 mm 0,0 UV-I 51 W/m 3,4 C 0,1 C 30,6 km/h (5 Bft) 100,00 %
18.01.2018 15:52 8,3 C 3,3 C 71 % 1000,9 hPa 0,0 l/m 24,3 km/h (4 Bft) S-SW 207 0 min 0,000 mm 0,0 UV-I 44 W/m 3,4 C -0,3 C 32,2 km/h (5 Bft) 95,83 %
18.01.2018 15:53 8,3 C 3,3 C 71 % 1000,9 hPa 0,0 l/m 20,8 km/h (4 Bft) W-SW 257 0 min 0,000 mm 0,0 UV-I 36 W/m 3,4 C 0,8 C 30,6 km/h (5 Bft) 96,00 %
18.01.2018 15:54 8,3 C 3,3 C 71 % 1000,9 hPa 0,0 l/m 21,9 km/h (4 Bft) W 268 0 min 0,000 mm 0,0 UV-I 38 W/m 3,4 C 0,5 C 35,4 km/h (5 Bft) 95,83 %
18.01.2018 15:55 8,3 C 3,3 C 71 % 1000,8 hPa 0,0 l/m 23,0 km/h (4 Bft) SW 217 1 min 0,000 mm 0,0 UV-I 70 W/m 3,4 C 0,1 C 30,6 km/h (5 Bft) 100,00 %
18.01.2018 15:56 8,3 C 3,3 C 71 % 1000,8 hPa 0,0 l/m 29,8 km/h (5 Bft) SW 234 1 min 0,000 mm 0,0 UV-I 82 W/m 3,4 C -1,7 C 38,6 km/h (5 Bft) 96,15 %
18.01.2018 15:57 8,4 C 3,3 C 71 % 1000,7 hPa 0,0 l/m 28,2 km/h (4 Bft) SW 223 1 min 0,000 mm 0,0 UV-I 81 W/m 3,5 C -1,2 C 37,0 km/h (5 Bft) 96,30 %
18.01.2018 15:58 8,4 C 3,3 C 71 % 1000,8 hPa 0,0 l/m 24,9 km/h (4 Bft) SW 219 1 min 0,000 mm 0,0 UV-I 79 W/m 3,5 C -0,3 C 30,6 km/h (5 Bft) 100,00 %
18.01.2018 15:59 8,4 C 3,3 C 71 % 1000,7 hPa 0,0 l/m 20,2 km/h (4 Bft) SW 225 1 min 0,000 mm 0,0 UV-I 77 W/m 3,5 C 1,2 C 29,0 km/h (5 Bft) 96,15 %
18.01.2018 16:00 8,4 C 3,3 C 71 % 1000,8 hPa 0,0 l/m 21,4 km/h (4 Bft) SW 232 1 min 0,000 mm 0,0 UV-I 76 W/m 3,5 C 0,7 C 29,0 km/h (5 Bft) 96,30 %
18.01.2018 16:01 8,4 C 3,3 C 71 % 1000,8 hPa 0,0 l/m 17,2 km/h (3 Bft) S-SW 210 1 min 0,101 mm 0,0 UV-I 75 W/m 3,5 C 2,3 C 22,5 km/h (4 Bft) 100,00 %
18.01.2018 16:02 8,4 C 3,3 C 71 % 1000,8 hPa 0,0 l/m 17,4 km/h (3 Bft) W-SW 238 1 min 0,000 mm 0,0 UV-I 74 W/m 3,5 C 2,2 C 24,1 km/h (4 Bft) 96,30 %
18.01.2018 16:03 8,4 C 3,3 C 71 % 1000,7 hPa 0,0 l/m 22,8 km/h (4 Bft) SW 227 1 min 0,000 mm 0,0 UV-I 73 W/m 3,5 C 0,3 C 30,6 km/h (5 Bft) 91,30 %
18.01.2018 16:04 8,4 C 3,9 C 71 % 1000,7 hPa 0,0 l/m 19,2 km/h (3 Bft) S-SW 209 1 min 0,000 mm 0,0 UV-I 70 W/m 3,5 C 1,5 C 25,7 km/h (4 Bft) 100,00 %
18.01.2018 16:05 8,4 C 3,9 C 71 % 1000,7 hPa 0,0 l/m 19,4 km/h (3 Bft) S 189 1 min 0,000 mm 0,0 UV-I 63 W/m 3,5 C 1,4 C 27,4 km/h (4 Bft) 95,65 %
18.01.2018 16:06 8,4 C 3,9 C 71 % 1000,7 hPa 0,0 l/m 23,1 km/h (4 Bft) SW 227 1 min 0,000 mm 0,0 UV-I 61 W/m 3,5 C 0,2 C 29,0 km/h (5 Bft) 100,00 %
18.01.2018 16:07 8,4 C 3,9 C 71 % 1000,7 hPa 0,0 l/m 21,7 km/h (4 Bft) W-SW 244 1 min 0,000 mm 0,0 UV-I 49 W/m 3,5 C 0,7 C 27,4 km/h (4 Bft) 95,65 %
18.01.2018 16:08 8,3 C 3,9 C 71 % 1000,7 hPa 0,0 l/m 22,5 km/h (4 Bft) SW 229 0 min 0,000 mm 0,0 UV-I 34 W/m 3,4 C 0,3 C 32,2 km/h (5 Bft) 95,83 %
18.01.2018 16:09 8,3 C 3,3 C 71 % 1000,6 hPa 0,0 l/m 19,1 km/h (3 Bft) SW 227 0 min 0,000 mm 0,0 UV-I 30 W/m 3,4 C 1,4 C 25,7 km/h (4 Bft) 95,65 %
18.01.2018 16:10 8,3 C 3,9 C 71 % 1000,6 hPa 0,0 l/m 18,2 km/h (3 Bft) SW 220 0 min 0,000 mm 0,0 UV-I 33 W/m 3,4 C 1,7 C 25,7 km/h (4 Bft) 96,30 %
18.01.2018 16:11 8,3 C 3,9 C 71 % 1000,6 hPa 0,0 l/m 18,6 km/h (3 Bft) W-SW 248 0 min 0,000 mm 0,0 UV-I 33 W/m 3,4 C 1,6 C 30,6 km/h (5 Bft) 100,00 %
18.01.2018 16:12 8,3 C 3,9 C 71 % 1000,6 hPa 0,0 l/m 24,3 km/h (4 Bft) SW 235 0 min 0,000 mm 0,0 UV-I 31 W/m 3,4 C -0,3 C 30,6 km/h (5 Bft) 100,00 %
18.01.2018 16:13 8,3 C 3,9 C 71 % 1000,7 hPa 0,0 l/m 20,8 km/h (4 Bft) SW 219 0 min 0,000 mm 0,0 UV-I 28 W/m 3,4 C 0,8 C 29,0 km/h (5 Bft) 91,67 %
18.01.2018 16:14 8,2 C 3,9 C 72 % 1000,7 hPa 0,0 l/m 24,1 km/h (4 Bft) W-SW 238 0 min 0,000 mm 0,0 UV-I 27 W/m 3,5 C -0,3 C 35,4 km/h (5 Bft) 96,15 %
18.01.2018 16:15 8,2 C 3,3 C 72 % 1000,6 hPa 0,0 l/m 30,2 km/h (5 Bft) SW 230 0 min 0,000 mm 0,0 UV-I 24 W/m 3,5 C -1,9 C 38,6 km/h (5 Bft) 100,00 %
18.01.2018 16:16 8,2 C 3,3 C 72 % 1000,7 hPa 0,0 l/m 23,7 km/h (4 Bft) S-SW 209 0 min 0,000 mm 0,0 UV-I 20 W/m 3,5 C -0,2 C 33,8 km/h (5 Bft) 91,30 %
18.01.2018 16:17 8,1 C 3,3 C 72 % 1000,7 hPa 0,0 l/m 22,7 km/h (4 Bft) S-SW 200 0 min 0,000 mm 0,0 UV-I 18 W/m 3,4 C -0,1 C 33,8 km/h (5 Bft) 100,00 %
18.01.2018 16:18 8,1 C 3,3 C 72 % 1000,6 hPa 0,0 l/m 26,6 km/h (4 Bft) SW 228 0 min 0,000 mm 0,0 UV-I 15 W/m 3,4 C -1,2 C 38,6 km/h (5 Bft) 91,30 %
18.01.2018 16:19 8,1 C 3,3 C 72 % 1000,6 hPa 0,0 l/m 21,6 km/h (4 Bft) SW 236 0 min 0,000 mm 0,0 UV-I 14 W/m 3,4 C 0,3 C 33,8 km/h (5 Bft) 100,00 %
18.01.2018 16:20 8,1 C 3,3 C 72 % 1000,7 hPa 0,0 l/m 20,6 km/h (4 Bft) W-SW 244 0 min 0,000 mm 0,0 UV-I 13 W/m 3,4 C 0,6 C 30,6 km/h (5 Bft) 95,83 %
18.01.2018 16:21 8,1 C 3,3 C 72 % 1000,7 hPa 0,0 l/m 23,1 km/h (4 Bft) SW 234 0 min 0,000 mm 0,0 UV-I 12 W/m 3,4 C -0,2 C 30,6 km/h (5 Bft) 100,00 %
18.01.2018 16:22 8,1 C 3,3 C 72 % 1000,7 hPa 0,0 l/m 23,5 km/h (4 Bft) S 184 0 min 0,000 mm 0,0 UV-I 12 W/m 3,4 C -0,3 C 35,4 km/h (5 Bft) 100,00 %
18.01.2018 16:23 8,1 C 3,3 C 71 % 1000,7 hPa 0,0 l/m 21,0 km/h (4 Bft) W-SW 238 0 min 0,000 mm 0,0 UV-I 12 W/m 3,2 C 0,5 C 32,2 km/h (5 Bft) 100,00 %
18.01.2018 16:24 8,1 C 3,3 C 71 % 1000,7 hPa 0,0 l/m 21,3 km/h (4 Bft) SW 233 0 min 0,000 mm 0,0 UV-I 12 W/m 3,2 C 0,4 C 30,6 km/h (5 Bft) 100,00 %
18.01.2018 16:25 8,1 C 3,3 C 71 % 1000,7 hPa 0,0 l/m 17,5 km/h (3 Bft) SW 232 0 min 0,000 mm 0,0 UV-I 11 W/m 3,2 C 1,8 C 33,8 km/h (5 Bft) 100,00 %
18.01.2018 16:26 8,1 C 3,3 C 71 % 1000,7 hPa 0,0 l/m 24,8 km/h (4 Bft) W-SW 239 0 min 0,000 mm 0,0 UV-I 11 W/m 3,2 C -0,7 C 33,8 km/h (5 Bft) 100,00 %
18.01.2018 16:27 8,1 C 3,3 C 71 % 1000,7 hPa 0,0 l/m 23,5 km/h (4 Bft) W-SW 246 0 min 0,000 mm 0,0 UV-I 11 W/m 3,2 C -0,3 C 33,8 km/h (5 Bft) 100,00 %
18.01.2018 16:28 8,1 C 3,3 C 71 % 1000,7 hPa 0,0 l/m 21,3 km/h (4 Bft) W-SW 244 1 min 0,000 mm 0,0 UV-I 11 W/m 3,2 C 0,4 C 29,0 km/h (5 Bft) 100,00 %
18.01.2018 16:29 8,1 C 3,3 C 71 % 1000,7 hPa 0,0 l/m 26,4 km/h (4 Bft) S-SW 212 1 min 0,000 mm 0,0 UV-I 11 W/m 3,2 C -1,1 C 35,4 km/h (5 Bft) 100,00 %
18.01.2018 16:30 8,1 C 3,3 C 71 % 1000,6 hPa 0,0 l/m 22,8 km/h (4 Bft) W-SW 239 0 min 0,000 mm 0,0 UV-I 11 W/m 3,2 C -0,1 C 33,8 km/h (5 Bft) 96,15 %
18.01.2018 16:31 8,2 C 3,3 C 71 % 1000,5 hPa 0,0 l/m 26,5 km/h (4 Bft) W-SW 254 0 min 0,000 mm 0,0 UV-I 10 W/m 3,3 C -1,0 C 38,6 km/h (5 Bft) 97,85 %
18.01.2018 16:32 8,2 C 3,3 C 70 % 1000,5 hPa 0,0 l/m 23,5 km/h (4 Bft) W-SW 242 0 min 0,000 mm 0,0 UV-I 9 W/m 3,1 C -0,2 C 29,0 km/h (5 Bft) 100,00 %
18.01.2018 16:33 8,2 C 3,3 C 71 % 1000,5 hPa 0,0 l/m 21,6 km/h (4 Bft) W-SW 241 0 min 0,000 mm 0,0 UV-I 11 W/m 3,3 C 0,4 C 30,6 km/h (5 Bft) 96,30 %
18.01.2018 16:34 8,2 C 3,3 C 71 % 1000,5 hPa 0,0 l/m 21,6 km/h (4 Bft) SW 227 0 min 0,000 mm 0,0 UV-I 11 W/m 3,3 C 0,4 C 32,2 km/h (5 Bft) 100,00 %
18.01.2018 16:35 8,2 C 3,9 C 71 % 1000,5 hPa 0,0 l/m 25,6 km/h (4 Bft) SW 217 0 min 0,000 mm 0,0 UV-I 11 W/m 3,3 C -0,8 C 37,0 km/h (5 Bft) 100,00 %
18.01.2018 16:36 8,2 C 3,9 C 70 % 1000,5 hPa 0,0 l/m 24,2 km/h (4 Bft) SW 227 0 min 0,000 mm 0,0 UV-I 11 W/m 3,1 C -0,4 C 32,2 km/h (5 Bft) 100,00 %
18.01.2018 16:37 8,2 C 3,3 C 70 % 1000,5 hPa 0,0 l/m 24,0 km/h (4 Bft) W-SW 239 0 min 0,000 mm 0,0 UV-I 10 W/m 3,1 C -0,3 C 33,8 km/h (5 Bft) 100,00 %
18.01.2018 16:38 8,2 C 3,3 C 70 % 1000,4 hPa 0,0 l/m 25,7 km/h (4 Bft) W-SW 248 0 min 0,000 mm 0,0 UV-I 9 W/m 3,1 C -0,8 C 35,4 km/h (5 Bft) 100,00 %
18.01.2018 16:39 8,2 C 3,9 C 70 % 1000,4 hPa 0,0 l/m 21,3 km/h (4 Bft) SW 221 0 min 0,000 mm 0,0 UV-I 9 W/m 3,1 C 0,5 C 29,0 km/h (5 Bft) 100,00 %
18.01.2018 16:40 8,2 C 3,9 C 70 % 1000,3 hPa 0,0 l/m 21,0 km/h (4 Bft) W-SW 238 0 min 0,000 mm 0,0 UV-I 9 W/m 3,1 C 0,6 C 30,6 km/h (5 Bft) 100,00 %
18.01.2018 16:41 8,2 C 3,3 C 70 % 1000,4 hPa 0,0 l/m 19,2 km/h (3 Bft) SW 221 0 min 0,000 mm 0,0 UV-I 9 W/m 3,1 C 1,2 C 24,1 km/h (4 Bft) 100,00 %
18.01.2018 16:43 8,2 C 3,3 C 70 % 1000,4 hPa 0,0 l/m 21,6 km/h (4 Bft) SW 215 0 min 0,000 mm 0,0 UV-I 9 W/m 3,1 C 0,4 C 33,8 km/h (5 Bft) 100,00 %
18.01.2018 16:44 8,2 C 3,3 C 70 % 1000,4 hPa 0,0 l/m 22,9 km/h (4 Bft) SW 220 0 min 0,000 mm 0,0 UV-I 7 W/m 3,1 C 0,0 C 32,2 km/h (5 Bft) 100,00 %
18.01.2018 16:45 8,2 C 3,3 C 70 % 1000,4 hPa 0,0 l/m 18,9 km/h (3 Bft) SW 234 0 min 0,000 mm 0,0 UV-I 7 W/m 3,1 C 1,4 C 25,7 km/h (4 Bft) 100,00 %
18.01.2018 16:46 8,2 C 3,9 C 70 % 1000,3 hPa 0,0 l/m 18,6 km/h (3 Bft) SW 218 0 min 0,000 mm 0,0 UV-I 7 W/m 3,1 C 1,5 C 30,6 km/h (5 Bft) 100,00 %
18.01.2018 16:47 8,2 C 3,9 C 70 % 1000,3 hPa 0,0 l/m 21,3 km/h (4 Bft) S-SW 213 0 min 0,000 mm 0,0 UV-I 7 W/m 3,1 C 0,5 C 29,0 km/h (5 Bft) 100,00 %
18.01.2018 16:48 8,2 C 3,3 C 70 % 1000,3 hPa 0,0 l/m 22,9 km/h (4 Bft) S-SW 197 0 min 0,000 mm 0,0 UV-I 7 W/m 3,1 C 0,0 C 30,6 km/h (5 Bft) 100,00 %
18.01.2018 16:49 8,2 C 3,3 C 70 % 1000,3 hPa 0,0 l/m 21,8 km/h (4 Bft) SW 232 0 min 0,000 mm 0,0 UV-I 6 W/m 3,1 C 0,4 C 29,0 km/h (5 Bft) 97,89 %
18.01.2018 16:50 8,2 C 3,3 C 70 % 1000,3 hPa 0,0 l/m 16,6 km/h (3 Bft) SW 232 0 min 0,000 mm 0,0 UV-I 5 W/m 3,1 C 2,3 C 22,5 km/h (4 Bft) 97,37 %
18.01.2018 16:51 8,2 C 3,3 C 70 % 1000,3 hPa 0,0 l/m 15,8 km/h (3 Bft) W-SW 246 0 min 0,000 mm 0,0 UV-I 5 W/m 3,1 C 2,6 C 22,5 km/h (4 Bft) 100,00 %
18.01.2018 16:52 8,1 C 3,9 C 70 % 1000,2 hPa 0,0 l/m 22,4 km/h (4 Bft) W-SW 238 0 min 0,000 mm 0,0 UV-I 5 W/m 3,0 C 0,0 C 29,0 km/h (5 Bft) 100,00 %
18.01.2018 16:53 8,1 C 3,9 C 71 % 1000,3 hPa 0,0 l/m 19,6 km/h (3 Bft) SW 226 0 min 0,000 mm 0,0 UV-I 5 W/m 3,2 C 1,0 C 25,7 km/h (4 Bft) 100,00 %
18.01.2018 16:54 8,1 C 3,9 C 71 % 1000,3 hPa 0,0 l/m 21,3 km/h (4 Bft) SW 234 0 min 0,000 mm 0,0 UV-I 5 W/m 3,2 C 0,4 C 29,0 km/h (5 Bft) 100,00 %
18.01.2018 16:55 8,1 C 3,3 C 71 % 1000,2 hPa 0,0 l/m 17,4 km/h (3 Bft) W-SW 243 0 min 0,000 mm 0,0 UV-I 5 W/m 3,2 C 1,8 C 24,1 km/h (4 Bft) 100,00 %
18.01.2018 16:56 8,1 C 3,3 C 71 % 1000,3 hPa 0,0 l/m 19,2 km/h (3 Bft) SW 236 0 min 0,000 mm 0,0 UV-I 5 W/m 3,2 C 1,1 C 25,7 km/h (4 Bft) 100,00 %
18.01.2018 16:57 8,1 C 3,3 C 71 % 1000,3 hPa 0,0 l/m 17,1 km/h (3 Bft) W-SW 244 0 min 0,000 mm 0,0 UV-I 1 W/m 3,2 C 1,9 C 22,5 km/h (4 Bft) 100,00 %
18.01.2018 16:58 8,1 C 3,3 C 71 % 1000,2 hPa 0,0 l/m 16,8 km/h (3 Bft) W-SW 241 0 min 0,000 mm 0,0 UV-I 0 W/m 3,2 C 2,1 C 22,5 km/h (4 Bft) 100,00 %
18.01.2018 16:59 8,1 C 3,3 C 71 % 1000,2 hPa 0,0 l/m 18,5 km/h (3 Bft) SW 222 0 min 0,000 mm 0,0 UV-I 0 W/m 3,2 C 1,4 C 24,1 km/h (4 Bft) 100,00 %
18.01.2018 17:00 8,1 C 3,3 C 71 % 1000,2 hPa 0,0 l/m 19,8 km/h (3 Bft) W-SW 243 0 min 0,000 mm 0,0 UV-I 0 W/m 3,2 C 0,9 C 27,4 km/h (4 Bft) 100,00 %
18.01.2018 17:01 8,1 C 3,9 C 70 % 1000,2 hPa 0,0 l/m 17,2 km/h (3 Bft) SW 234 0 min 0,076 mm 0,0 UV-I 0 W/m 3,0 C 1,9 C 24,1 km/h (4 Bft) 100,00 %
18.01.2018 17:02 8,1 C 3,9 C 70 % 1000,2 hPa 0,0 l/m 13,4 km/h (3 Bft) W-SW 254 0 min 0,000 mm 0,0 UV-I 0 W/m 3,0 C 3,6 C 20,9 km/h (4 Bft) 92,31 %
18.01.2018 17:03 8,2 C 3,3 C 70 % 1000,2 hPa 0,0 l/m 18,3 km/h (3 Bft) W-SW 243 0 min 0,000 mm 0,0 UV-I 0 W/m 3,1 C 1,6 C 25,7 km/h (4 Bft) 95,83 %
18.01.2018 17:04 8,2 C 3,3 C 70 % 1000,2 hPa 0,0 l/m 20,2 km/h (4 Bft) SW 227 0 min 0,000 mm 0,0 UV-I 0 W/m 3,1 C 0,9 C 25,7 km/h (4 Bft) 100,00 %
18.01.2018 17:05 8,2 C 3,3 C 70 % 1000,0 hPa 0,0 l/m 18,9 km/h (3 Bft) SW 221 0 min 0,000 mm 0,0 UV-I 0 W/m 3,1 C 1,4 C 27,4 km/h (4 Bft) 100,00 %
18.01.2018 17:06 8,2 C 3,3 C 70 % 1000,0 hPa 0,0 l/m 16,7 km/h (3 Bft) W 265 0 min 0,000 mm 0,0 UV-I 0 W/m 3,1 C 2,2 C 24,1 km/h (4 Bft) 95,65 %
18.01.2018 17:07 8,2 C 3,3 C 70 % 999,9 hPa 0,0 l/m 18,6 km/h (3 Bft) SW 218 0 min 0,000 mm 0,0 UV-I 0 W/m 3,1 C 1,5 C 29,0 km/h (5 Bft) 95,83 %
18.01.2018 17:08 8,2 C 3,9 C 70 % 999,9 hPa 0,0 l/m 23,4 km/h (4 Bft) SW 225 0 min 0,000 mm 0,0 UV-I 0 W/m 3,1 C -0,1 C 37,0 km/h (5 Bft) 97,91 %
18.01.2018 17:09 8,3 C 3,9 C 69 % 999,8 hPa 0,0 l/m 25,7 km/h (4 Bft) SW 233 0 min 0,000 mm 0,0 UV-I 0 W/m 3,0 C -0,7 C 37,0 km/h (5 Bft) 97,37 %
18.01.2018 17:10 8,3 C 3,9 C 69 % 999,8 hPa 0,0 l/m 26,3 km/h (4 Bft) SW 229 0 min 0,000 mm 0,0 UV-I 0 W/m 3,0 C -0,8 C 33,8 km/h (5 Bft) 100,00 %
18.01.2018 17:11 8,4 C 3,9 C 69 % 999,8 hPa 0,0 l/m 26,3 km/h (4 Bft) W-SW 241 0 min 0,000 mm 0,0 UV-I 0 W/m 3,0 C -0,7 C 35,4 km/h (5 Bft) 95,83 %
18.01.2018 17:12 8,4 C 3,9 C 69 % 999,8 hPa 0,0 l/m 24,2 km/h (4 Bft) SW 219 0 min 0,000 mm 0,0 UV-I 0 W/m 3,0 C -0,1 C 29,0 km/h (5 Bft) 96,15 %
18.01.2018 17:13 8,4 C 3,9 C 69 % 999,7 hPa 0,0 l/m 25,6 km/h (4 Bft) W-SW 242 0 min 0,000 mm 0,0 UV-I 0 W/m 3,0 C -0,5 C 33,8 km/h (5 Bft) 96,30 %
18.01.2018 17:14 8,4 C 3,9 C 69 % 999,8 hPa 0,0 l/m 22,1 km/h (4 Bft) SW 222 0 min 0,000 mm 0,0 UV-I 0 W/m 3,0 C 0,5 C 29,0 km/h (5 Bft) 100,00 %
18.01.2018 17:15 8,6 C 3,3 C 69 % 999,9 hPa 0,0 l/m 26,5 km/h (4 Bft) SW 223 0 min 0,000 mm 0,0 UV-I 0 W/m 3,2 C -0,5 C 40,2 km/h (6 Bft) 93,10 %
18.01.2018 17:16 8,6 C 3,9 C 68 % 999,8 hPa 0,0 l/m 25,8 km/h (4 Bft) S-SW 213 0 min 0,000 mm 0,0 UV-I 0 W/m 3,0 C -0,3 C 35,4 km/h (5 Bft) 100,00 %
18.01.2018 17:17 8,7 C 3,9 C 68 % 999,7 hPa 0,0 l/m 26,6 km/h (4 Bft) W-SW 250 0 min 0,000 mm 0,0 UV-I 0 W/m 3,1 C -0,4 C 37,0 km/h (5 Bft) 96,15 %
18.01.2018 17:18 8,7 C 3,3 C 68 % 999,7 hPa 0,0 l/m 30,6 km/h (5 Bft) W-SW 241 0 min 0,000 mm 0,0 UV-I 0 W/m 3,1 C -1,3 C 41,8 km/h (6 Bft) 100,00 %
18.01.2018 17:19 8,8 C 3,3 C 67 % 999,7 hPa 0,0 l/m 27,8 km/h (4 Bft) W 271 0 min 0,000 mm 0,0 UV-I 0 W/m 3,0 C -0,5 C 45,1 km/h (6 Bft) 95,65 %
18.01.2018 17:20 8,9 C 3,3 C 67 % 999,7 hPa 0,0 l/m 30,2 km/h (5 Bft) W-SW 238 0 min 0,000 mm 0,0 UV-I 0 W/m 3,1 C -0,9 C 45,1 km/h (6 Bft) 95,83 %
18.01.2018 17:21 8,9 C 3,3 C 67 % 999,8 hPa 0,0 l/m 32,0 km/h (5 Bft) SW 223 0 min 0,000 mm 0,0 UV-I 0 W/m 3,1 C -1,3 C 46,7 km/h (6 Bft) 100,00 %
18.01.2018 17:22 9,1 C 3,3 C 67 % 999,8 hPa 0,0 l/m 33,9 km/h (5 Bft) SW 223 0 min 0,000 mm 0,0 UV-I 0 W/m 3,3 C -1,4 C 48,3 km/h (6 Bft) 83,33 %
18.01.2018 17:23 9,1 C 3,3 C 66 % 999,8 hPa 0,0 l/m 24,7 km/h (4 Bft) W-NW 297 0 min 0,000 mm 0,0 UV-I 0 W/m 3,1 C 0,7 C 32,2 km/h (5 Bft) 100,00 %
18.01.2018 17:24 9,1 C 3,3 C 66 % 999,8 hPa 0,0 l/m 25,4 km/h (4 Bft) SW 216 0 min 0,000 mm 0,0 UV-I 0 W/m 3,1 C 0,5 C 37,0 km/h (5 Bft) 96,30 %
18.01.2018 17:25 9,1 C 3,3 C 66 % 999,8 hPa 0,0 l/m 32,8 km/h (5 Bft) S-SW 209 0 min 0,000 mm 0,0 UV-I 0 W/m 3,1 C -1,2 C 41,8 km/h (6 Bft) 96,55 %
18.01.2018 17:26 9,1 C 3,3 C 66 % 999,9 hPa 0,0 l/m 22,5 km/h (4 Bft) W 259 0 min 0,000 mm 0,0 UV-I 0 W/m 3,1 C 1,3 C 32,2 km/h (5 Bft) 91,67 %
18.01.2018 17:27 9,1 C 3,3 C 67 % 999,8 hPa 0,0 l/m 23,5 km/h (4 Bft) W-SW 249 0 min 0,000 mm 0,0 UV-I 0 W/m 3,3 C 1,0 C 29,0 km/h (5 Bft) 96,88 %
18.01.2018 17:28 9,1 C 3,3 C 66 % 999,9 hPa 0,0 l/m 24,9 km/h (4 Bft) SW 228 0 min 0,000 mm 0,0 UV-I 0 W/m 3,1 C 0,6 C 37,0 km/h (5 Bft) 100,00 %
18.01.2018 17:29 9,1 C 3,3 C 66 % 999,8 hPa 0,0 l/m 30,1 km/h (5 Bft) SW 234 0 min 0,000 mm 0,0 UV-I 0 W/m 3,1 C -0,6 C 49,9 km/h (6 Bft) 95,65 %
18.01.2018 17:30 9,2 C 3,9 C 66 % 999,9 hPa 0,0 l/m 27,9 km/h (4 Bft) W-SW 253 0 min 0,000 mm 0,0 UV-I 0 W/m 3,2 C 0,0 C 46,7 km/h (6 Bft) 100,00 %
18.01.2018 17:31 9,2 C 3,9 C 66 % 999,9 hPa 0,0 l/m 29,9 km/h (5 Bft) SW 220 0 min 0,000 mm 0,0 UV-I 0 W/m 3,2 C -0,4 C 43,5 km/h (6 Bft) 96,55 %
18.01.2018 17:32 9,2 C 3,9 C 65 % 999,9 hPa 0,0 l/m 27,5 km/h (4 Bft) SW 225 0 min 0,000 mm 0,0 UV-I 0 W/m 3,0 C 0,1 C 37,0 km/h (5 Bft) 100,00 %
18.01.2018 17:33 9,2 C 3,9 C 65 % 999,9 hPa 0,0 l/m 21,7 km/h (4 Bft) W-SW 250 0 min 0,000 mm 0,0 UV-I 0 W/m 3,0 C 1,7 C 29,0 km/h (5 Bft) 88,46 %
18.01.2018 17:34 9,2 C 3,9 C 65 % 999,9 hPa 0,0 l/m 27,4 km/h (4 Bft) W-SW 252 0 min 0,000 mm 0,0 UV-I 0 W/m 3,0 C 0,1 C 38,6 km/h (5 Bft) 100,00 %
18.01.2018 17:35 9,2 C 3,9 C 66 % 999,9 hPa 0,0 l/m 26,9 km/h (4 Bft) W-SW 257 0 min 0,000 mm 0,0 UV-I 0 W/m 3,2 C 0,3 C 46,7 km/h (6 Bft) 95,83 %
18.01.2018 17:36 9,2 C 3,9 C 66 % 999,9 hPa 0,0 l/m 24,5 km/h (4 Bft) SW 217 0 min 0,000 mm 0,0 UV-I 0 W/m 3,2 C 0,9 C 38,6 km/h (5 Bft) 95,65 %
18.01.2018 17:37 9,2 C 3,9 C 66 % 999,9 hPa 0,0 l/m 25,1 km/h (4 Bft) W-SW 246 0 min 0,000 mm 0,0 UV-I 0 W/m 3,2 C 0,7 C 41,8 km/h (6 Bft) 100,00 %
18.01.2018 17:38 9,2 C 3,9 C 66 % 999,9 hPa 0,0 l/m 30,7 km/h (5 Bft) W 265 0 min 0,000 mm 0,0 UV-I 0 W/m 3,2 C -0,6 C 51,5 km/h (7 Bft) 92,31 %
18.01.2018 17:39 9,2 C 3,9 C 65 % 999,9 hPa 0,0 l/m 31,2 km/h (5 Bft) SW 234 0 min 0,000 mm 0,0 UV-I 0 W/m 3,0 C -0,7 C 45,1 km/h (6 Bft) 100,00 %
18.01.2018 17:40 9,2 C 3,9 C 65 % 999,9 hPa 0,0 l/m 27,8 km/h (4 Bft) W-SW 237 0 min 0,000 mm 0,0 UV-I 0 W/m 3,0 C 0,0 C 37,0 km/h (5 Bft) 95,65 %
18.01.2018 17:41 9,3 C 3,9 C 65 % 999,9 hPa 0,0 l/m 28,0 km/h (4 Bft) W-SW 243 0 min 0,000 mm 0,0 UV-I 0 W/m 3,1 C 0,1 C 40,2 km/h (6 Bft) 100,00 %
18.01.2018 17:42 9,3 C 3,9 C 65 % 999,9 hPa 0,0 l/m 34,2 km/h (5 Bft) W 267 0 min 0,000 mm 0,0 UV-I 0 W/m 3,1 C -1,2 C 46,7 km/h (6 Bft) 95,65 %
18.01.2018 17:43 9,4 C 3,9 C 64 % 1000,0 hPa 0,0 l/m 29,2 km/h (5 Bft) W-SW 237 0 min 0,000 mm 0,0 UV-I 0 W/m 2,9 C -0,0 C 40,2 km/h (6 Bft) 100,00 %
18.01.2018 17:44 9,4 C 3,9 C 65 % 1000,0 hPa 0,0 l/m 28,5 km/h (4 Bft) SW 232 0 min 0,000 mm 0,0 UV-I 0 W/m 3,2 C 0,1 C 38,6 km/h (5 Bft) 96,15 %
18.01.2018 17:45 9,4 C 3,3 C 64 % 1000,1 hPa 0,2 l/m 28,4 km/h (4 Bft) W-SW 238 0 min 0,000 mm 0,0 UV-I 0 W/m 2,9 C 0,2 C 37,0 km/h (5 Bft) 95,83 %
18.01.2018 17:46 9,4 C 3,3 C 64 % 1000,0 hPa 0,0 l/m 26,4 km/h (4 Bft) W-SW 238 0 min 0,000 mm 0,0 UV-I 0 W/m 2,9 C 0,7 C 32,2 km/h (5 Bft) 100,00 %
18.01.2018 17:47 9,4 C 3,3 C 65 % 1000,1 hPa 0,0 l/m 31,9 km/h (5 Bft) W-SW 255 0 min 0,000 mm 0,0 UV-I 0 W/m 3,2 C -0,6 C 41,8 km/h (6 Bft) 100,00 %
18.01.2018 17:48 9,3 C 3,3 C 65 % 1000,1 hPa 0,0 l/m 25,7 km/h (4 Bft) W 259 0 min 0,000 mm 0,0 UV-I 0 W/m 3,1 C 0,7 C 35,4 km/h (5 Bft) 100,00 %
18.01.2018 17:49 9,3 C 3,3 C 65 % 1000,1 hPa 0,0 l/m 28,1 km/h (4 Bft) W-SW 257 0 min 0,000 mm 0,0 UV-I 0 W/m 3,1 C 0,1 C 41,8 km/h (6 Bft) 95,83 %
18.01.2018 17:50 9,3 C 3,3 C 65 % 1000,0 hPa 0,0 l/m 28,1 km/h (4 Bft) W-SW 257 0 min 0,000 mm 0,0 UV-I 0 W/m 3,1 C 0,1 C 37,0 km/h (5 Bft) 100,00 %
18.01.2018 17:51 9,3 C 3,3 C 65 % 999,9 hPa 0,0 l/m 29,0 km/h (5 Bft) W-SW 242 0 min 0,000 mm 0,0 UV-I 0 W/m 3,1 C -0,1 C 40,2 km/h (6 Bft) 100,00 %
18.01.2018 17:52 9,3 C 3,3 C 65 % 1000,0 hPa 0,0 l/m 27,5 km/h (4 Bft) SW 219 0 min 0,000 mm 0,0 UV-I 0 W/m 3,1 C 0,2 C 41,8 km/h (6 Bft) 100,00 %
18.01.2018 17:53 9,3 C 3,3 C 65 % 1000,0 hPa 0,0 l/m 30,4 km/h (5 Bft) SW 227 0 min 0,000 mm 0,0 UV-I 0 W/m 3,1 C -0,4 C 38,6 km/h (5 Bft) 100,00 %
18.01.2018 17:54 9,3 C 3,3 C 66 % 1000,1 hPa 0,0 l/m 27,4 km/h (4 Bft) SW 234 0 min 0,000 mm 0,0 UV-I 0 W/m 3,3 C 0,3 C 35,4 km/h (5 Bft) 100,00 %
18.01.2018 17:55 9,3 C 3,3 C 66 % 1000,0 hPa 0,0 l/m 25,1 km/h (4 Bft) S-SW 211 0 min 0,000 mm 0,0 UV-I 0 W/m 3,3 C 0,9 C 38,6 km/h (5 Bft) 100,00 %
18.01.2018 17:56 9,3 C 3,9 C 65 % 999,9 hPa 0,0 l/m 27,5 km/h (4 Bft) W-SW 248 0 min 0,000 mm 0,0 UV-I 0 W/m 3,1 C 0,2 C 37,0 km/h (5 Bft) 100,00 %
18.01.2018 17:57 9,3 C 3,9 C 66 % 1000,1 hPa 0,0 l/m 30,2 km/h (5 Bft) SW 233 0 min 0,000 mm 0,0 UV-I 0 W/m 3,3 C -0,4 C 49,9 km/h (6 Bft) 100,00 %
18.01.2018 17:58 9,4 C 3,9 C 65 % 1000,1 hPa 0,0 l/m 29,4 km/h (5 Bft) SW 218 0 min 0,000 mm 0,0 UV-I 0 W/m 3,2 C -0,1 C 37,0 km/h (5 Bft) 90,91 %
18.01.2018 17:59 9,4 C 3,9 C 65 % 1000,1 hPa 0,0 l/m 25,9 km/h (4 Bft) S-SW 210 0 min 0,000 mm 0,0 UV-I 0 W/m 3,2 C 0,8 C 38,6 km/h (5 Bft) 100,00 %
18.01.2018 18:00 9,4 C 3,9 C 65 % 1000,0 hPa 0,0 l/m 22,9 km/h (4 Bft) W-SW 239 0 min 0,000 mm 0,0 UV-I 0 W/m 3,2 C 1,6 C 32,2 km/h (5 Bft) 100,00 %
18.01.2018 18:01 9,4 C 3,9 C 66 % 1000,1 hPa 0,0 l/m 28,0 km/h (4 Bft) W-SW 251 0 min 0,102 mm 0,0 UV-I 0 W/m 3,4 C 0,3 C 43,5 km/h (6 Bft) 100,00 %
18.01.2018 18:02 9,4 C 3,3 C 66 % 1000,1 hPa 0,0 l/m 33,2 km/h (5 Bft) W-SW 239 0 min 0,000 mm 0,0 UV-I 0 W/m 3,4 C -0,8 C 48,3 km/h (6 Bft) 96,67 %
18.01.2018 18:03 9,4 C 3,3 C 65 % 1000,1 hPa 0,0 l/m 34,2 km/h (5 Bft) SW 231 0 min 0,000 mm 0,0 UV-I 0 W/m 3,2 C -1,0 C 54,7 km/h (7 Bft) 100,00 %
18.01.2018 18:04 9,6 C 3,9 C 65 % 1000,1 hPa 0,0 l/m 37,6 km/h (5 Bft) SW 214 0 min 0,000 mm 0,0 UV-I 0 W/m 3,4 C -1,3 C 48,3 km/h (6 Bft) 100,00 %
18.01.2018 18:05 9,6 C 3,9 C 65 % 1000,0 hPa 0,0 l/m 31,4 km/h (5 Bft) W 261 0 min 0,000 mm 0,0 UV-I 0 W/m 3,4 C -0,2 C 43,5 km/h (6 Bft) 100,00 %
18.01.2018 18:06 9,6 C 3,9 C 65 % 1000,1 hPa 0,0 l/m 26,6 km/h (4 Bft) SW 224 0 min 0,000 mm 0,0 UV-I 0 W/m 3,4 C 0,9 C 40,2 km/h (6 Bft) 100,00 %
18.01.2018 18:07 9,7 C 3,9 C 65 % 1000,1 hPa 0,0 l/m 29,6 km/h (5 Bft) W-SW 251 0 min 0,000 mm 0,0 UV-I 0 W/m 3,4 C 0,3 C 41,8 km/h (6 Bft) 100,00 %
18.01.2018 18:08 9,7 C 3,9 C 65 % 1000,2 hPa 0,0 l/m 23,0 km/h (4 Bft) SW 217 0 min 0,000 mm 0,0 UV-I 0 W/m 3,4 C 2,0 C 32,2 km/h (5 Bft) 100,00 %
18.01.2018 18:09 9,7 C 3,9 C 65 % 1000,1 hPa 0,0 l/m 32,5 km/h (5 Bft) W 261 0 min 0,000 mm 0,0 UV-I 0 W/m 3,4 C -0,3 C 49,9 km/h (6 Bft) 100,00 %
18.01.2018 18:10 9,8 C 3,9 C 65 % 1000,1 hPa 0,0 l/m 34,3 km/h (5 Bft) W 259 0 min 0,000 mm 0,0 UV-I 0 W/m 3,5 C -0,5 C 56,3 km/h (7 Bft) 100,00 %
18.01.2018 18:11 9,8 C 3,9 C 65 % 1000,1 hPa 0,0 l/m 27,3 km/h (4 Bft) W-SW 254 0 min 0,000 mm 0,0 UV-I 0 W/m 3,5 C 1,0 C 33,8 km/h (5 Bft) 100,00 %
18.01.2018 18:12 9,8 C 3,9 C 65 % 1000,1 hPa 0,0 l/m 31,7 km/h (5 Bft) SW 223 0 min 0,000 mm 0,0 UV-I 0 W/m 3,5 C 0,0 C 41,8 km/h (6 Bft) 100,00 %
18.01.2018 18:13 9,9 C 3,9 C 65 % 1000,2 hPa 0,0 l/m 28,5 km/h (4 Bft) W-SW 254 0 min 0,000 mm 0,0 UV-I 0 W/m 3,6 C 0,8 C 37,0 km/h (5 Bft) 100,00 %
18.01.2018 18:14 9,9 C 3,9 C 64 % 1000,0 hPa 0,0 l/m 36,6 km/h (5 Bft) W 263 0 min 0,000 mm 0,0 UV-I 0 W/m 3,4 C -0,7 C 51,5 km/h (7 Bft) 100,00 %
18.01.2018 18:15 10,1 C 3,9 C 64 % 1000,1 hPa 0,0 l/m 29,6 km/h (5 Bft) SW 236 0 min 0,000 mm 0,0 UV-I 0 W/m 3,6 C 0,9 C 41,8 km/h (6 Bft) 95,83 %
18.01.2018 18:16 10,1 C 3,9 C 65 % 1000,1 hPa 0,0 l/m 28,1 km/h (4 Bft) SW 214 0 min 0,000 mm 0,0 UV-I 0 W/m 3,8 C 1,2 C 40,2 km/h (6 Bft) 100,00 %
18.01.2018 18:17 10,1 C 3,3 C 64 % 1000,0 hPa 0,0 l/m 33,0 km/h (5 Bft) W-SW 245 0 min 0,000 mm 0,0 UV-I 0 W/m 3,6 C 0,2 C 43,5 km/h (6 Bft) 100,00 %
18.01.2018 18:18 10,1 C 3,3 C 64 % 1000,2 hPa 0,0 l/m 29,7 km/h (5 Bft) W 275 0 min 0,000 mm 0,0 UV-I 0 W/m 3,6 C 0,9 C 43,5 km/h (6 Bft) 100,00 %
18.01.2018 18:19 10,2 C 3,9 C 64 % 1000,0 hPa 0,0 l/m 29,1 km/h (5 Bft) W-NW 284 0 min 0,000 mm 0,0 UV-I 0 W/m 3,7 C 1,1 C 37,0 km/h (5 Bft) 100,00 %
18.01.2018 18:20 10,2 C 3,9 C 64 % 1000,1 hPa 0,0 l/m 24,7 km/h (4 Bft) S-SW 203 0 min 0,000 mm 0,0 UV-I 0 W/m 3,7 C 2,2 C 48,3 km/h (6 Bft) 100,00 %
18.01.2018 18:21 10,2 C 3,9 C 64 % 1000,1 hPa 0,0 l/m 24,3 km/h (4 Bft) W 259 0 min 0,000 mm 0,0 UV-I 0 W/m 3,7 C 2,3 C 35,4 km/h (5 Bft) 100,00 %
18.01.2018 18:22 10,2 C 3,9 C 64 % 1000,3 hPa 0,0 l/m 30,8 km/h (5 Bft) W-SW 254 0 min 0,000 mm 0,0 UV-I 0 W/m 3,7 C 0,8 C 45,1 km/h (6 Bft) 100,00 %
18.01.2018 18:23 10,2 C 3,9 C 64 % 1000,2 hPa 0,0 l/m 21,3 km/h (4 Bft) W-SW 242 0 min 0,000 mm 0,0 UV-I 0 W/m 3,7 C 3,1 C 33,8 km/h (5 Bft) 100,00 %
18.01.2018 18:24 10,2 C 3,9 C 64 % 1000,1 hPa 0,0 l/m 24,5 km/h (4 Bft) W 271 0 min 0,000 mm 0,0 UV-I 0 W/m 3,7 C 2,2 C 32,2 km/h (5 Bft) 95,65 %
18.01.2018 18:25 10,2 C 3,9 C 64 % 1000,1 hPa 0,0 l/m 20,9 km/h (4 Bft) W 260 0 min 0,000 mm 0,0 UV-I 0 W/m 3,7 C 3,3 C 29,0 km/h (5 Bft) 100,00 %
18.01.2018 18:26 10,1 C 3,9 C 65 % 1000,1 hPa 0,0 l/m 26,2 km/h (4 Bft) W-SW 257 0 min 0,000 mm 0,0 UV-I 0 W/m 3,8 C 1,7 C 37,0 km/h (5 Bft) 100,00 %
18.01.2018 18:27 10,1 C 3,9 C 65 % 1000,1 hPa 0,0 l/m 26,7 km/h (4 Bft) W-SW 250 0 min 0,000 mm 0,0 UV-I 0 W/m 3,8 C 1,5 C 37,0 km/h (5 Bft) 100,00 %
18.01.2018 18:28 10,1 C 3,3 C 65 % 1000,2 hPa 0,0 l/m 29,5 km/h (5 Bft) W-SW 237 0 min 0,000 mm 0,0 UV-I 0 W/m 3,8 C 0,9 C 40,2 km/h (6 Bft) 100,00 %
18.01.2018 18:29 10,1 C 3,3 C 65 % 1000,1 hPa 0,0 l/m 31,8 km/h (5 Bft) SW 234 0 min 0,000 mm 0,0 UV-I 0 W/m 3,8 C 0,4 C 49,9 km/h (6 Bft) 95,12 %
18.01.2018 18:30 10,1 C 3,3 C 65 % 999,8 hPa 0,0 l/m 26,9 km/h (4 Bft) W-SW 252 0 min 0,000 mm 0,0 UV-I 0 W/m 3,8 C 1,5 C 56,3 km/h (7 Bft) 100,00 %
18.01.2018 18:31 10,1 C 3,3 C 65 % 1000,2 hPa 0,0 l/m 23,0 km/h (4 Bft) W-SW 247 0 min 0,000 mm 0,0 UV-I 0 W/m 3,8 C 2,5 C 29,0 km/h (5 Bft) 100,00 %
18.01.2018 18:32 10,1 C 3,3 C 65 % 1000,0 hPa 0,0 l/m 29,0 km/h (5 Bft) SW 221 0 min 0,000 mm 0,0 UV-I 0 W/m 3,8 C 1,0 C 38,6 km/h (5 Bft) 100,00 %
18.01.2018 18:33 10,1 C 3,3 C 65 % 1000,0 hPa 0,0 l/m 24,1 km/h (4 Bft) W-SW 252 0 min 0,000 mm 0,0 UV-I 0 W/m 3,8 C 2,2 C 29,0 km/h (5 Bft) 100,00 %
18.01.2018 18:34 10,1 C 3,3 C 65 % 999,8 hPa 0,0 l/m 27,1 km/h (4 Bft) W 259 0 min 0,000 mm 0,0 UV-I 0 W/m 3,8 C 1,4 C 33,8 km/h (5 Bft) 96,97 %
18.01.2018 18:35 10,1 C 3,9 C 65 % 1000,0 hPa 0,0 l/m 32,1 km/h (5 Bft) W-SW 257 0 min 0,000 mm 0,0 UV-I 0 W/m 3,8 C 0,4 C 43,5 km/h (6 Bft) 100,00 %
18.01.2018 18:36 10,1 C 3,9 C 65 % 1000,0 hPa 0,0 l/m 30,2 km/h (5 Bft) W-SW 240 0 min 0,000 mm 0,0 UV-I 0 W/m 3,8 C 0,8 C 46,7 km/h (6 Bft) 96,97 %
18.01.2018 18:37 10,1 C 3,9 C 65 % 1000,0 hPa 0,0 l/m 33,2 km/h (5 Bft) W 264 0 min 0,000 mm 0,0 UV-I 0 W/m 3,8 C 0,2 C 43,5 km/h (6 Bft) 100,00 %
18.01.2018 18:38 10,1 C 3,9 C 66 % 1000,0 hPa 0,0 l/m 28,6 km/h (4 Bft) W 280 0 min 0,000 mm 0,0 UV-I 0 W/m 4,0 C 1,1 C 33,8 km/h (5 Bft) 97,94 %
18.01.2018 18:39 10,0 C 3,9 C 66 % 1000,1 hPa 0,0 l/m 36,7 km/h (5 Bft) W-SW 254 0 min 0,000 mm 0,0 UV-I 0 W/m 3,9 C -0,6 C 48,3 km/h (6 Bft) 97,87 %
18.01.2018 18:40 10,0 C 3,9 C 66 % 1000,1 hPa 0,0 l/m 27,3 km/h (4 Bft) W 273 0 min 0,000 mm 0,0 UV-I 0 W/m 3,9 C 1,3 C 38,6 km/h (5 Bft) 100,00 %
18.01.2018 18:41 10,0 C 3,9 C 66 % 1000,1 hPa 0,0 l/m 25,1 km/h (4 Bft) W-SW 238 0 min 0,000 mm 0,0 UV-I 0 W/m 3,9 C 1,8 C 33,8 km/h (5 Bft) 100,00 %
18.01.2018 18:42 10,0 C 3,9 C 67 % 1000,2 hPa 0,0 l/m 32,3 km/h (5 Bft) SW 215 0 min 0,000 mm 0,0 UV-I 0 W/m 4,2 C 0,2 C 43,5 km/h (6 Bft) 100,00 %
18.01.2018 18:43 10,0 C 3,9 C 66 % 1000,2 hPa 0,0 l/m 28,6 km/h (4 Bft) W 271 0 min 0,000 mm 0,0 UV-I 0 W/m 3,9 C 1,0 C 40,2 km/h (6 Bft) 100,00 %
18.01.2018 18:44 9,9 C 3,3 C 67 % 1000,1 hPa 0,0 l/m 22,7 km/h (4 Bft) W-SW 252 0 min 0,000 mm 0,0 UV-I 0 W/m 4,1 C 2,3 C 33,8 km/h (5 Bft) 100,00 %
18.01.2018 18:45 9,9 C 3,3 C 67 % 1000,2 hPa 0,0 l/m 26,4 km/h (4 Bft) W-SW 240 0 min 0,000 mm 0,0 UV-I 0 W/m 4,1 C 1,3 C 35,4 km/h (5 Bft) 100,00 %
18.01.2018 18:46 9,9 C 3,3 C 68 % 1000,2 hPa 0,0 l/m 26,0 km/h (4 Bft) W 259 0 min 0,000 mm 0,0 UV-I 0 W/m 4,3 C 1,4 C 33,8 km/h (5 Bft) 91,30 %
18.01.2018 18:47 9,8 C 3,3 C 68 % 1000,2 hPa 0,0 l/m 23,9 km/h (4 Bft) W 270 0 min 0,000 mm 0,0 UV-I 0 W/m 4,2 C 1,9 C 40,2 km/h (6 Bft) 100,00 %
18.01.2018 18:48 9,7 C 3,9 C 69 % 1000,3 hPa 0,0 l/m 25,8 km/h (4 Bft) SW 234 0 min 0,000 mm 0,0 UV-I 0 W/m 4,3 C 1,2 C 38,6 km/h (5 Bft) 100,00 %
18.01.2018 18:49 9,7 C 3,9 C 70 % 1000,3 hPa 0,0 l/m 23,3 km/h (4 Bft) W-SW 241 0 min 0,000 mm 0,0 UV-I 0 W/m 4,5 C 1,9 C 33,8 km/h (5 Bft) 100,00 %
18.01.2018 18:50 9,6 C 3,9 C 71 % 1000,4 hPa 0,0 l/m 22,7 km/h (4 Bft) W 270 0 min 0,000 mm 0,0 UV-I 0 W/m 4,6 C 1,9 C 27,4 km/h (4 Bft) 100,00 %
18.01.2018 18:51 9,5 C 3,9 C 71 % 1000,5 hPa 0,0 l/m 27,8 km/h (4 Bft) W-NW 286 0 min 0,000 mm 0,0 UV-I 0 W/m 4,5 C 0,5 C 41,8 km/h (6 Bft) 95,83 %
18.01.2018 18:52 9,4 C 3,9 C 73 % 1000,5 hPa 0,0 l/m 23,0 km/h (4 Bft) W 275 0 min 0,000 mm 0,0 UV-I 0 W/m 4,8 C 1,6 C 35,4 km/h (5 Bft) 100,00 %
18.01.2018 18:53 9,3 C 3,9 C 73 % 1000,7 hPa 0,0 l/m 29,4 km/h (5 Bft) W-SW 237 0 min 0,000 mm 0,0 UV-I 0 W/m 4,7 C -0,2 C 46,7 km/h (6 Bft) 100,00 %
18.01.2018 18:54 9,3 C 3,9 C 73 % 1000,7 hPa 0,0 l/m 23,7 km/h (4 Bft) W-SW 250 0 min 0,000 mm 0,0 UV-I 0 W/m 4,7 C 1,2 C 30,6 km/h (5 Bft) 100,00 %
18.01.2018 18:55 9,2 C 3,9 C 74 % 1000,7 hPa 0,0 l/m 18,8 km/h (3 Bft) W-NW 294 0 min 0,000 mm 0,0 UV-I 0 W/m 4,8 C 2,7 C 25,7 km/h (4 Bft) 100,00 %
18.01.2018 18:56 9,1 C 3,9 C 75 % 1000,7 hPa 0,0 l/m 18,8 km/h (3 Bft) W 278 0 min 0,000 mm 0,0 UV-I 0 W/m 4,9 C 2,5 C 43,5 km/h (6 Bft) 96,15 %
18.01.2018 18:57 9,0 C 3,9 C 75 % 1000,9 hPa 0,0 l/m 27,3 km/h (4 Bft) NW 311 0 min 0,000 mm 0,0 UV-I 0 W/m 4,8 C -0,1 C 41,8 km/h (6 Bft) 100,00 %
18.01.2018 18:58 9,0 C 3,9 C 75 % 1000,8 hPa 0,0 l/m 27,1 km/h (4 Bft) W-SW 242 0 min 0,000 mm 0,0 UV-I 0 W/m 4,8 C -0,1 C 40,2 km/h (6 Bft) 92,31 %
18.01.2018 18:59 9,0 C 3,9 C 75 % 1001,1 hPa 0,0 l/m 33,8 km/h (5 Bft) W-SW 250 0 min 0,000 mm 0,0 UV-I 0 W/m 4,8 C -1,5 C 43,5 km/h (6 Bft) 100,00 %
18.01.2018 19:00 8,9 C 3,9 C 75 % 1001,1 hPa 0,0 l/m 34,4 km/h (5 Bft) W 275 0 min 0,000 mm 0,0 UV-I 0 W/m 4,7 C -1,8 C 54,7 km/h (7 Bft) 100,00 %
18.01.2018 19:01 8,9 C 3,9 C 75 % 1001,1 hPa 0,0 l/m 33,2 km/h (5 Bft) W 259 0 min 0,102 mm 0,0 UV-I 0 W/m 4,7 C -1,6 C 46,7 km/h (6 Bft) 100,00 %
18.01.2018 19:02 8,9 C 3,9 C 76 % 1001,2 hPa 0,0 l/m 35,9 km/h (5 Bft) W 269 0 min 0,000 mm 0,0 UV-I 0 W/m 4,9 C -2,1 C 49,9 km/h (6 Bft) 100,00 %
18.01.2018 19:03 8,9 C 3,3 C 76 % 1001,2 hPa 0,0 l/m 24,1 km/h (4 Bft) W 269 0 min 0,000 mm 0,0 UV-I 0 W/m 4,9 C 0,6 C 30,6 km/h (5 Bft) 100,00 %
18.01.2018 19:04 8,8 C 3,9 C 77 % 1001,2 hPa 0,0 l/m 28,8 km/h (4 Bft) W-SW 247 0 min 0,000 mm 0,0 UV-I 0 W/m 5,0 C -0,8 C 41,8 km/h (6 Bft) 100,00 %
18.01.2018 19:05 8,8 C 3,9 C 77 % 1001,2 hPa 0,0 l/m 29,3 km/h (5 Bft) N-NW 327 0 min 0,000 mm 0,0 UV-I 0 W/m 5,0 C -0,9 C 37,0 km/h (5 Bft) 100,00 %
18.01.2018 19:06 8,7 C 3,9 C 78 % 1001,2 hPa 0,0 l/m 24,9 km/h (4 Bft) W 261 0 min 0,000 mm 0,0 UV-I 0 W/m 5,1 C 0,1 C 51,5 km/h (7 Bft) 100,00 %
18.01.2018 19:07 8,7 C 3,9 C 78 % 1001,2 hPa 0,2 l/m 34,6 km/h (5 Bft) W 273 0 min 0,000 mm 0,0 UV-I 0 W/m 5,1 C -2,1 C 49,9 km/h (6 Bft) 100,00 %
18.01.2018 19:08 8,6 C 3,9 C 78 % 1001,3 hPa 0,0 l/m 21,1 km/h (4 Bft) W 264 0 min 0,000 mm 0,0 UV-I 0 W/m 5,0 C 1,1 C 30,6 km/h (5 Bft) 95,83 %
18.01.2018 19:09 8,5 C 3,9 C 79 % 1001,3 hPa 0,0 l/m 18,7 km/h (3 Bft) W-SW 251 0 min 0,000 mm 0,0 UV-I 0 W/m 5,1 C 1,8 C 29,0 km/h (5 Bft) 100,00 %
18.01.2018 19:10 8,4 C 3,9 C 80 % 1001,4 hPa 0,0 l/m 15,0 km/h (3 Bft) W 260 0 min 0,000 mm 0,0 UV-I 0 W/m 5,2 C 3,2 C 24,1 km/h (4 Bft) 100,00 %
18.01.2018 19:11 8,4 C 3,9 C 80 % 1001,4 hPa 0,0 l/m 19,1 km/h (3 Bft) W 267 0 min 0,000 mm 0,0 UV-I 0 W/m 5,2 C 1,5 C 29,0 km/h (5 Bft) 100,00 %
18.01.2018 19:12 8,3 C 3,9 C 80 % 1001,3 hPa 0,0 l/m 22,1 km/h (4 Bft) W-SW 241 0 min 0,000 mm 0,0 UV-I 0 W/m 5,1 C 0,4 C 30,6 km/h (5 Bft) 100,00 %
18.01.2018 19:13 8,3 C 3,9 C 80 % 1001,4 hPa 0,0 l/m 21,7 km/h (4 Bft) W 265 0 min 0,000 mm 0,0 UV-I 0 W/m 5,1 C 0,5 C 30,6 km/h (5 Bft) 95,65 %
18.01.2018 19:14 8,3 C 3,9 C 80 % 1001,3 hPa 0,0 l/m 23,9 km/h (4 Bft) W-SW 255 0 min 0,000 mm 0,0 UV-I 0 W/m 5,1 C -0,2 C 30,6 km/h (5 Bft) 96,67 %
18.01.2018 19:15 8,3 C 3,9 C 80 % 1001,3 hPa 0,0 l/m 23,1 km/h (4 Bft) W-SW 252 0 min 0,000 mm 0,0 UV-I 0 W/m 5,1 C 0,1 C 33,8 km/h (5 Bft) 100,00 %
18.01.2018 19:16 8,3 C 3,9 C 80 % 1001,3 hPa 0,0 l/m 17,1 km/h (3 Bft) SW 232 0 min 0,000 mm 0,0 UV-I 0 W/m 5,1 C 2,2 C 29,0 km/h (5 Bft) 100,00 %
18.01.2018 19:17 8,2 C 3,9 C 81 % 1001,5 hPa 0,0 l/m 20,7 km/h (4 Bft) W-SW 254 0 min 0,000 mm 0,0 UV-I 0 W/m 5,1 C 0,7 C 37,0 km/h (5 Bft) 100,00 %
18.01.2018 19:18 8,2 C 3,9 C 81 % 1001,4 hPa 0,0 l/m 26,1 km/h (4 Bft) W-SW 238 0 min 0,000 mm 0,0 UV-I 0 W/m 5,1 C -0,9 C 38,6 km/h (5 Bft) 100,00 %
18.01.2018 19:19 8,2 C 3,9 C 81 % 1001,4 hPa 0,0 l/m 18,1 km/h (3 Bft) W 262 0 min 0,000 mm 0,0 UV-I 0 W/m 5,1 C 1,7 C 24,1 km/h (4 Bft) 100,00 %
18.01.2018 19:20 8,2 C 3,9 C 81 % 1001,4 hPa 0,0 l/m 16,4 km/h (3 Bft) W 272 0 min 0,000 mm 0,0 UV-I 0 W/m 5,1 C 2,3 C 24,1 km/h (4 Bft) 95,83 %
18.01.2018 19:21 8,2 C 3,9 C 81 % 1001,4 hPa 0,0 l/m 20,0 km/h (4 Bft) W 273 0 min 0,000 mm 0,0 UV-I 0 W/m 5,1 C 1,0 C 25,7 km/h (4 Bft) 100,00 %
18.01.2018 19:22 8,1 C 3,9 C 82 % 1001,4 hPa 0,2 l/m 18,3 km/h (3 Bft) W 274 0 min 0,000 mm 0,0 UV-I 0 W/m 5,2 C 1,5 C 25,7 km/h (4 Bft) 96,55 %
18.01.2018 19:23 8,1 C 3,9 C 82 % 1001,5 hPa 0,0 l/m 18,8 km/h (3 Bft) W 263 0 min 0,000 mm 0,0 UV-I 0 W/m 5,2 C 1,3 C 25,7 km/h (4 Bft) 95,83 %
18.01.2018 19:24 8,0 C 3,9 C 82 % 1001,5 hPa 0,0 l/m 15,0 km/h (3 Bft) W-NW 296 0 min 0,000 mm 0,0 UV-I 0 W/m 5,1 C 2,7 C 19,3 km/h (3 Bft) 95,65 %
18.01.2018 19:25 7,9 C 3,9 C 83 % 1001,5 hPa 0,0 l/m 18,5 km/h (3 Bft) W-SW 247 0 min 0,000 mm 0,0 UV-I 0 W/m 5,2 C 1,1 C 27,4 km/h (4 Bft) 100,00 %
18.01.2018 19:26 7,9 C 3,9 C 83 % 1001,5 hPa 0,0 l/m 19,0 km/h (3 Bft) W-SW 244 0 min 0,000 mm 0,0 UV-I 0 W/m 5,2 C 0,9 C 29,0 km/h (5 Bft) 95,65 %
18.01.2018 19:27 7,9 C 3,9 C 83 % 1001,6 hPa 0,0 l/m 21,8 km/h (4 Bft) W-SW 257 0 min 0,000 mm 0,0 UV-I 0 W/m 5,2 C -0,0 C 29,0 km/h (5 Bft) 96,30 %
18.01.2018 19:28 7,9 C 3,9 C 83 % 1001,6 hPa 0,0 l/m 14,4 km/h (3 Bft) W-SW 253 0 min 0,000 mm 0,0 UV-I 0 W/m 5,2 C 2,9 C 17,7 km/h (3 Bft) 100,00 %
18.01.2018 19:29 7,9 C 3,9 C 83 % 1001,6 hPa 0,0 l/m 17,4 km/h (3 Bft) W 277 0 min 0,000 mm 0,0 UV-I 0 W/m 5,2 C 1,6 C 25,7 km/h (4 Bft) 96,30 %
18.01.2018 19:30 7,9 C 3,9 C 83 % 1001,6 hPa 0,0 l/m 20,2 km/h (4 Bft) W-SW 254 0 min 0,000 mm 0,0 UV-I 0 W/m 5,2 C 0,5 C 25,7 km/h (4 Bft) 100,00 %
18.01.2018 19:31 7,8 C 3,9 C 83 % 1001,6 hPa 0,0 l/m 16,3 km/h (3 Bft) W-NW 292 0 min 0,000 mm 0,0 UV-I 0 W/m 5,1 C 1,9 C 20,9 km/h (4 Bft) 96,30 %
18.01.2018 19:32 7,8 C 3,9 C 84 % 1001,5 hPa 0,0 l/m 13,8 km/h (3 Bft) W-NW 290 0 min 0,000 mm 0,0 UV-I 0 W/m 5,3 C 3,0 C 24,1 km/h (4 Bft) 100,00 %
18.01.2018 19:33 7,8 C 3,3 C 84 % 1001,6 hPa 0,0 l/m 12,0 km/h (2 Bft) W-SW 250 0 min 0,000 mm 0,0 UV-I 0 W/m 5,3 C 4,0 C 17,7 km/h (3 Bft) 96,43 %
18.01.2018 19:34 7,7 C 3,3 C 84 % 1001,6 hPa 0,0 l/m 16,8 km/h (3 Bft) W 263 0 min 0,000 mm 0,0 UV-I 0 W/m 5,2 C 1,6 C 27,4 km/h (4 Bft) 100,00 %
18.01.2018 19:35 7,7 C 3,9 C 85 % 1001,7 hPa 0,0 l/m 14,2 km/h (3 Bft) W 275 0 min 0,000 mm 0,0 UV-I 0 W/m 5,3 C 2,7 C 20,9 km/h (4 Bft) 91,67 %
18.01.2018 19:36 7,7 C 3,9 C 85 % 1001,7 hPa 0,0 l/m 13,8 km/h (3 Bft) W-SW 256 0 min 0,000 mm 0,0 UV-I 0 W/m 5,3 C 2,9 C 17,7 km/h (3 Bft) 100,00 %
18.01.2018 19:37 7,6 C 3,9 C 85 % 1001,7 hPa 0,0 l/m 16,0 km/h (3 Bft) W-SW 243 0 min 0,000 mm 0,0 UV-I 0 W/m 5,2 C 1,8 C 20,9 km/h (4 Bft) 92,31 %
18.01.2018 19:38 7,6 C 3,9 C 86 % 1001,6 hPa 0,0 l/m 14,9 km/h (3 Bft) W-SW 243 0 min 0,000 mm 0,0 UV-I 0 W/m 5,4 C 2,3 C 22,5 km/h (4 Bft) 95,65 %
18.01.2018 19:39 7,6 C 3,9 C 86 % 1001,6 hPa 0,0 l/m 21,0 km/h (4 Bft) W-SW 256 0 min 0,000 mm 0,0 UV-I 0 W/m 5,4 C -0,2 C 33,8 km/h (5 Bft) 96,30 %
18.01.2018 19:40 7,5 C 3,9 C 86 % 1001,6 hPa 0,0 l/m 15,4 km/h (3 Bft) W-NW 288 0 min 0,000 mm 0,0 UV-I 0 W/m 5,3 C 1,9 C 25,7 km/h (4 Bft) 91,67 %
18.01.2018 19:41 7,5 C 3,9 C 86 % 1001,5 hPa 0,0 l/m 19,3 km/h (3 Bft) W-NW 289 0 min 0,000 mm 0,0 UV-I 0 W/m 5,3 C 0,3 C 22,5 km/h (4 Bft) 95,00 %
18.01.2018 19:42 7,5 C 3,9 C 86 % 1001,5 hPa 0,0 l/m 14,1 km/h (3 Bft) W-NW 292 0 min 0,000 mm 0,0 UV-I 0 W/m 5,3 C 2,5 C 19,3 km/h (3 Bft) 96,97 %
18.01.2018 19:43 7,4 C 3,9 C 87 % 1001,5 hPa 0,0 l/m 13,5 km/h (3 Bft) W-SW 240 0 min 0,000 mm 0,0 UV-I 0 W/m 5,4 C 2,7 C 27,4 km/h (4 Bft) 96,15 %
18.01.2018 19:44 7,4 C 3,9 C 87 % 1001,5 hPa 0,0 l/m 14,6 km/h (3 Bft) NW 311 0 min 0,000 mm 0,0 UV-I 0 W/m 5,4 C 2,2 C 20,9 km/h (4 Bft) 92,59 %
18.01.2018 19:45 7,3 C 3,9 C 88 % 1001,5 hPa 0,0 l/m 15,9 km/h (3 Bft) W 262 0 min 0,000 mm 0,0 UV-I 0 W/m 5,4 C 1,5 C 20,9 km/h (4 Bft) 95,65 %
18.01.2018 19:46 7,3 C 3,3 C 88 % 1001,5 hPa 0,0 l/m 15,0 km/h (3 Bft) W 262 0 min 0,000 mm 0,0 UV-I 0 W/m 5,4 C 1,9 C 25,7 km/h (4 Bft) 86,67 %
18.01.2018 19:47 7,3 C 3,3 C 88 % 1001,5 hPa 0,0 l/m 15,7 km/h (3 Bft) W-NW 293 0 min 0,000 mm 0,0 UV-I 0 W/m 5,4 C 1,5 C 20,9 km/h (4 Bft) 96,55 %
18.01.2018 19:48 7,2 C 3,9 C 88 % 1001,6 hPa 0,0 l/m 20,5 km/h (4 Bft) SW 232 0 min 0,000 mm 0,0 UV-I 0 W/m 5,3 C -0,5 C 29,0 km/h (5 Bft) 93,33 %
18.01.2018 19:49 7,2 C 3,9 C 88 % 1001,4 hPa 0,0 l/m 14,9 km/h (3 Bft) W 262 0 min 0,000 mm 0,0 UV-I 0 W/m 5,3 C 1,8 C 20,9 km/h (4 Bft) 96,15 %
18.01.2018 19:50 7,2 C 3,9 C 88 % 1001,5 hPa 0,0 l/m 17,2 km/h (3 Bft) W-SW 253 0 min 0,000 mm 0,0 UV-I 0 W/m 5,3 C 0,8 C 27,4 km/h (4 Bft) 92,59 %
18.01.2018 19:51 7,2 C 3,9 C 89 % 1001,4 hPa 0,0 l/m 22,3 km/h (4 Bft) W 265 0 min 0,000 mm 0,0 UV-I 0 W/m 5,5 C -1,1 C 29,0 km/h (5 Bft) 96,15 %
18.01.2018 19:52 7,1 C 3,9 C 89 % 1001,4 hPa 0,0 l/m 16,5 km/h (3 Bft) SW 236 0 min 0,000 mm 0,0 UV-I 0 W/m 5,4 C 0,9 C 22,5 km/h (4 Bft) 95,83 %
18.01.2018 19:53 7,1 C 3,9 C 89 % 1001,4 hPa 0,0 l/m 16,4 km/h (3 Bft) W 260 0 min 0,000 mm 0,0 UV-I 0 W/m 5,4 C 1,0 C 27,4 km/h (4 Bft) 95,65 %
18.01.2018 19:54 7,1 C 3,9 C 89 % 1001,3 hPa 0,0 l/m 18,5 km/h (3 Bft) W-SW 245 0 min 0,000 mm 0,0 UV-I 0 W/m 5,4 C 0,1 C 27,4 km/h (4 Bft) 91,67 %
18.01.2018 19:55 7,1 C 3,9 C 89 % 1001,3 hPa 0,0 l/m 14,6 km/h (3 Bft) W 277 0 min 0,000 mm 0,0 UV-I 0 W/m 5,4 C 1,8 C 20,9 km/h (4 Bft) 95,65 %
18.01.2018 19:56 7,1 C 3,9 C 89 % 1001,3 hPa 0,0 l/m 22,1 km/h (4 Bft) W 278 0 min 0,000 mm 0,0 UV-I 0 W/m 5,4 C -1,2 C 30,6 km/h (5 Bft) 95,83 %
18.01.2018 19:57 7,1 C 3,9 C 89 % 1001,4 hPa 0,0 l/m 18,6 km/h (3 Bft) SW 214 0 min 0,000 mm 0,0 UV-I 0 W/m 5,4 C 0,1 C 22,5 km/h (4 Bft) 95,65 %
18.01.2018 19:58 7,1 C 3,9 C 89 % 1001,4 hPa 0,0 l/m 17,6 km/h (3 Bft) W 268 0 min 0,000 mm 0,0 UV-I 0 W/m 5,4 C 0,5 C 24,1 km/h (4 Bft) 100,00 %
18.01.2018 19:59 7,1 C 3,9 C 89 % 1001,4 hPa 0,0 l/m 18,4 km/h (3 Bft) W 261 0 min 0,000 mm 0,0 UV-I 0 W/m 5,4 C 0,1 C 29,0 km/h (5 Bft) 95,65 %
18.01.2018 20:00 7,1 C 3,9 C 89 % 1001,4 hPa 0,0 l/m 17,1 km/h (3 Bft) W 277 0 min 0,000 mm 0,0 UV-I 0 W/m 5,4 C 0,7 C 24,1 km/h (4 Bft) 100,00 %
18.01.2018 20:01 7,1 C 3,9 C 89 % 1001,5 hPa 0,0 l/m 13,4 km/h (3 Bft) SW 232 0 min 0,025 mm 0,0 UV-I 0 W/m 5,4 C 2,4 C 17,7 km/h (3 Bft) 95,83 %
18.01.2018 20:02 7,1 C 3,9 C 89 % 1001,4 hPa 0,0 l/m 15,6 km/h (3 Bft) W 273 0 min 0,000 mm 0,0 UV-I 0 W/m 5,4 C 1,3 C 22,5 km/h (4 Bft) 100,00 %
18.01.2018 20:03 7,1 C 3,9 C 89 % 1001,5 hPa 0,0 l/m 19,1 km/h (3 Bft) SW 233 0 min 0,000 mm 0,0 UV-I 0 W/m 5,4 C -0,1 C 27,4 km/h (4 Bft) 95,83 %
18.01.2018 20:04 7,1 C 3,9 C 89 % 1001,5 hPa 0,0 l/m 13,4 km/h (3 Bft) W 271 0 min 0,000 mm 0,0 UV-I 0 W/m 5,4 C 2,4 C 19,3 km/h (3 Bft) 91,30 %
18.01.2018 20:05 7,1 C 3,9 C 89 % 1001,6 hPa 0,0 l/m 17,9 km/h (3 Bft) W 269 0 min 0,000 mm 0,0 UV-I 0 W/m 5,4 C 0,4 C 27,4 km/h (4 Bft) 95,83 %
18.01.2018 20:08 7,1 C 3,9 C 89 % 1001,7 hPa 0,0 l/m 11,1 km/h (2 Bft) W-NW 286 0 min 0,000 mm 0,0 UV-I 0 W/m 5,4 C 3,7 C 16,1 km/h (3 Bft) 97,47 %
18.01.2018 20:10 7,1 C 3,9 C 89 % 1001,8 hPa 0,0 l/m 10,5 km/h (2 Bft) W-SW 242 0 min 0,000 mm 0,0 UV-I 0 W/m 5,4 C 4,1 C 24,1 km/h (4 Bft) 97,37 %
18.01.2018 20:12 7,1 C 3,9 C 89 % 1001,7 hPa 0,0 l/m 8,0 km/h (2 Bft) W 277 0 min 0,000 mm 0,0 UV-I 0 W/m 5,4 C 5,8 C 17,7 km/h (3 Bft) 96,08 %
18.01.2018 20:14 7,0 C 3,9 C 89 % 1001,7 hPa 0,0 l/m 12,8 km/h (3 Bft) W-SW 257 0 min 0,000 mm 0,0 UV-I 0 W/m 5,3 C 2,6 C 19,3 km/h (3 Bft) 95,74 %
18.01.2018 20:16 6,9 C 3,9 C 90 % 1001,6 hPa 0,2 l/m 7,7 km/h (2 Bft) W 274 0 min 0,000 mm 0,0 UV-I 0 W/m 5,4 C 5,8 C 16,1 km/h (3 Bft) 97,87 %
18.01.2018 20:18 6,8 C 3,9 C 90 % 1001,8 hPa 0,0 l/m 8,0 km/h (2 Bft) W 263 0 min 0,000 mm 0,0 UV-I 0 W/m 5,3 C 5,5 C 14,5 km/h (3 Bft) 96,00 %
18.01.2018 20:20 6,7 C 3,9 C 91 % 1001,8 hPa 0,2 l/m 15,3 km/h (3 Bft) W 259 0 min 0,000 mm 0,0 UV-I 0 W/m 5,3 C 1,0 C 29,0 km/h (5 Bft) 94,29 %
18.01.2018 20:22 6,6 C 3,9 C 91 % 1001,8 hPa 0,2 l/m 15,6 km/h (3 Bft) NW 322 0 min 0,000 mm 0,0 UV-I 0 W/m 5,2 C 0,7 C 35,4 km/h (5 Bft) 96,00 %
18.01.2018 20:24 6,4 C 3,3 C 90 % 1001,8 hPa 0,2 l/m 19,9 km/h (4 Bft) W 261 0 min 0,000 mm 0,0 UV-I 0 W/m 4,9 C -1,3 C 35,4 km/h (5 Bft) 97,87 %
18.01.2018 20:26 6,3 C 3,9 C 91 % 1001,8 hPa 0,0 l/m 17,1 km/h (3 Bft) W 263 0 min 0,000 mm 0,0 UV-I 0 W/m 4,9 C -0,3 C 32,2 km/h (5 Bft) 98,00 %
18.01.2018 20:28 6,2 C 3,9 C 91 % 1002,0 hPa 0,2 l/m 16,2 km/h (3 Bft) N-NO 23 0 min 0,000 mm 0,0 UV-I 0 W/m 4,8 C -0,0 C 30,6 km/h (5 Bft) 96,00 %
18.01.2018 20:30 6,2 C 3,9 C 92 % 1002,1 hPa 0,2 l/m 16,2 km/h (3 Bft) W-NW 291 0 min 0,000 mm 0,0 UV-I 0 W/m 5,0 C -0,0 C 25,7 km/h (4 Bft) 95,83 %
18.01.2018 20:32 6,1 C 3,9 C 92 % 1002,1 hPa 0,0 l/m 12,8 km/h (3 Bft) W 263 0 min 0,000 mm 0,0 UV-I 0 W/m 4,9 C 1,6 C 20,9 km/h (4 Bft) 98,00 %
18.01.2018 20:34 6,0 C 3,9 C 93 % 1002,2 hPa 0,2 l/m 14,4 km/h (3 Bft) W-NW 293 0 min 0,000 mm 0,0 UV-I 0 W/m 5,0 C 0,6 C 30,6 km/h (5 Bft) 97,87 %
18.01.2018 20:36 5,9 C 3,9 C 93 % 1002,1 hPa 0,2 l/m 15,3 km/h (3 Bft) W-SW 238 0 min 0,000 mm 0,0 UV-I 0 W/m 4,9 C 0,0 C 25,7 km/h (4 Bft) 97,87 %
18.01.2018 20:38 5,9 C 3,9 C 93 % 1002,1 hPa 0,2 l/m 15,8 km/h (3 Bft) W-NW 300 0 min 0,000 mm 0,0 UV-I 0 W/m 4,9 C -0,2 C 30,6 km/h (5 Bft) 97,87 %
18.01.2018 20:40 5,9 C 3,9 C 93 % 1002,0 hPa 0,0 l/m 19,8 km/h (3 Bft) W-NW 295 0 min 0,000 mm 0,0 UV-I 0 W/m 4,9 C -1,9 C 41,8 km/h (6 Bft) 97,87 %
18.01.2018 20:42 5,8 C 3,9 C 92 % 1001,9 hPa 0,0 l/m 23,2 km/h (4 Bft) SW 227 0 min 0,000 mm 0,0 UV-I 0 W/m 4,6 C -3,3 C 54,7 km/h (7 Bft) 100,00 %
18.01.2018 20:44 5,8 C 3,9 C 91 % 1001,7 hPa 0,2 l/m 32,2 km/h (5 Bft) W-SW 245 0 min 0,000 mm 0,0 UV-I 0 W/m 4,4 C -5,8 C 49,9 km/h (6 Bft) 100,00 %
18.01.2018 20:46 5,8 C 3,9 C 91 % 1001,8 hPa 0,0 l/m 28,3 km/h (4 Bft) W-NW 284 0 min 0,000 mm 0,0 UV-I 0 W/m 4,4 C -4,8 C 46,7 km/h (6 Bft) 100,00 %
18.01.2018 20:48 5,8 C 3,9 C 90 % 1001,8 hPa 0,0 l/m 27,5 km/h (4 Bft) W-SW 252 0 min 0,000 mm 0,0 UV-I 0 W/m 4,3 C -4,6 C 51,5 km/h (7 Bft) 100,00 %
18.01.2018 20:50 5,8 C 3,9 C 90 % 1001,8 hPa 0,0 l/m 27,4 km/h (4 Bft) W 262 0 min 0,000 mm 0,0 UV-I 0 W/m 4,3 C -4,6 C 48,3 km/h (6 Bft) 100,00 %
18.01.2018 20:52 5,8 C 3,9 C 90 % 1002,0 hPa 0,0 l/m 30,6 km/h (5 Bft) W-SW 246 0 min 0,000 mm 0,0 UV-I 0 W/m 4,3 C -5,4 C 48,3 km/h (6 Bft) 98,00 %
18.01.2018 20:54 5,8 C 3,9 C 90 % 1002,0 hPa 0,0 l/m 25,2 km/h (4 Bft) W 267 0 min 0,000 mm 0,0 UV-I 0 W/m 4,3 C -3,9 C 43,5 km/h (6 Bft) 100,00 %
18.01.2018 20:56 5,8 C 3,9 C 90 % 1002,2 hPa 0,0 l/m 27,8 km/h (4 Bft) W 269 0 min 0,000 mm 0,0 UV-I 0 W/m 4,3 C -4,7 C 43,5 km/h (6 Bft) 100,00 %
18.01.2018 20:58 5,8 C 3,9 C 90 % 1002,2 hPa 0,0 l/m 20,5 km/h (4 Bft) W 261 0 min 0,000 mm 0,0 UV-I 0 W/m 4,3 C -2,3 C 32,2 km/h (5 Bft) 97,87 %
18.01.2018 21:00 5,8 C 3,9 C 90 % 1002,2 hPa 0,0 l/m 28,7 km/h (4 Bft) W-NW 284 0 min 0,000 mm 0,0 UV-I 0 W/m 4,3 C -4,9 C 40,2 km/h (6 Bft) 97,87 %
18.01.2018 21:02 5,8 C 3,9 C 89 % 1002,1 hPa 0,2 l/m 36,4 km/h (5 Bft) W-SW 247 0 min 0,025 mm 0,0 UV-I 0 W/m 4,1 C -6,7 C 75,6 km/h (9 Bft) 100,00 %
18.01.2018 21:04 5,8 C 3,9 C 89 % 1002,1 hPa 0,2 l/m 33,9 km/h (5 Bft) W-SW 255 0 min 0,000 mm 0,0 UV-I 0 W/m 4,1 C -6,2 C 48,3 km/h (6 Bft) 100,00 %
18.01.2018 21:06 5,8 C 3,9 C 89 % 1002,2 hPa 0,0 l/m 28,0 km/h (4 Bft) W-SW 248 0 min 0,000 mm 0,0 UV-I 0 W/m 4,1 C -4,7 C 45,1 km/h (6 Bft) 100,00 %
18.01.2018 21:08 5,8 C 3,9 C 89 % 1002,2 hPa 0,0 l/m 31,6 km/h (5 Bft) W 268 0 min 0,000 mm 0,0 UV-I 0 W/m 4,1 C -5,6 C 53,1 km/h (7 Bft) 95,74 %
18.01.2018 21:10 5,8 C 3,9 C 89 % 1002,1 hPa 0,0 l/m 22,1 km/h (4 Bft) W-NW 282 0 min 0,000 mm 0,0 UV-I 0 W/m 4,1 C -2,9 C 35,4 km/h (5 Bft) 95,74 %
18.01.2018 21:12 5,7 C 3,9 C 89 % 1002,2 hPa 0,0 l/m 20,9 km/h (4 Bft) W 270 0 min 0,000 mm 0,0 UV-I 0 W/m 4,0 C -2,6 C 30,6 km/h (5 Bft) 100,00 %
18.01.2018 21:14 5,7 C 3,9 C 90 % 1002,2 hPa 0,2 l/m 20,8 km/h (4 Bft) W 267 0 min 0,000 mm 0,0 UV-I 0 W/m 4,2 C -2,6 C 37,0 km/h (5 Bft) 100,00 %
18.01.2018 21:16 5,6 C 3,9 C 90 % 1002,1 hPa 0,0 l/m 24,3 km/h (4 Bft) W-SW 250 0 min 0,000 mm 0,0 UV-I 0 W/m 4,1 C -3,9 C 45,1 km/h (6 Bft) 95,74 %
18.01.2018 21:18 5,6 C 3,9 C 90 % 1002,1 hPa 0,0 l/m 27,2 km/h (4 Bft) W-SW 252 0 min 0,000 mm 0,0 UV-I 0 W/m 4,1 C -4,8 C 41,8 km/h (6 Bft) 100,00 %
18.01.2018 21:20 5,7 C 3,9 C 90 % 1002,1 hPa 0,0 l/m 24,6 km/h (4 Bft) W-SW 254 0 min 0,000 mm 0,0 UV-I 0 W/m 4,2 C -3,9 C 45,1 km/h (6 Bft) 97,87 %
18.01.2018 21:22 5,7 C 3,9 C 90 % 1002,1 hPa 0,0 l/m 28,0 km/h (4 Bft) W 260 0 min 0,000 mm 0,0 UV-I 0 W/m 4,2 C -4,9 C 41,8 km/h (6 Bft) 100,00 %
18.01.2018 21:24 5,7 C 3,9 C 89 % 1002,1 hPa 0,0 l/m 31,2 km/h (5 Bft) W-SW 257 0 min 0,000 mm 0,0 UV-I 0 W/m 4,0 C -5,7 C 48,3 km/h (6 Bft) 100,00 %
18.01.2018 21:26 5,7 C 3,3 C 90 % 1002,3 hPa 0,0 l/m 20,5 km/h (4 Bft) W 262 0 min 0,000 mm 0,0 UV-I 0 W/m 4,2 C -2,5 C 33,8 km/h (5 Bft) 97,87 %
18.01.2018 21:28 5,7 C 3,3 C 90 % 1002,3 hPa 0,0 l/m 20,0 km/h (4 Bft) SW 229 0 min 0,000 mm 0,0 UV-I 0 W/m 4,2 C -2,3 C 38,6 km/h (5 Bft) 100,00 %
18.01.2018 21:30 5,7 C 3,3 C 90 % 1002,3 hPa 0,0 l/m 27,1 km/h (4 Bft) W-SW 258 0 min 0,000 mm 0,0 UV-I 0 W/m 4,2 C -4,6 C 41,8 km/h (6 Bft) 97,87 %
18.01.2018 21:32 5,7 C 3,3 C 90 % 1002,4 hPa 0,0 l/m 22,2 km/h (4 Bft) W 266 0 min 0,000 mm 0,0 UV-I 0 W/m 4,2 C -3,1 C 30,6 km/h (5 Bft) 97,87 %
18.01.2018 21:34 5,7 C 3,9 C 90 % 1002,4 hPa 0,2 l/m 26,1 km/h (4 Bft) W-SW 252 0 min 0,000 mm 0,0 UV-I 0 W/m 4,2 C -4,3 C 46,7 km/h (6 Bft) 97,87 %
18.01.2018 21:36 5,7 C 3,3 C 90 % 1002,5 hPa 0,0 l/m 21,0 km/h (4 Bft) W 259 0 min 0,000 mm 0,0 UV-I 0 W/m 4,2 C -2,6 C 35,4 km/h (5 Bft) 97,87 %
18.01.2018 21:38 5,7 C 3,9 C 90 % 1002,6 hPa 0,0 l/m 24,1 km/h (4 Bft) SW 236 0 min 0,000 mm 0,0 UV-I 0 W/m 4,2 C -3,7 C 43,5 km/h (6 Bft) 95,74 %
18.01.2018 21:40 5,7 C 3,9 C 89 % 1002,6 hPa 0,0 l/m 28,8 km/h (4 Bft) W 265 0 min 0,000 mm 0,0 UV-I 0 W/m 4,0 C -5,1 C 41,8 km/h (6 Bft) 97,87 %
18.01.2018 21:42 5,8 C 3,3 C 89 % 1002,7 hPa 0,0 l/m 23,1 km/h (4 Bft) W-SW 245 0 min 0,000 mm 0,0 UV-I 0 W/m 4,1 C -3,2 C 32,2 km/h (5 Bft) 98,00 %
18.01.2018 21:44 5,7 C 3,3 C 89 % 1002,6 hPa 0,0 l/m 21,6 km/h (4 Bft) W-SW 251 0 min 0,000 mm 0,0 UV-I 0 W/m 4,0 C -2,9 C 35,4 km/h (5 Bft) 100,00 %
18.01.2018 21:46 5,7 C 3,3 C 89 % 1002,7 hPa 0,0 l/m 19,5 km/h (3 Bft) W-NW 287 0 min 0,000 mm 0,0 UV-I 0 W/m 4,0 C -2,1 C 30,6 km/h (5 Bft) 95,74 %
18.01.2018 21:48 5,7 C 3,9 C 89 % 1002,7 hPa 0,0 l/m 19,1 km/h (3 Bft) W 267 0 min 0,000 mm 0,0 UV-I 0 W/m 4,0 C -1,9 C 38,6 km/h (5 Bft) 95,74 %
18.01.2018 21:50 5,7 C 3,9 C 89 % 1002,6 hPa 0,0 l/m 28,0 km/h (4 Bft) W-SW 243 0 min 0,000 mm 0,0 UV-I 0 W/m 4,0 C -4,9 C 46,7 km/h (6 Bft) 98,00 %
18.01.2018 21:52 5,7 C 3,3 C 88 % 1002,6 hPa 0,0 l/m 29,5 km/h (5 Bft) W-SW 251 0 min 0,000 mm 0,0 UV-I 0 W/m 3,9 C -5,3 C 46,7 km/h (6 Bft) 97,87 %
18.01.2018 21:54 5,7 C 3,9 C 88 % 1002,6 hPa 0,0 l/m 30,2 km/h (5 Bft) W 269 0 min 0,000 mm 0,0 UV-I 0 W/m 3,9 C -5,4 C 45,1 km/h (6 Bft) 91,49 %
18.01.2018 21:56 5,7 C 3,9 C 88 % 1002,6 hPa 0,0 l/m 26,5 km/h (4 Bft) W-SW 253 0 min 0,000 mm 0,0 UV-I 0 W/m 3,9 C -4,4 C 45,1 km/h (6 Bft) 97,87 %
18.01.2018 21:58 5,7 C 3,9 C 87 % 1002,8 hPa 0,0 l/m 22,9 km/h (4 Bft) W 270 0 min 0,000 mm 0,0 UV-I 0 W/m 3,7 C -3,3 C 32,2 km/h (5 Bft) 95,74 %
18.01.2018 22:00 5,7 C 3,9 C 88 % 1002,9 hPa 0,0 l/m 21,5 km/h (4 Bft) W-SW 252 0 min 0,000 mm 0,0 UV-I 0 W/m 3,9 C -2,8 C 41,8 km/h (6 Bft) 97,87 %
18.01.2018 22:02 5,7 C 3,9 C 88 % 1002,9 hPa 0,0 l/m 20,6 km/h (4 Bft) SW 231 0 min 0,026 mm 0,0 UV-I 0 W/m 3,9 C -2,5 C 38,6 km/h (5 Bft) 97,87 %
18.01.2018 22:04 5,6 C 3,9 C 88 % 1002,9 hPa 0,0 l/m 20,2 km/h (4 Bft) W 263 0 min 0,000 mm 0,0 UV-I 0 W/m 3,8 C -2,5 C 32,2 km/h (5 Bft) 95,74 %
18.01.2018 22:06 5,6 C 3,9 C 88 % 1003,0 hPa 0,0 l/m 19,5 km/h (3 Bft) W-SW 246 0 min 0,000 mm 0,0 UV-I 0 W/m 3,8 C -2,2 C 41,8 km/h (6 Bft) 98,00 %
18.01.2018 22:08 5,6 C 3,9 C 88 % 1003,0 hPa 0,0 l/m 22,1 km/h (4 Bft) W 261 0 min 0,000 mm 0,0 UV-I 0 W/m 3,8 C -3,2 C 38,6 km/h (5 Bft) 97,87 %
18.01.2018 22:10 5,6 C 3,9 C 88 % 1003,1 hPa 0,0 l/m 17,6 km/h (3 Bft) W-SW 252 0 min 0,000 mm 0,0 UV-I 0 W/m 3,8 C -1,4 C 32,2 km/h (5 Bft) 100,00 %
18.01.2018 22:12 5,7 C 3,9 C 87 % 1003,2 hPa 0,0 l/m 21,7 km/h (4 Bft) NW 321 0 min 0,000 mm 0,0 UV-I 0 W/m 3,7 C -2,9 C 30,6 km/h (5 Bft) 100,00 %
18.01.2018 22:14 5,7 C 3,9 C 87 % 1003,3 hPa 0,0 l/m 19,6 km/h (3 Bft) W-SW 257 0 min 0,000 mm 0,0 UV-I 0 W/m 3,7 C -2,1 C 43,5 km/h (6 Bft) 100,00 %
18.01.2018 22:16 5,7 C 3,9 C 87 % 1003,4 hPa 0,0 l/m 18,2 km/h (3 Bft) W 259 0 min 0,000 mm 0,0 UV-I 0 W/m 3,7 C -1,5 C 25,7 km/h (4 Bft) 100,00 %
18.01.2018 22:18 5,7 C 3,9 C 87 % 1003,4 hPa 0,0 l/m 22,6 km/h (4 Bft) W-SW 251 0 min 0,000 mm 0,0 UV-I 0 W/m 3,7 C -3,2 C 30,6 km/h (5 Bft) 100,00 %
18.01.2018 22:20 5,7 C 3,3 C 87 % 1003,5 hPa 0,0 l/m 17,1 km/h (3 Bft) W-SW 254 0 min 0,000 mm 0,0 UV-I 0 W/m 3,7 C -1,1 C 24,1 km/h (4 Bft) 100,00 %
18.01.2018 22:22 5,7 C 3,3 C 87 % 1003,5 hPa 0,0 l/m 23,2 km/h (4 Bft) W 277 0 min 0,000 mm 0,0 UV-I 0 W/m 3,7 C -3,4 C 35,4 km/h (5 Bft) 98,00 %
18.01.2018 22:24 5,6 C 3,3 C 87 % 1003,5 hPa 0,0 l/m 19,7 km/h (3 Bft) W-SW 238 0 min 0,000 mm 0,0 UV-I 0 W/m 3,6 C -2,3 C 33,8 km/h (5 Bft) 100,00 %
18.01.2018 22:26 5,7 C 3,9 C 87 % 1003,7 hPa 0,0 l/m 27,2 km/h (4 Bft) W-SW 246 0 min 0,000 mm 0,0 UV-I 0 W/m 3,7 C -4,6 C 40,2 km/h (6 Bft) 97,92 %
18.01.2018 22:28 5,7 C 3,9 C 86 % 1003,6 hPa 0,2 l/m 30,7 km/h (5 Bft) W 273 0 min 0,000 mm 0,0 UV-I 0 W/m 3,5 C -5,6 C 54,7 km/h (7 Bft) 97,87 %
18.01.2018 22:30 5,6 C 3,9 C 86 % 1003,8 hPa 0,0 l/m 23,0 km/h (4 Bft) W 271 0 min 0,000 mm 0,0 UV-I 0 W/m 3,4 C -3,5 C 30,6 km/h (5 Bft) 100,00 %
18.01.2018 22:32 5,6 C 3,3 C 87 % 1003,7 hPa 0,0 l/m 22,0 km/h (4 Bft) W 269 0 min 0,000 mm 0,0 UV-I 0 W/m 3,6 C -3,1 C 38,6 km/h (5 Bft) 97,87 %
18.01.2018 22:34 5,5 C 3,3 C 87 % 1003,8 hPa 0,0 l/m 22,5 km/h (4 Bft) W-SW 257 0 min 0,000 mm 0,0 UV-I 0 W/m 3,5 C -3,4 C 37,0 km/h (5 Bft) 100,00 %
18.01.2018 22:36 5,4 C 3,3 C 87 % 1003,8 hPa 0,0 l/m 22,7 km/h (4 Bft) W 267 0 min 0,000 mm 0,0 UV-I 0 W/m 3,4 C -3,6 C 37,0 km/h (5 Bft) 97,87 %
18.01.2018 22:38 5,4 C 3,9 C 87 % 1003,8 hPa 0,2 l/m 20,6 km/h (4 Bft) W-SW 238 0 min 0,000 mm 0,0 UV-I 0 W/m 3,4 C -2,9 C 37,0 km/h (5 Bft) 100,00 %
18.01.2018 22:40 5,3 C 3,9 C 88 % 1003,9 hPa 0,0 l/m 23,1 km/h (4 Bft) W-SW 248 0 min 0,000 mm 0,0 UV-I 0 W/m 3,5 C -3,9 C 33,8 km/h (5 Bft) 100,00 %
18.01.2018 22:42 5,3 C 3,9 C 88 % 1003,9 hPa 0,0 l/m 17,3 km/h (3 Bft) W-SW 249 0 min 0,000 mm 0,0 UV-I 0 W/m 3,5 C -1,7 C 24,1 km/h (4 Bft) 100,00 %
18.01.2018 22:44 5,2 C 3,9 C 88 % 1003,9 hPa 0,0 l/m 18,8 km/h (3 Bft) W-NW 296 0 min 0,000 mm 0,0 UV-I 0 W/m 3,4 C -2,4 C 25,7 km/h (4 Bft) 100,00 %
18.01.2018 22:46 5,2 C 3,9 C 88 % 1003,9 hPa 0,0 l/m 19,3 km/h (3 Bft) W 275 0 min 0,000 mm 0,0 UV-I 0 W/m 3,4 C -2,6 C 33,8 km/h (5 Bft) 100,00 %
18.01.2018 22:48 5,2 C 3,9 C 89 % 1003,9 hPa 0,0 l/m 16,8 km/h (3 Bft) W 265 0 min 0,000 mm 0,0 UV-I 0 W/m 3,5 C -1,6 C 24,1 km/h (4 Bft) 100,00 %
18.01.2018 22:50 5,1 C 3,9 C 89 % 1003,9 hPa 0,0 l/m 19,6 km/h (3 Bft) SW 217 0 min 0,000 mm 0,0 UV-I 0 W/m 3,4 C -2,9 C 33,8 km/h (5 Bft) 100,00 %
18.01.2018 22:52 5,1 C 3,9 C 89 % 1003,9 hPa 0,0 l/m 19,6 km/h (3 Bft) W-SW 256 0 min 0,000 mm 0,0 UV-I 0 W/m 3,4 C -2,9 C 30,6 km/h (5 Bft) 98,00 %
18.01.2018 22:54 5,1 C 3,9 C 89 % 1004,0 hPa 0,0 l/m 17,5 km/h (3 Bft) W-NW 287 0 min 0,000 mm 0,0 UV-I 0 W/m 3,4 C -2,0 C 27,4 km/h (4 Bft) 100,00 %
18.01.2018 22:56 5,1 C 3,9 C 89 % 1003,9 hPa 0,0 l/m 22,2 km/h (4 Bft) W 263 0 min 0,000 mm 0,0 UV-I 0 W/m 3,4 C -3,9 C 30,6 km/h (5 Bft) 97,87 %
18.01.2018 22:58 5,1 C 3,9 C 89 % 1004,0 hPa 0,0 l/m 17,1 km/h (3 Bft) W 265 0 min 0,000 mm 0,0 UV-I 0 W/m 3,4 C -1,8 C 22,5 km/h (4 Bft) 100,00 %
18.01.2018 23:00 5,1 C 3,9 C 90 % 1004,0 hPa 0,0 l/m 14,5 km/h (3 Bft) W-SW 246 0 min 0,000 mm 0,0 UV-I 0 W/m 3,6 C -0,5 C 22,5 km/h (4 Bft) 100,00 %
18.01.2018 23:02 5,0 C 3,3 C 90 % 1004,1 hPa 0,0 l/m 14,0 km/h (3 Bft) W 267 0 min 0,025 mm 0,0 UV-I 0 W/m 3,5 C -0,4 C 17,7 km/h (3 Bft) 100,00 %
18.01.2018 23:04 4,9 C 3,3 C 90 % 1004,1 hPa 0,2 l/m 15,6 km/h (3 Bft) W-SW 244 0 min 0,000 mm 0,0 UV-I 0 W/m 3,4 C -1,3 C 27,4 km/h (4 Bft) 97,87 %
18.01.2018 23:06 4,9 C 3,3 C 90 % 1004,2 hPa 0,0 l/m 8,9 km/h (2 Bft) W-NW 298 0 min 0,000 mm 0,0 UV-I 0 W/m 3,4 C 2,8 C 17,7 km/h (3 Bft) 95,74 %
18.01.2018 23:08 4,9 C 3,9 C 91 % 1004,3 hPa 0,0 l/m 4,1 km/h (1 Bft) W-NW 288 0 min 0,000 mm 0,0 UV-I 0 W/m 3,6 C 4,9 C 11,3 km/h (2 Bft) 98,00 %
18.01.2018 23:10 4,7 C 3,9 C 91 % 1004,4 hPa 0,2 l/m 6,4 km/h (2 Bft) W-NW 283 0 min 0,000 mm 0,0 UV-I 0 W/m 3,4 C 4,7 C 19,3 km/h (3 Bft) 97,87 %
18.01.2018 23:12 4,4 C 3,9 C 91 % 1004,5 hPa 0,2 l/m 6,2 km/h (2 Bft) W-NW 291 0 min 0,000 mm 0,0 UV-I 0 W/m 3,1 C 4,4 C 14,5 km/h (3 Bft) 97,87 %
18.01.2018 23:14 4,3 C 3,3 C 92 % 1004,4 hPa 0,0 l/m 4,8 km/h (1 Bft) W-SW 250 0 min 0,000 mm 0,0 UV-I 0 W/m 3,1 C 4,3 C 14,5 km/h (3 Bft) 100,00 %
18.01.2018 23:16 4,1 C 3,3 C 92 % 1004,4 hPa 0,0 l/m 6,9 km/h (2 Bft) W 277 0 min 0,000 mm 0,0 UV-I 0 W/m 2,9 C 3,7 C 12,9 km/h (3 Bft) 97,87 %
18.01.2018 23:18 3,9 C 3,3 C 93 % 1004,4 hPa 0,2 l/m 10,1 km/h (2 Bft) W 270 0 min 0,000 mm 0,0 UV-I 0 W/m 2,9 C 0,8 C 24,1 km/h (4 Bft) 100,00 %
18.01.2018 23:20 3,9 C 3,3 C 93 % 1004,4 hPa 0,0 l/m 8,2 km/h (2 Bft) W 259 0 min 0,000 mm 0,0 UV-I 0 W/m 2,9 C 2,3 C 24,1 km/h (4 Bft) 100,00 %
18.01.2018 23:22 3,8 C 3,3 C 93 % 1004,3 hPa 0,0 l/m 5,4 km/h (1 Bft) W 265 0 min 0,000 mm 0,0 UV-I 0 W/m 2,8 C 3,8 C 9,7 km/h (2 Bft) 97,87 %
18.01.2018 23:24 3,8 C 3,9 C 93 % 1004,2 hPa 0,2 l/m 8,0 km/h (2 Bft) W 281 0 min 0,000 mm 0,0 UV-I 0 W/m 2,8 C 2,3 C 17,7 km/h (3 Bft) 97,87 %
18.01.2018 23:26 3,7 C 3,9 C 93 % 1004,2 hPa 0,0 l/m 8,0 km/h (2 Bft) W 275 0 min 0,000 mm 0,0 UV-I 0 W/m 2,7 C 2,2 C 14,5 km/h (3 Bft) 97,87 %
18.01.2018 23:28 3,7 C 3,9 C 93 % 1004,2 hPa 0,0 l/m 6,2 km/h (2 Bft) W 271 0 min 0,000 mm 0,0 UV-I 0 W/m 2,7 C 3,7 C 16,1 km/h (3 Bft) 100,00 %
18.01.2018 23:30 3,7 C 3,9 C 94 % 1004,1 hPa 0,0 l/m 5,8 km/h (2 Bft) W-SW 254 0 min 0,000 mm 0,0 UV-I 0 W/m 2,8 C 3,7 C 11,3 km/h (2 Bft) 100,00 %
18.01.2018 23:32 3,7 C 3,9 C 94 % 1004,0 hPa 0,0 l/m 4,8 km/h (1 Bft) W-NW 292 0 min 0,000 mm 0,0 UV-I 0 W/m 2,8 C 3,7 C 9,7 km/h (2 Bft) 97,87 %
18.01.2018 23:34 3,6 C 3,9 C 94 % 1004,0 hPa 0,2 l/m 2,9 km/h (1 Bft) W 275 0 min 0,000 mm 0,0 UV-I 0 W/m 2,7 C 3,6 C 4,8 km/h (1 Bft) 100,00 %
18.01.2018 23:36 3,6 C 3,9 C 94 % 1004,2 hPa 0,0 l/m 4,2 km/h (1 Bft) W-NW 288 0 min 0,000 mm 0,0 UV-I 0 W/m 2,7 C 3,6 C 11,3 km/h (2 Bft) 97,87 %
18.01.2018 23:38 3,6 C 3,9 C 94 % 1004,3 hPa 0,0 l/m 5,2 km/h (1 Bft) W 277 0 min 0,000 mm 0,0 UV-I 0 W/m 2,7 C 3,6 C 14,5 km/h (3 Bft) 95,83 %
18.01.2018 23:40 3,6 C 3,9 C 95 % 1004,1 hPa 0,2 l/m 4,2 km/h (1 Bft) W 267 0 min 0,000 mm 0,0 UV-I 0 W/m 2,9 C 3,6 C 9,7 km/h (2 Bft) 95,74 %
18.01.2018 23:42 3,6 C 3,9 C 95 % 1004,3 hPa 0,0 l/m 4,8 km/h (1 Bft) W-NW 293 0 min 0,000 mm 0,0 UV-I 0 W/m 2,9 C 3,6 C 11,3 km/h (2 Bft) 91,49 %
18.01.2018 23:44 3,5 C 3,9 C 95 % 1004,3 hPa 0,2 l/m 5,8 km/h (2 Bft) W-NW 285 0 min 0,000 mm 0,0 UV-I 0 W/m 2,8 C 3,5 C 9,7 km/h (2 Bft) 97,87 %
18.01.2018 23:46 3,4 C 3,9 C 95 % 1004,3 hPa 0,0 l/m 8,6 km/h (2 Bft) W 275 0 min 0,000 mm 0,0 UV-I 0 W/m 2,7 C 1,4 C 17,7 km/h (3 Bft) 93,62 %
18.01.2018 23:48 3,4 C 3,3 C 95 % 1004,5 hPa 0,0 l/m 6,1 km/h (2 Bft) W 263 0 min 0,000 mm 0,0 UV-I 0 W/m 2,7 C 3,4 C 11,3 km/h (2 Bft) 95,74 %
18.01.2018 23:50 3,4 C 3,3 C 95 % 1004,5 hPa 0,2 l/m 7,0 km/h (2 Bft) W 279 0 min 0,000 mm 0,0 UV-I 0 W/m 2,7 C 2,8 C 14,5 km/h (3 Bft) 96,00 %
18.01.2018 23:52 3,4 C 3,9 C 95 % 1004,5 hPa 0,2 l/m 4,3 km/h (1 Bft) W 279 0 min 0,000 mm 0,0 UV-I 0 W/m 2,7 C 3,4 C 9,7 km/h (2 Bft) 96,00 %
18.01.2018 23:54 3,4 C 3,9 C 95 % 1004,6 hPa 0,0 l/m 6,4 km/h (2 Bft) W-SW 241 0 min 0,000 mm 0,0 UV-I 0 W/m 2,7 C 3,4 C 12,9 km/h (3 Bft) 95,74 %
18.01.2018 23:56 3,4 C 3,9 C 95 % 1004,5 hPa 0,0 l/m 6,6 km/h (2 Bft) W 262 0 min 0,000 mm 0,0 UV-I 0 W/m 2,7 C 3,2 C 11,3 km/h (2 Bft) 93,62 %
18.01.2018 23:58 3,4 C 3,9 C 95 % 1004,5 hPa 0,2 l/m 8,7 km/h (2 Bft) W 269 0 min 0,000 mm 0,0 UV-I 0 W/m 2,7 C 1,3 C 14,5 km/h (3 Bft) 95,74 %
_ Min-Zeit 04:56 00:00 17:43 17:13 - 11:10 - - - - - - 02:16 00:30 11:04 17:22
Minimum _ 0,8 C 3,3 C 64 % 999,7 hPa - 0,5 km/h (0 Bft) - - - - - - -1,4 C -11,4 C 3,2 km/h (1 Bft) 83,33 %
_ Max-Zeit 18:19 14:04 06:08 03:12 09:04 18:04 - - 08:00 18:01 12:52 12:58 19:51 14:02 21:02 00:24
Maximum _ 10,2 C 3,9 C 95 % 1012,1 hPa 0,2 l/m 37,6 km/h
SW (5 Bft)
- - 2 min 0,102 mm 0,5 UV-I 182 W/m 5,5 C 6,0 C 75,6 km/h
W-SW (9 Bft)
100,00 %
Durchschnitt _ 4,4 C 3,4 C 83 % 1006,0 hPa #7,4 l/m 16,8 km/h (3 Bft) W-SW - #44 min. #0,965 mm 0,4 UV-I 72 W/m 1,7 C -1,8 C 25,9 km/h (4 Bft) 97,94 %